     2.11           OBSERVATION DATA    G (GPS)             RINEX VERSION / TYPE
teqc 2010Oct21 OPUS Account 20111027 19:11:59UTC            PGM / RUN BY / DATE
W 1525                                                      MARKER NAME
3031                                                        MARKER NUMBER
CSMIDDLETON NGS                                             OBSERVER / AGENCY
0440103897 TRIMBLE 5700 1.04                                REC # / TYPE / VERS
12299603 TRM41249.00 NONE                                   ANT # / TYPE
  -759269.3136 -5557613.0545  3025896.8547                  APPROX POSITION XYZ
        1.9990        0.0000        0.0000                  ANTENNA: DELTA H/E/N
     1     1                                                WAVELENGTH FACT L1/2
     5    L1    L2    C1    P1    P2                        # / TYPES OF OBSERV
    15                                                      LEAP SECONDS
  2011     8    19     0     0   30.0000000     GPS         TIME OF FIRST OBS
                                                            END OF HEADER
 11  8 19  0  0 30.0000000  0  7G12G17G10G05G04G09G02
 -25045237.17557 -19500081.67155  22113634.9844                   22113633.0744
 -66951086.49157 -52153868.18355  22766428.8984                   22766427.6374
 -38820132.11258 -30234326.50156  21068517.2194                   21068516.3834
 -16571515.63257 -12896944.48255  22900917.1484                   22900916.6484
 -57559184.68658 -44834176.26856  21071977.1484                   21071975.4264
 -31994008.65757 -24914080.25754  23024178.2274                   23024176.8134
 -46221791.74458 -36000504.52456  20723394.9534                   20723390.8554
 11  8 19  0  1  0.0000000  0  7G12G17G10G05G04G09G02
 -25195655.77548 -19617290.93846  22085011.1414                   22085009.1024
 -66977953.97347 -52174803.93445  22761316.2974                   22761314.4654
 -38922236.37448 -30313888.24546  21049087.6724                   21049086.2074
 -16745177.15347 -13032265.05145  22867870.6644                   22867869.7344
 -57564105.26248 -44838010.50846  21071040.9694                   21071039.6914
 -32000327.81546 -24919004.31445  23022975.3674                   23022975.1994
 -46309704.85248 -36069008.22946  20706665.6174                   20706661.6604
 11  8 19  0  1 30.0000000  0  7G12G17G10G05G04G09G02
 -25345707.06548 -19734213.99945  22056457.5864                   22056455.4414
 -67004637.08347 -52195595.97245  22756238.3054                   22756237.1174
 -39023697.23448 -30392948.61946  21029780.5554                   21029778.7074
 -16918618.18947 -13167413.81145  22834865.9384                   22834865.2304
 -57568726.17248 -44841611.24246  21070161.8054                   21070159.9304
 -32006259.96747 -24923626.79345  23021846.1884                   23021846.8364
 -46397222.70348 -36137203.93246  20690011.2114                   20690007.1414
 11  8 19  0  2  0.0000000  0  7G12G17G10G05G04G09G02
 -25495388.59848 -19850848.93346  22027974.2584                   22027971.9924
 -67031134.36547 -52216243.24945  22751196.2194                   22751195.1374
 -39124512.59548 -30471506.00346  21010595.8524                   21010593.6094
 -17091835.18847 -13302387.96445  22801903.6254                   22801903.8794
 -57573049.22648 -44844979.87846  21069339.3674                   21069337.3984
 -32011808.25447 -24927950.18545  23020790.4694                   23020791.1884
 -46484345.47148 -36205091.78146  20673432.5394                   20673427.8134
 11  8 19  0  2 30.0000000  0  7G12G17G10G05G04G09G02
 -25644698.51248 -19967194.28846  21999561.4774                   21999559.1764
 -67057446.42547 -52236746.19245  22746188.8204                   22746187.5124
 -39224681.95948 -30549560.01446  20991534.0784                   20991532.3204
 -17264825.97747 -13437185.88645  22768984.3284                   22768984.5474
 -57577077.68848 -44848118.96246  21068572.5944                   21068570.8594
 -32016976.81447 -24931977.68944  23019806.8444                   23019806.9734
 -46571074.91148 -36272673.14146  20656928.5864                   20656924.4304
 11  8 19  0  3  0.0000000  0  7G12G17G10G05G04G09G02
 -25793637.54648 -20083250.66046  21971219.0004                   21971217.2774
 -67083575.98247 -52257106.89745  22741217.0234                   22741215.7664
 -39324207.07648 -30627112.02646  20972595.2344                   20972593.3094
 -17437591.15547 -13571807.98445  22736108.0704                   22736108.1724
 -57580817.16548 -44851032.86546  21067860.7734                   21067859.6094
 -32021772.36647 -24935714.55745  23018894.6954                   23018894.6524
 -46657415.43648 -36339951.44546  20640498.2034                   20640494.3794
 11  8 19  0  3 30.0000000  0  7G12G17G10G05G04G09G02
 -25942204.83548 -20199017.34746  21942948.0554                   21942945.5004
 -67109524.04147 -52277326.20245  22736278.6884                   22736277.8754
 -39423087.83648 -30704161.94046  20953778.9774                   20953776.9924
 -17610129.47947 -13706253.33045  22703275.2664                   22703275.4614
 -57584271.59848 -44853724.64646  21067203.7504                   21067202.2734
 -32026199.89547 -24939164.62544  23018052.1724                   23018051.9414
 -46743369.42848 -36406928.56546  20624142.3134                   20624138.1294
 11  8 19  0  4  0.0000000  0  7G12G17G10G05G04G09G02
 -26090403.04547 -20314496.43046  21914746.1954                   21914744.6644
 -67135295.27747 -52297407.72045  22731375.0944                   22731374.2034
 -39521328.12348 -30780712.76546  20935084.1174                   20935082.7154
 -17782442.89047 -13840523.41345  22670484.9694                   22670485.2894
 -57587448.64548 -44856200.28046  21066599.0234                   21066597.1454
 -32030268.11547 -24942334.71244  23017277.5554                   23017277.7664
 -46828943.14748 -36473609.36246  20607857.8914                   20607853.4224
 11  8 19  0  4 30.0000000  0  7G12G17G10G05G04G09G02
 -26238226.26948 -20429683.33646  21886616.9304                   21886613.9064
 -67160885.63747 -52317348.31945  22726505.5554                   22726504.0904
 -39618923.28948 -30856760.91846  20916512.2664                   20916510.6804
 -17954525.08747 -13974613.33045  22637738.4454                   22637739.0314
 -57590347.30348 -44858458.97346  21066047.2344                   21066045.9224
 -32033977.12047 -24945224.88944  23016572.6094                   23016571.9534
 -46914134.09048 -36539991.88546  20591646.3054                   20591642.3284
 11  8 19  0  5  0.0000000  0  7G12G17G10G05G04G09G02
 -26385672.54247 -20544576.51446  21858559.0944                   21858557.1804
 -67186295.17947 -52337148.01645  22721670.2424                   22721669.1954
 -39715872.45148 -30932305.69646  20898063.3984                   20898062.0554
 -18126373.87147 -14108521.35145  22605036.7974                   22605037.0704
 -57592970.28148 -44860502.86746  21065548.6884                   21065546.9144
 -32037330.90747 -24947838.27044  23015934.3984                   23015934.4574
 -46998943.83748 -36606077.37746  20575507.7274                   20575503.3754
 11  8 19  0  5 30.0000000  0  7G12G17G10G05G04G09G02
 -26532740.31548 -20659174.74946  21830572.5554                   21830570.5394
 -67211524.28647 -52356807.11645  22716869.3444                   22716868.2774
 -39812175.50748 -31007346.99946  20879737.6804                   20879736.2274
 -18297987.47847 -14242246.12545  22572379.8674                   22572379.3834
 -57595321.23648 -44862334.78346  21065100.7734                   21065099.5744
 -32040333.58547 -24950178.06544  23015361.9534                   23015362.8874
 -47083374.29448 -36671867.31646  20559440.9384                   20559436.9024
 11  8 19  0  6  0.0000000  0  7G12G17G10G05G04G09G02
 -26679427.24547 -20773476.23146  21802658.9614                   21802657.1054
 -67236572.37647 -52376325.15745  22712103.2504                   22712101.6484
 -39907830.65947 -31081883.46646  20861535.1804                   20861533.2814
 -18469362.65647 -14375785.10345  22539768.2504                   22539767.3794
 -57597402.13047 -44863956.26246  21064705.2814                   21064703.2584
 -32042988.70546 -24952247.08744  23014857.4614                   23014858.1414
 -47167426.34448 -36737362.40246  20543446.3984                   20543442.5824
 11  8 19  0  6 30.0000000  0  8G12G30G17G10G05G04G09G02
 -26825732.03747 -20887479.93146  21774817.7114                   21774815.8594
   -262927.63956   -184387.73953  24224688.5474                   24224689.2704
 -67261440.26347 -52395702.75445  22707370.8284                   22707369.9804
 -40002838.22248 -31155915.32346  20843455.9924                   20843454.1914
 -18640497.98247 -14509137.20545  22507202.1174                   22507201.6294
 -57599217.06948 -44865370.50146  21064359.6174                   21064358.1254
 -32045301.15746 -24954049.02944  23014417.1884                   23014417.3164
 -47251102.22048 -36802564.36346  20527523.3364                   20527519.8284
 11  8 19  0  7  0.0000000  0  8G12G30G17G10G05G04G09G02
 -26971663.78148 -21001192.93846  21747048.1804                   21747045.8524
   -440460.47346   -322724.98543  24190906.0784                   24190904.4734
 -67286138.87147 -52414948.46745  22702670.8134                   22702669.5354
 -40097208.56148 -31229450.63346  20825497.6254                   20825496.0944
 -18811402.04947 -14642309.07345  22474679.9144                   22474679.0234
 -57600779.79048 -44866588.20846  21064062.1644                   21064060.6024
 -32047285.80346 -24955595.56144  23014040.0004                   23014040.6764
 -47334414.61148 -36867483.08747  20511669.5234                   20511665.6954
 11  8 19  0  7 30.0000000  0  8G12G30G17G10G05G04G09G02
 -25541802.36348 -19887015.17246  22019141.3834                   22019139.1294
    957629.57846    766695.78443  24456952.1254                   24456953.1134
 -65735253.86947 -51206466.69945  22997793.9304                   22997792.8874
 -38615524.31048 -30074891.45046  21107452.5944                   21107451.2664
 -17406653.36147 -13547699.61145  22741994.6724                   22741994.7934
 -56026679.61148 -43640016.63746  21363603.7424                   21363601.7814
 -30473533.26746 -23729294.95844  23313514.7974                   23313515.2304
 -45841948.83248 -35704522.72847  20795676.3364                   20795672.6454
 11  8 19  0  8  0.0000000  0  8G12G30G17G10G05G04G09G02
 -25686994.18947 -20000151.61646  21991511.9304                   21991509.8134
    780494.16946    628668.16442  24423244.6884                   24423245.0164
 -65759625.66947 -51225457.74645  22993156.6094                   22993155.2154
 -38708629.79548 -30147441.14846  21089735.2814                   21089733.6024
 -17577099.82247 -13680514.94245  22709559.9454                   22709559.1564
 -56027758.09448 -43640857.04146  21363398.2584                   21363396.4024
 -30474886.14046 -23730349.19044  23313257.8364                   23313258.1214
 -45924550.66848 -35768887.77946  20779957.7664                   20779953.2814
 11  8 19  0  8 30.0000000  0  8G12G30G17G10G05G04G09G02
 -25831808.50148 -20112993.89346  21963955.1724                   21963952.8874
    603564.60646    490800.92642  24389575.7664                   24389575.6564
 -65783830.32847 -51244318.54945  22988550.4694                   22988549.6024
 -38801097.96147 -30219494.22646  21072139.4064                   21072137.5554
 -17747309.75047 -13813145.94045  22677169.9454                   22677168.9844
 -56028595.00648 -43641509.20046  21363239.0784                   21363237.5354
 -30475924.89646 -23731158.70444  23313060.0164                   23313060.3094
 -46006795.56948 -35832974.70047  20764306.8204                   20764302.8364
 11  8 19  0  9  0.0000000  0  8G12G30G17G10G05G04G09G02
 -25976234.31048 -20225533.45446  21936471.8674                   21936469.5554
    426852.91346    353103.55542  24355949.1564                   24355949.2344
 -65807857.83747 -51263041.31145  22983978.6094                   22983976.8594
 -38892918.61348 -30291042.76146  21054666.3364                   21054664.4534
 -17917271.20847 -13945583.34245  22644827.1334                   22644826.7424
 -56029183.17448 -43641967.51146  21363127.3364                   21363125.4964
 -30476643.76346 -23731718.90144  23312922.8134                   23312923.4104
 -46088675.23748 -35896777.02447  20748725.9694                   20748721.4264
 11  8 19  0  9 30.0000000  0  8G12G30G17G10G05G04G09G02
 -26120273.74848 -20337771.93346  21909062.0784                   21909060.3714
    250357.01746    215574.29443  24322364.0004                   24322364.4614
 -65831712.56247 -51281629.48445  22979439.1804                   22979437.6644
 -38984095.18147 -30362089.41046  21037315.8134                   21037314.1764
 -18086985.80147 -14077828.38245  22612531.5474                   22612530.4694
 -56029529.77248 -43642237.61646  21363061.0944                   21363059.6724
 -30477051.17647 -23732036.39544  23312845.6024                   23312844.9964
 -46170195.25848 -35960299.10346  20733213.6564                   20733209.0394
 11  8 19  0 10  0.0000000  0  8G12G30G17G10G05G04G09G02
 -26263921.49148 -20449705.19946  21881726.5234                   21881724.8984
     74082.36146     78217.60043  24288819.3134                   24288819.4804
 -65855390.72747 -51300080.00745  22974933.2584                   22974932.6524
 -39074623.43648 -30432630.88046  21020089.0004                   21020087.6054
 -18256447.89647 -14209876.64645  22580283.8834                   22580283.3094
 -56029634.24848 -43642319.03146  21363041.0474                   21363039.8594
 -30477147.70547 -23732111.68844  23312827.4224                   23312827.8524
 -46251353.87448 -36023539.56646  20717769.5084                   20717764.9224
 11  8 19  0 10 30.0000000  0  8G12G30G17G10G05G04G09G02
 -26407171.40648 -20561328.48946  21854466.7194                   21854465.3554
   -101964.78246    -58961.92543  24255318.2664                   24255318.9534
 -65878888.28147 -51318389.81545  22970461.6484                   22970461.1414
 -39164499.08248 -30502663.80846  21002986.2584                   21002984.3984
 -18425651.00947 -14341723.13045  22548085.6024                   22548084.7934
 -56029495.15848 -43642210.66046  21363067.5784                   21363066.4534
 -30476933.20546 -23731944.60144  23312868.8444                   23312867.3674
 -46332148.91148 -36086496.72046  20702394.4304                   20702390.1644
 11  8 19  0 11  0.0000000  0  8G12G30G17G10G05G04G09G02
 -26550021.67948 -20672640.34246  21827283.3284                   21827281.4494
   -277782.23746   -195962.49243  24221861.6094                   24221860.6684
 -65902205.53647 -51336559.14445  22966024.7114                   22966023.3714
 -39253721.59048 -30572187.80746  20986007.7814                   20986006.0394
 -18594592.66347 -14473365.87645  22515936.5864                   22515936.5704
 -56029115.63747 -43641914.93646  21363139.9144                   21363138.4384
 -30476411.73247 -23731538.30844  23312967.8284                   23312967.7704
 -46412581.72448 -36149171.62646  20687088.3834                   20687084.0044
 11  8 19  0 11 30.0000000  0  9G12G30G17G10G05G04G25G09G02
 -26692474.98247 -20783642.88046  21800175.5394                   21800173.1414
   -453372.89846   -332786.25343  24188447.4384                   24188446.9104
 -65925347.40347 -51354591.80045  22961621.4614                   22961619.7734
 -39342295.68747 -30641206.54446  20969152.7194                   20969150.7074
 -18763275.85447 -14604807.18845  22483837.2584                   22483837.3634
 -56028503.31547 -43641437.81146  21363256.2974                   21363254.9184
   1316214.70457   1045483.92853  24680482.8284                   24680486.2194
 -30475592.55946 -23730900.05644  23313123.5784                   23313124.6094
 -46492658.79948 -36211569.32846  20671850.5314                   20671845.8674
 11  8 19  0 12  0.0000000  0  9G12G30G17G10G05G04G25G09G02
 -26834533.45748 -20894337.77546  21773142.7274                   21773139.9304
   -628738.14246   -469434.43044  24155076.7034                   24155077.0354
 -65948317.05547 -51372490.24845  22957250.2734                   22957248.6644
 -39430224.25147 -30709722.27346  20952419.7734                   20952418.7934
 -18931701.48747 -14736047.82945  22451786.7344                   22451786.0314
 -56027664.36447 -43640784.09846  21363416.1024                   21363414.7934
   1141373.05046    909243.75743  24647211.7894                   24647214.7544
 -30474482.75346 -23730035.37844  23313335.0784                   23313335.9064
 -46572385.41548 -36273693.95446  20656678.7034                   20656674.5554
 11  8 19  0 12 30.0000000  0  9G12G30G17G10G05G04G25G09G02
 -26976201.37348 -21004728.32046  21746184.1954                   21746182.5204
   -803881.80346   -605909.94944  24121747.6644                   24121748.0204
 -65971120.81647 -51390259.46945  22952910.7894                   22952908.7774
 -39517512.83247 -30777739.32546  20935809.8054                   20935808.2624
 -19099873.25647 -14867090.64845  22419784.5314                   22419784.1254
 -56026608.14247 -43639961.06746  21363617.0704                   21363615.8954
    966663.54546    773106.50343  24613964.4774                   24613968.9264
 -30473092.50146 -23728952.08244  23313599.6484                   23313599.5314
 -46651769.07048 -36335551.33146  20641572.7974                   20641568.5124
 11  8 19  0 13  0.0000000  0  9G12G30G17G10G05G04G25G09G02
 -27117478.70348 -21114814.53546  21719299.9064                   21719298.3094
   -978804.00947   -742212.82644  24088461.0234                   24088461.4494
 -65993760.72547 -51407900.98744  22948602.3674                   22948601.4414
 -39604163.35548 -30845259.20046  20919320.9844                   20919319.3594
 -19267790.93947 -14997935.48145  22387831.1724                   22387830.1214
 -56025339.32548 -43638972.40246  21363858.7424                   21363857.5164
    792085.73946    637071.96243  24580744.4534                   24580748.0474
 -30471427.90646 -23727655.05644  23313916.4144                   23313916.6024
 -46730813.65048 -36397144.50446  20626530.8204                   20626526.7734
 11  8 19  0 13 30.0000000  0  9G12G30G17G10G05G04G25G09G02
 -27258357.11347 -21224589.88646  21692491.8984                   21692489.8054
  -1153496.16446   -878336.49844  24055219.0004                   24055217.9774
 -66016230.93247 -51425410.29145  22944326.2584                   22944324.7304
 -39690169.08248 -30912276.62446  20902954.6414                   20902952.4104
 -19435446.03347 -15128575.71445  22355927.5474                   22355926.4844
 -56023854.62148 -43637815.51046  21364141.0234                   21364139.5434
    617647.87646    501146.38043  24547549.9924                   24547551.8914
 -30469486.80847 -23726142.58544  23314285.7584                   23314286.6134
 -46809514.48248 -36458469.81747  20611554.8594                   20611550.3984
 11  8 19  0 14  0.0000000  0  9G12G30G17G10G05G04G25G09G02
 -27398832.36148 -21334051.10246  21665759.9454                   21665757.5634
  -1327953.63846  -1014277.37843  24022020.0164                   24022019.9654
 -66038528.61847 -51442785.16745  22940083.4844                   22940082.6524
 -39775527.18448 -30978789.39746  20886711.0314                   20886709.6764
 -19602833.33747 -15259007.28145  22324074.0164                   22324074.5274
 -56022154.05848 -43636490.40146  21364465.0394                   21364463.2584
    443354.42646    365333.37843  24514382.3054                   24514385.2664
 -30467270.83047 -23724415.90944  23314707.4384                   23314708.5514
 -46887870.63048 -36519526.54947  20596644.1024                   20596640.1414
 11  8 19  0 14 30.0000000  0  9G12G30G17G10G05G04G25G09G02
 -27538897.64648 -21443192.86646  21639106.4774                   21639104.3794
  -1502169.45346  -1150029.85943  23988868.2894                   23988866.9494
 -66060648.81847 -51460021.72844  22935874.5084                   22935873.1454
 -39860232.52248 -31044793.53946  20870592.4384                   20870590.3554
 -19769945.91247 -15389224.76645  22292274.0004                   22292273.8134
 -56020235.58248 -43634995.50046  21364829.7424                   21364828.3524
    269211.96246    229638.10343  24481244.7034                   24481246.9694
 -30464778.99047 -23722474.30044  23315180.9924                   23315183.0354
 -46965879.02748 -36580312.31247  20581799.4774                   20581795.4964
 11  8 19  0 15  0.0000000  0  9G12G30G17G10G05G04G25G09G02
 -27678550.23148 -21552013.04446  21612531.5704                   21612529.5744
  -1676140.39546  -1285591.64043  23955762.6094                   23955760.3914
 -66082590.49447 -51477119.18145  22931698.9614                   22931697.3404
 -39944284.13248 -31110288.28446  20854597.3984                   20854596.5704
 -19936780.55147 -15519225.68745  22260526.0704                   22260526.1524
 -56018101.20648 -43633332.35146  21365236.0004                   21365234.9384
     95223.41146     94062.69243  24448135.9924                   24448137.5204
 -30462014.27447 -23720320.01844  23315708.4304                   23315708.6644
 -47043540.33148 -36640827.59346  20567021.0634                   20567017.2974
 11  8 19  0 15 30.0000000  0  9G12G30G17G10G05G04G25G09G02
 -27817782.12948 -21660505.40746  21586036.2424                   21586034.9494
  -1849858.06446  -1420956.11743  23922704.7814                   23922703.7854
 -66104347.72847 -51494072.90944  22927558.0784                   22927557.5554
 -40027675.40148 -31175268.48746  20838728.7814                   20838727.2114
 -20103328.46747 -15649003.18945  22228833.2274                   22228832.6954
 -56015747.46248 -43631498.30146  21365683.8524                   21365682.3324
    -78603.29446    -41386.59844  24415058.1174                   24415059.9804
 -30458974.64547 -23717951.57244  23316286.7894                   23316287.9264
 -47120849.75748 -36701068.69847  20552309.1724                   20552304.9614
 11  8 19  0 16  0.0000000  0  9G12G30G17G10G05G04G25G09G02
 -27956594.53247 -21768670.87546  21559621.1884                   21559619.1684
  -2023323.64246  -1556123.99943  23889695.0864                   23889694.1454
 -66125923.80747 -51510885.47645  22923452.9694                   22923451.9104
 -40110409.22348 -31239736.36946  20822985.1644                   20822983.6054
 -20269590.66147 -15778558.05545  22197194.3284                   22197194.0204
 -56013180.32348 -43629497.95146  21366172.4304                   21366170.8634
   -252269.41146   -176710.78644  24382010.3444                   24382012.8834
 -30455667.54547 -23715374.70544  23316915.3364                   23316916.6644
 -47197812.31748 -36761039.50646  20537663.8914                   20537659.0664
 11  8 19  0 16 30.0000000  0  9G12G30G17G10G05G04G25G09G02
 -28094978.94647 -21876502.85546  21533287.6804                   21533285.6054
  -2196527.95746  -1691088.42242  23856734.6024                   23856735.6024
 -66147311.60647 -51527551.37545  22919383.0474                   22919381.7774
 -40192478.86048 -31303686.71846  20807368.1174                   20807366.5784
 -20435558.17747 -15907883.30145  22165611.6724                   22165611.2934
 -56010395.70048 -43627328.13145  21366702.0394                   21366700.7234
   -425766.21547   -311903.01444  24348995.2114                   24348997.6524
 -30452089.89047 -23712587.02044  23317596.7814                   23317596.9734
 -47274422.89348 -36820736.05046  20523085.1564                   20523080.9024
 11  8 19  0 17  0.0000000  0  9G12G30G17G10G05G04G25G09G02
 -28232931.14547 -21983998.06346  21507036.0234                   21507034.0004
  -2369466.72446  -1825845.85543  23823826.6884                   23823825.6804
 -66168509.17647 -51544069.04744  22915348.8754                   22915348.6994
 -40273882.03048 -31367117.74446  20791877.5314                   20791875.3524
 -20601226.47447 -16036975.38645  22134086.1954                   22134085.1374
 -56007394.38048 -43624989.45845  21367273.3914                   21367271.5394
   -599089.65347   -446960.18044  24316012.6414                   24316015.1604
 -30448243.79847 -23709590.12544  23318328.4694                   23318329.1684
 -47350681.02548 -36880157.96546  20508573.8204                   20508569.5554
 11  8 19  0 17 30.0000000  0  9G12G30G17G10G05G04G25G09G02
 -28370453.22947 -22091158.09246  21480866.2344                   21480864.7504
  -2542141.60846  -1960397.69743  23790968.3834                   23790967.3984
 -66189520.50947 -51560441.54145  22911350.8674                   22911349.5784
 -40354622.36748 -31430032.27046  20776513.0004                   20776511.7894
 -20766597.02247 -16165835.46045  22102616.7814                   22102616.5234
 -56004182.69148 -43622486.84745  21367884.3754                   21367883.2814
   -772241.79847   -581883.89244  24283062.5164                   24283064.4024
 -30444137.14547 -23706390.22444  23319110.7584                   23319110.9614
 -47426592.09448 -36939309.44246  20494128.7424                   20494124.2384
 11  8 19  0 18  0.0000000  0  9G12G30G17G10G05G04G25G09G02
 -28507540.67847 -22197979.45346  21454779.7974                   21454778.0354
  -2714547.52846  -2094739.95743  23758159.6804                   23758158.0864
 -66210342.37446 -51576666.41045  22907389.2114                   22907387.2074
 -40434696.57748 -31492427.74946  20761275.6334                   20761273.9884
 -20931664.32547 -16294459.25745  22071205.6804                   22071205.0084
 -56000760.77348 -43619820.44145  21368535.9844                   21368534.3714
   -945217.75647   -716670.32944  24250147.2034                   24250148.9774
 -30439770.93347 -23702988.05244  23319940.8204                   23319942.1024
 -47502154.69148 -36998189.36546  20479749.6094                   20479745.1764
 11  8 19  0 18 30.0000000  0  9G12G30G17G10G05G04G25G09G02
 -27068764.28747 -21076854.95446  21728569.9224                   21728567.9964
  -1311253.90047  -1001264.41643  24025197.6334                   24025197.3094
 -64655551.78247 -50365141.32044  23203255.8364                   23203254.6454
 -38938679.58948 -30326700.19946  21045957.8054                   21045955.7194
 -19520998.30547 -15195238.87445  22339646.3134                   22339645.8874
 -54421708.69248 -42389390.25345  21669019.5784                   21669018.2194
    457412.67747    376288.43644  24517057.9064                   24517060.3634
 -28859726.88047 -22471784.95944  23620613.2504                   23620614.7154
 -46001945.96448 -35829195.52947  20765229.8444                   20765225.3594
 11  8 19  0 19  0.0000000  0  9G12G30G17G10G05G04G25G09G02
 -27204967.88947 -21182987.60346  21702651.1414                   21702649.0664
  -1483106.79147  -1135175.71044  23992495.0394                   23992495.0124
 -64675986.84747 -50381064.81144  23199367.0164                   23199365.6644
 -39017413.86648 -30388051.57246  21030975.4534                   21030973.9774
 -19685444.27447 -15323378.48546  22308353.3444                   22308352.5474
 -54417865.81948 -42386395.81945  21669751.0784                   21669749.1564
    284803.24047    241787.59444  24484211.8284                   24484214.8324
 -28854845.39347 -22467981.31944  23621542.4694                   23621542.9964
 -46076808.99448 -35887530.34246  20750983.9144                   20750979.4024
 11  8 19  0 19 30.0000000  0  9G12G30G17G10G05G04G25G09G02
 -27340725.20247 -21288772.48946  21676817.2734                   21676815.4574
  -1654678.01147  -1268867.60743  23959846.3204                   23959846.5514
 -64696226.66447 -50396836.17244  23195515.0394                   23195514.6294
 -39095476.22548 -30448879.37046  21016120.4064                   21016118.9534
 -19849574.04047 -15451271.72245  22277120.3674                   22277119.5394
 -54413814.56347 -42383239.01645  21670522.0004                   21670520.1174
    112381.86846    107433.26744  24451400.9384                   24451403.5474
 -28849710.18546 -22463979.90944  23622520.1174                   23622520.4414
 -46151322.93947 -35945593.15746  20736804.1414                   20736800.3984
 11  8 19  0 20  0.0000000  0  9G12G30G17G10G05G04G25G09G02
 -27476033.89047 -21394207.80446  21651069.0864                   21651067.0664
  -1825964.90447  -1402337.82944  23927252.0944                   23927252.0084
 -64716271.01047 -50412455.24745  23191701.1644                   23191700.4264
 -39172866.48348 -30509183.43946  21001393.6484                   21001391.8364
 -20013385.03147 -15578916.55346  22245948.0084                   22245946.9534
 -54409557.44348 -42379921.78645  21671332.0084                   21671330.1684
    -59849.24746    -26772.78343  24418625.7814                   24418628.6214
 -28844325.00246 -22459783.76144  23623544.5704                   23623545.5634
 -46225488.73648 -36003384.67446  20722691.3754                   20722687.1994
 11  8 19  0 20 30.0000000  0  9G12G30G17G10G05G04G25G09G02
 -27610892.00447 -21499292.02546  21625405.9064                   21625404.4224
  -1996964.99947  -1535584.64444  23894711.5084                   23894710.7034
 -64736119.17847 -50427921.40545  23187923.9694                   23187923.2544
 -39249584.01047 -30568963.31146  20986794.9144                   20986793.0824
 -20176874.53947 -15706310.89046  22214836.7974                   22214835.8244
 -54405096.70848 -42376445.91945  21672180.6024                   21672178.8204
   -231887.64346   -160828.65643  24385888.5784                   24385889.6884
 -28838693.63747 -22455395.78244  23624616.6174                   23624616.2854
 -46299308.00747 -36060906.17747  20708643.6644                   20708640.0704
 11  8 19  0 21  0.0000000  0  9G12G30G17G10G05G04G25G09G02
 -27745290.37847 -21604018.01246  21599830.9694                   21599828.6564
  -2167668.56746  -1668600.42543  23862227.6804                   23862226.8714
 -64755763.93647 -50443229.03845  23184185.9844                   23184185.5824
 -39325621.45147 -30628213.23046  20972325.4454                   20972323.3874
 -20340032.94947 -15833447.21846  22183789.1954                   22183788.4384
 -54400427.41847 -42372807.53545  21673069.3364                   21673067.5234
   -403723.99246   -294727.06843  24353189.1884                   24353191.7384
 -28832812.55546 -22450813.15144  23625735.6484                   23625734.9264
 -46372775.02748 -36118153.19246  20694663.3834                   20694659.3634
 11  8 19  0 21 30.0000000  0  9G12G30G17G10G05G04G25G09G02
 -27879231.09647 -21708387.37646  21574343.1334                   21574340.6334
  -2338077.73047  -1801386.70244  23829800.1484                   23829798.8014
 -64775209.54447 -50458381.48345  23180485.8834                   23180484.7934
 -39400983.32748 -30686936.74146  20957984.1414                   20957982.4024
 -20502861.99047 -15960326.89646  22152803.4454                   22152803.0864
 -54395556.75148 -42369012.24945  21673996.1254                   21673995.2074
   -575360.63746   -428469.93343  24320527.7504                   24320529.3984
 -28826690.23547 -22446042.61544  23626900.6884                   23626900.2894
 -46445895.81048 -36175130.41846  20680748.6414                   20680744.1134
 11  8 19  0 22  0.0000000  0  9G12G30G17G10G05G04G25G09G02
 -28012709.91947 -21812396.82346  21548942.9224                   21548941.0354
  -2508187.38846  -1933939.63843  23797429.4844                   23797428.2384
 -64794453.27347 -50473376.62545  23176823.7814                   23176823.6484
 -39475666.96547 -30745131.75746  20943772.5944                   20943770.8134
 -20665356.82947 -16086946.16346  22121881.7814                   22121881.4414
 -54390484.77148 -42365060.07745  21674961.8594                   21674959.9494
   -746792.82347   -562053.48043  24287905.6024                   24287906.9384
 -28820327.73046 -22441084.84944  23628111.2974                   23628111.7584
 -46518669.10148 -36231836.85946  20666900.6644                   20666896.1844
 11  8 19  0 22 30.0000000  0  9G12G30G17G10G05G04G25G09G02
 -28145723.89947 -21916044.05846  21523631.3134                   21523628.7074
  -2677994.57946  -2066256.88343  23765115.8054                   23765114.5234
 -64813494.39147 -50488213.88845  23173200.8834                   23173199.8444
 -39549671.58047 -30802797.67446  20929689.5704                   20929688.5944
 -20827514.32247 -16213302.57546  22091024.2664                   22091023.5204
 -54385212.90048 -42360952.15045  21675964.6484                   21675962.8594
   -918017.81647   -695475.53144  24255322.3834                   24255324.4654
 -28813728.38447 -22435942.62244  23629367.2424                   23629367.7734
 -46591095.90447 -36288273.32447  20653118.5314                   20653113.4964
 11  8 19  0 23  0.0000000  0  9G12G30G17G10G05G04G25G09G02
 -28278275.45047 -22019330.96146  21498407.3674                   21498404.9344
  -2847500.94846  -2198339.73743  23732858.7734                   23732857.8984
 -64832336.79247 -50502896.32044  23169615.1254                   23169613.6524
 -39623001.76447 -30859938.04746  20915735.4924                   20915733.9104
 -20989335.99947 -16339397.31546  22060230.4924                   22060229.3634
 -54379748.05848 -42356693.85045  21677004.5394                   21677002.9414
  -1089037.42247   -828737.55844  24222778.4534                   24222779.8204
 -28806900.13847 -22430621.91644  23630666.5944                   23630666.6134
 -46663181.67648 -36344444.03446  20639400.6724                   20639396.5124
 11  8 19  0 23 30.0000000  0  9G12G30G17G10G05G04G25G09G02
 -28410358.58647 -22122252.85646  21473272.7584                   21473270.4884
  -3016700.13146  -2330183.16843  23700661.5394                   23700660.5164
 -64850976.51547 -50517420.84045  23166067.8674                   23166067.3914
 -39695653.08048 -30916549.44246  20901910.4224                   20901909.0784
 -21150815.29247 -16465225.26446  22029502.1954                   22029500.6914
 -54374088.50648 -42352283.82745  21678081.4384                   21678079.8014
  -1259845.55247   -961834.80344  24190275.0634                   24190277.2774
 -28799842.89947 -22425122.84044  23632009.6564                   23632010.0634
 -46734923.91148 -36400347.05546  20625748.7974                   20625743.9574
 11  8 19  0 24  0.0000000  0  9G12G30G17G10G05G04G25G09G02
 -28541968.51947 -22224806.04346  21448228.2194                   21448225.7274
  -3185586.73946  -2461783.06843  23668523.7734                   23668521.8014
 -64869410.29747 -50531784.90045  23162560.0314                   23162559.4224
 -39767623.09747 -30972629.96146  20888215.2274                   20888213.1374
 -21311947.28747 -16590782.58246  21998839.4694                   21998838.6134
 -54368233.91948 -42347721.82945  21679195.6954                   21679194.0124
  -1430437.21647  -1094763.35744  24157812.3054                   24157814.4454
 -28792557.38647 -22419445.90944  23633395.3754                   23633396.6954
 -46806321.70848 -36455981.69547  20612161.8984                   20612157.0784
 11  8 19  0 24 30.0000000  0  9G12G30G17G10G05G04G25G09G02
 -28673105.26148 -22326990.50046  21423274.1724                   21423271.3444
  -3354160.53646  -2593139.19243  23636445.3984                   23636444.6454
 -64887640.23247 -50545990.11044  23159091.3914                   23159089.9924
 -39838913.70448 -31028181.03846  20874648.7584                   20874647.4574
 -21472731.18747 -16716068.66046  21968243.6254                   21968241.7934
 -54362188.86248 -42343011.43145  21680346.0084                   21680344.8324
  -1600812.29247  -1227523.13744  24125390.8524                   24125392.5394
 -28785049.60547 -22413595.73244  23634824.1564                   23634825.7624
 -46877378.29648 -36511350.44046  20598640.3984                   20598636.1054
 11  8 19  0 25  0.0000000  0  9G12G30G17G10G05G04G25G09G02
 -28803762.49048 -22428801.30746  21398410.3524                   21398408.3134
  -3522414.34847  -2724245.96343  23604427.5864                   23604426.7074
 -64905661.39647 -50560032.61044  23155661.0944                   23155661.4184
 -39909520.41548 -31083199.24446  20861213.0474                   20861211.3754
 -21633159.99847 -16841078.05446  21937714.8754                   21937713.1024
 -54355950.83548 -42338150.65545  21681533.0944                   21681531.8444
  -1770963.84147  -1360108.69244  24093011.5314                   24093014.1214
 -28777318.54747 -22407571.59644  23636295.7194                   23636297.7974
 -46948090.72248 -36566451.01246  20585184.1804                   20585179.9144
 11  8 19  0 25 30.0000000  0  9G12G30G17G10G05G04G25G09G02
 -28933938.49747 -22530237.13446  21373638.9534                   21373636.1764
  -3690346.24947  -2855101.94743  23572471.4144                   23572469.7894
 -64923473.90647 -50573912.50844  23152272.1174                   23152271.5044
 -39979444.07447 -31137685.19246  20847906.8204                   20847905.7344
 -21793231.44747 -16965808.98146  21907254.0394                   21907253.0044
 -54349522.88148 -42333141.89745  21682756.0164                   21682754.9384
  -1940890.25547  -1492518.83644  24060676.4454                   24060678.1334
 -28769368.80347 -22401377.04744  23637808.6254                   23637810.4884
 -47018461.06048 -36621285.02146  20571793.3444                   20571789.1414
 11  8 19  0 26  0.0000000  0  9G12G30G17G10G05G04G25G09G02
 -29063632.43947 -22631297.33346  21348958.4224                   21348956.2974
  -3857954.62047  -2985705.79543  23540576.1884                   23540575.4414
 -64941078.77347 -50587630.61244  23148922.3594                   23148921.3674
 -40048685.50948 -31191639.54346  20834730.1804                   20834729.3324
 -21952944.10447 -17090260.32846  21876861.8674                   21876860.4924
 -54342908.39848 -42327987.78345  21684015.2974                   21684013.4654
  -2110590.14147  -1624752.46044  24028382.7504                   24028385.0594
 -28761204.92446 -22395015.66444  23639361.8134                   23639364.2304
 -47088491.60248 -36675854.25947  20558466.6804                   20558462.2974
 11  8 19  0 26 30.0000000  0  9G12G30G17G10G05G04G25G09G02
 -29192839.40247 -22731978.06246  21324371.5474                   21324369.5664
  -4025234.15847  -3116053.39543  23508743.2344                   23508742.6844
 -64958472.72347 -50601184.38844  23145611.5474                   23145611.6484
 -40117242.20147 -31245060.33046  20821684.3284                   20821682.3284
 -22112292.61947 -17214427.93046  21846538.5394                   21846537.7194
 -54336106.72947 -42322687.82045  21685309.1644                   21685308.0084
  -2280058.39246  -1756805.59544  23996134.0234                   23996135.9804
 -28752827.94646 -22388488.20744  23640956.3834                   23640957.6764
 -47158180.70848 -36730157.45446  20545205.3754                   20545200.6844
 11  8 19  0 27  0.0000000  0  9G12G30G17G10G05G04G25G09G02
 -29321555.38247 -22832276.20546  21299877.7114                   21299875.4304
  -4192180.83147  -3246141.63844  23476974.8284                   23476973.8554
 -64975654.07847 -50614572.51144  23142343.0474                   23142341.3874
 -40185112.83047 -31297946.51246  20808769.5474                   20808767.5084
 -22271272.88847 -17338308.58846  21816285.4924                   21816284.1724
 -54329118.70148 -42317242.64445  21686639.1254                   21686637.9454
  -2449291.17946  -1888675.22544  23963930.3524                   23963932.3014
 -28744239.60146 -22381796.07044  23642590.9144                   23642592.7974
 -47227528.60347 -36784194.76846  20532009.2034                   20532004.8794
 11  8 19  0 27 30.0000000  0  9G12G30G17G10G05G04G25G09G02
 -29449780.77047 -22932192.07246  21275477.6884                   21275475.2704
  -4358793.89947  -3375969.91844  23445269.7974                   23445269.2034
 -64992624.38947 -50627796.17344  23139113.1334                   23139112.4574
 -40252298.93447 -31350299.30346  20795984.2974                   20795982.3984
 -22429884.13247 -17461901.69346  21786103.1414                   21786102.1254
 -54321948.22048 -42311655.28045  21688003.8674                   21688002.3554
  -2618287.93547  -2020360.92344  23931770.4534                   23931772.5434
 -28735445.70447 -22374943.76744  23644265.9304                   23644265.5664
 -47296538.55348 -36837968.73146  20518877.2194                   20518872.3594
 11  8 19  0 28  0.0000000  0  9G12G30G17G10G05G04G25G09G02
 -29577511.05147 -23031722.13646  21251171.1564                   21251168.6254
  -4525068.15347  -3505534.14744  23413628.6644                   23413628.3404
 -65009380.85547 -50640853.24044  23135925.1564                   23135923.7274
 -40318798.31247 -31402116.98846  20783329.6804                   20783328.5234
 -22588121.48247 -17585203.45246  21755991.2664                   21755990.0084
 -54314595.11848 -42305925.63645  21689402.6884                   21689401.4884
  -2787043.79747  -2151858.90644  23899657.7034                   23899660.0984
 -28726447.31446 -22367932.10644  23645977.0314                   23645978.3094
 -47365209.20248 -36891478.31746  20505809.2034                   20505804.6294
 11  8 19  0 28 30.0000000  0  9G12G30G17G10G05G04G25G09G02
 -29704748.10047 -23130867.88546  21226958.6254                   21226956.2234
  -4691005.24747  -3634835.68844  23382052.0634                   23382050.7274
 -65025927.27247 -50653746.61944  23132776.1804                   23132775.4534
 -40384615.24947 -31453402.90046  20770805.2344                   20770803.6294
 -22745986.36047 -17708214.97846  21725950.5004                   21725949.3594
 -54307065.77548 -42300058.63545  21690835.8754                   21690833.9574
  -2955560.53447  -2283170.55144  23867590.2974                   23867592.6994
 -28717252.33046 -22360767.26044  23647726.7814                   23647727.9654
 -47433546.29748 -36944727.98947  20492805.2194                   20492800.6094
 11  8 19  0 29  0.0000000  0  9G12G30G17G10G05G04G25G09G02
 -29831486.00147 -23229624.65946  21202841.1254                   21202838.5904
  -4856598.38946  -3763869.14244  23350540.5944                   23350540.1604
 -65042258.93647 -50666472.63744  23129668.6414                   23129667.3834
 -40449745.75448 -31504153.90346  20758411.3134                   20758410.0554
 -22903471.36647 -17830930.49546  21695982.0704                   21695980.9344
 -54299357.95048 -42294052.57045  21692302.5634                   21692300.9964
  -3123831.47447  -2414290.66344  23835570.2194                   23835570.6884
 -28707859.67647 -22353448.38944  23649514.6414                   23649516.1954
 -47501546.85648 -36997715.42246  20479865.1564                   20479860.1914
 11  8 19  0 29 30.0000000  0  9G12G30G17G10G05G04G25G09G02
 -28382296.40947 -22100386.00246  21478612.4144                   21478610.7304
  -3446417.64146  -2665026.88644  23618888.5394                   23618887.8244
 -63482953.78947 -49451429.72244  23426394.0314                   23426393.6804
 -38938766.35448 -30326767.33746  21045940.7424                   21045939.3164
 -21485147.87547 -16725743.28646  21965880.1024                   21965878.6994
 -52716052.70248 -41060308.25545  21993595.7734                   21993594.4264
  -1716427.04947  -1317611.77444  24103388.8364                   24103390.1844
 -27122851.89846 -21118377.45444  23951130.9454                   23951132.6914
 -45993788.53847 -35822838.79446  20766781.7194                   20766777.6294
 11  8 19  0 30  0.0000000  0  9G12G30G17G10G05G04G25G09G02
 -28508029.46847 -22198359.80346  21454686.7664                   21454684.0984
  -3611314.89246  -2793518.13044  23587509.8674                   23587508.9734
 -63498855.40447 -49463820.60944  23423368.7114                   23423366.9574
 -39002524.88348 -30376449.29246  21033808.1564                   21033806.2934
 -21641866.91647 -16847861.95446  21936057.1334                   21936056.1254
 -52707994.65248 -41054029.28045  21995129.1024                   21995127.7774
  -1884199.33047  -1448343.37244  24071463.2274                   24071464.0944
 -27113075.49047 -21110759.57344  23952991.7664                   23952993.1844
 -46061120.37248 -35875305.15346  20753969.1414                   20753964.6684
 11  8 19  0 30 30.0000000  0  9G12G30G17G10G05G04G25G09G02
 -28633261.80247 -22295943.41346  21430855.5164                   21430853.0004
  -3775864.99546  -2921738.86144  23556195.7734                   23556196.4224
 -63514546.33947 -49476047.35044  23420382.0084                   23420381.6684
 -39065602.47948 -30425600.64946  21021805.0554                   21021803.2624
 -21798203.59047 -16969682.67146  21906307.1954                   21906305.8834
 -52699769.36648 -41047620.00345  21996694.5704                   21996693.3554
  -2051723.26447  -1578881.37844  24039584.5394                   24039585.9144
 -27103116.93647 -21102999.80144  23954886.5634                   23954888.3404
 -46128124.78847 -35927516.36946  20741218.5084                   20741214.2154
 11  8 19  0 31  0.0000000  0  9G12G30G17G10G05G04G25G09G02
 -28757986.40547 -22393131.38946  21407121.2034                   21407118.8914
  -3940060.32246  -3049683.16444  23524951.1804                   23524950.8164
 -63530021.32047 -49488105.81444  23417438.3984                   23417436.3134
 -39127994.28048 -30474217.63446  21009932.1724                   21009930.3404
 -21954149.95647 -17091199.25946  21876631.5784                   21876630.6374
 -52691373.91848 -41041078.11445  21998291.5944                   21998290.4654
  -2218991.57347  -1709220.22544  24007754.0944                   24007755.7154
 -27092975.26747 -21095097.24544  23956817.0234                   23956817.8284
 -46194797.88548 -35979469.42446  20728531.1174                   20728526.2034
 11  8 19  0 31 30.0000000  0  9G12G30G17G10G05G04G25G09G02
 -28882204.32048 -22489924.55346  21383483.2734                   21383481.1174
  -4103901.39347  -3177351.43144  23493773.1094                   23493773.3164
 -63545282.95947 -49499998.07744  23414534.0864                   23414533.4844
 -39189703.75048 -30522302.92146  20998189.0784                   20998187.8594
 -22109706.49047 -17212412.07746  21847030.0554                   21847028.9844
 -52682813.73348 -41034407.84545  21999921.0234                   21999919.3834
  -2386004.86747  -1839360.33244  23975972.5084                   23975974.1294
 -27082656.96347 -21087057.11744  23958779.8674                   23958780.8954
 -46261144.43348 -36031168.03046  20715906.1094                   20715901.2424
 11  8 19  0 32  0.0000000  0  9G12G30G17G10G05G04G25G09G02
 -29005910.03648 -22586318.59446  21359942.9614                   21359940.5004
  -4267381.92647  -3304738.76744  23462663.9844                   23462663.3954
 -63560327.32147 -49511721.00244  23411670.6254                   23411670.6724
 -39250727.77248 -30569854.09546  20986576.6024                   20986575.3714
 -22264867.60147 -17333316.76646  21817504.1094                   21817502.7814
 -52674086.99047 -41027607.81345  22001581.3984                   22001580.0234
  -2552757.02547  -1969296.97144  23944241.5164                   23944242.2814
 -27072162.05946 -21078879.33944  23960777.1254                   23960778.1024
 -46327161.91848 -36082610.21346  20703343.1564                   20703338.1764
 11  8 19  0 32 30.0000000  0  9G12G30G17G10G05G04G25G09G02
 -29129104.60347 -22682314.32746  21336499.8134                   21336497.4144
  -4430502.09647  -3431845.35544  23431623.3284                   23431622.9384
 -63575156.82047 -49523276.51544  23408848.8834                   23408848.6134
 -39311069.31048 -30616873.47246  20975093.9384                   20975092.5594
 -22419633.17147 -17453913.25646  21788052.9924                   21788051.6024
 -52665198.85147 -41020682.00345  22003272.5704                   22003271.3554
  -2719248.43547  -2099030.39044  23912558.2974                   23912559.2234
 -27061496.93047 -21070568.92744  23962806.8834                   23962808.6764
 -46392854.53448 -36133799.26446  20690842.2734                   20690837.4104
 11  8 19  0 33  0.0000000  0  9G12G30G17G10G05G04G25G09G02
 -29251782.18148 -22777907.21346  21313154.6724                   21313152.5824
  -4593255.71847  -3558666.29344  23400652.5474                   23400651.4454
 -63589767.34847 -49534661.40344  23406068.7274                   23406067.2814
 -39370725.46148 -30663358.76146  20963741.7114                   20963739.5124
 -22573997.27147 -17574196.91246  21758678.6024                   21758677.1764
 -52656147.43947 -41013628.97445  22004995.3914                   22004993.9104
  -2885473.12147  -2228555.98344  23880926.6174                   23880928.7464
 -27050661.49646 -21062125.89844  23964869.5704                   23964870.3094
 -46458220.05748 -36184733.42546  20678403.5394                   20678398.7624
 11  8 19  0 33 30.0000000  0  9G12G30G17G10G05G04G25G09G02
 -29373942.73848 -22873097.23146  21289908.6484                   21289906.1644
  -4755642.01247  -3685200.99444  23369750.7734                   23369749.6094
 -63604161.00147 -49545877.29444  23403329.5474                   23403329.5204
 -39429698.08748 -30709311.44046  20952520.3594                   20952518.6724
 -22727959.03047 -17694167.06746  21729380.8444                   21729378.8874
 -52646937.02347 -41006452.06045  22006748.1884                   22006746.5124
  -3051430.46247  -2357873.25744  23849344.7894                   23849347.6764
 -27039661.09146 -21053554.21943  23966962.7274                   23966964.4494
 -46523261.94448 -36235415.40946  20666026.4064                   20666021.8204
 11  8 19  0 34  0.0000000  0  9G12G30G17G10G05G04G25G09G02
 -29495580.83348 -22967880.13746  21266761.2504                   21266758.9454
  -4917654.66647  -3811444.58144  23338921.2504                   23338918.7624
 -63618333.46046 -49556920.83744  23400632.7974                   23400632.3204
 -39487984.05548 -30754729.06446  20941428.2274                   20941426.4264
 -22881512.12847 -17813818.76746  21700160.7424                   21700159.0594
 -52637565.67247 -40999149.72045  22008531.1174                   22008530.2344
  -3217114.33647  -2486977.44244  23817817.5234                   23817819.1804
 -27028495.82347 -21044854.10943  23969087.0944                   23969088.7544
 -46587977.88847 -36285843.41546  20653711.4614                   20653706.9574
 11  8 19  0 34 30.0000000  0  9G12G30G17G10G05G04G25G09G02
 -29616698.89848 -23062257.81446  21243713.3674                   21243710.6524
  -5079295.79747  -3937398.68444  23308162.4304                   23308159.7274
 -63632289.40247 -49567795.61444  23397976.8284                   23397977.1454
 -39545588.68648 -30799615.77946  20930466.8054                   20930465.2384
 -23034658.72047 -17933153.72346  21671017.7344                   21671015.8594
 -52628040.46947 -40991727.49345  22010343.4774                   22010342.1884
  -3382526.92147  -2615870.23844  23786340.2114                   23786342.1334
 -27017173.62646 -21036031.73243  23971241.4224                   23971242.8914
 -46652373.73648 -36336022.00046  20641457.0944                   20641452.6294
 11  8 19  0 35  0.0000000  0  9G12G30G17G10G05G04G25G09G02
 -29737298.26048 -23156231.31346  21220764.2424                   21220762.1094
  -5240565.68747  -4063063.53544  23277473.5554                   23277471.4104
 -63646031.33447 -49578503.67244  23395361.6414                   23395361.7464
 -39602515.60048 -30843974.40146  20919633.6564                   20919632.0004
 -23187399.46247 -18052172.44046  21641951.9694                   21641951.0474
 -52618366.06047 -40984189.01645  22012184.1484                   22012183.6844
  -3547668.87247  -2744552.18544  23754914.5394                   23754916.4734
 -27005701.17146 -21027092.33443  23973424.6724                   23973425.4924
 -46716453.90647 -36385954.60046  20629263.1094                   20629258.9384
 11  8 19  0 35 30.0000000  0  9G12G30G17G10G05G04G25G09G02
 -29857377.14348 -23249799.23446  21197913.7274                   21197911.7074
  -5401461.96546  -4188437.23643  23246855.1644                   23246853.2814
 -63659559.08646 -49589044.82544  23392787.9844                   23392787.0554
 -39658765.41248 -30887805.41346  20908929.5474                   20908927.9734
 -23339731.81647 -18170872.93146  21612963.7114                   21612962.5394
 -52608544.78547 -40976536.08545  22014053.7584                   22014052.5664
  -3712537.68347  -2873021.30144  23723540.8754                   23723543.7894
 -26994082.02746 -21018038.60743  23975636.0634                   23975637.8554
 -46780219.99448 -36435642.44246  20617128.8284                   20617124.1134
 11  8 19  0 36  0.0000000  0  9G12G30G17G10G05G04G25G09G02
 -29976934.26648 -23342960.59246  21175163.1564                   21175160.1214
  -5561982.57646  -4313518.19944  23216308.6024                   23216306.8324
 -63672873.00047 -49599419.35544  23390254.6254                   23390254.4574
 -39714338.91148 -30931109.43046  20898354.2894                   20898352.5044
 -23491653.99047 -18289253.78246  21584054.2344                   21584052.9414
 -52598579.34447 -40968770.82345  22015949.7584                   22015948.8554
  -3877131.67347  -3001276.25644  23692220.0004                   23692221.9454
 -26982320.47246 -21008873.81943  23977873.6484                   23977874.8714
 -46843674.16948 -36485087.26546  20605054.0554                   20605050.0554
 11  8 19  0 36 30.0000000  0  9G12G30G17G10G05G04G25G09G02
 -30095966.45148 -23435712.91046  21152511.8674                   21152509.1454
  -5722123.40246  -4438303.25344  23185835.4064                   23185833.6214
 -63685971.14646 -49609625.75544  23387762.0314                   23387761.3164
 -39769235.47248 -30973885.95146  20887907.9844                   20887905.6914
 -23643161.95848 -18407311.89346  21555222.8754                   21555221.3244
 -52588470.11347 -40960893.53445  22017873.8754                   22017872.3754
  -4041446.81147  -3129313.96744  23660951.9614                   23660953.5664
 -26970418.51746 -20999599.70543  23980138.6724                   23980141.5864
 -46906816.20848 -36534288.84746  20593038.3054                   20593034.0704
 11  8 19  0 37  0.0000000  0  9G12G30G17G10G05G04G25G09G02
 -30214472.86848 -23528055.55746  21129960.5164                   21129958.5784
  -5881883.21846  -4562791.35944  23155434.3834                   23155431.9494
 -63698854.73046 -49619664.96444  23385309.9534                   23385309.8594
 -39823456.95748 -31016136.45546  20877589.6174                   20877588.3914
 -23794254.35147 -18525046.17146  21526471.2114                   21526469.9344
 -52578220.48147 -40952906.82045  22019823.9614                   22019823.5514
  -4205481.92547  -3257133.49544  23629736.8674                   23629737.8794
 -26958380.85046 -20990219.83443  23982428.8524                   23982431.6524
 -46969648.71748 -36583249.24347  20581082.1094                   20581077.1954
 11  8 19  0 37 30.0000000  0  9G12G30G17G10G05G04G25G09G02
 -30332451.16448 -23619986.66646  21107510.2034                   21107507.6914
  -6041258.47846  -4686979.83244  23125105.5944                   23125105.0824
 -63711522.43946 -49629535.95644  23382899.9694                   23382899.8954
 -39877003.42848 -31057860.95146  20867400.3284                   20867398.9574
 -23944927.92048 -18642454.08546  21497798.5004                   21497797.1054
 -52567831.65647 -40944811.65845  22021801.1564                   22021799.9344
  -4369233.76747  -3384732.31644  23598576.6174                   23598577.0354
 -26946210.27046 -20980736.47243  23984746.1024                   23984746.9414
 -47032172.45248 -36631969.04147  20569183.7734                   20569179.2274
 11  8 19  0 38  0.0000000  0  9G12G30G17G10G05G04G25G09G02
 -30449902.18348 -23711506.91646  21085160.3364                   21085157.7504
  -6200249.55047  -4810868.94144  23094850.4064                   23094850.4734
 -63723977.25847 -49639241.07344  23380529.9224                   23380529.1174
 -39929878.73348 -31099062.46746  20857337.9384                   20857336.7304
 -24095183.08148 -18759535.97846  21469205.9844                   21469204.6524
 -52557308.27347 -40936611.63745  22023803.8284                   22023802.8164
  -4532702.72147  -3512110.71744  23567468.8834                   23567469.7894
 -26933913.34146 -20971154.53443  23987086.4844                   23987087.4144
 -47094391.42148 -36680451.35846  20557343.8754                   20557339.8014
 11  8 19  0 38 30.0000000  0  9G12G30G17G10G05G04G25G09G02
 -30566821.25748 -23802612.66846  21062911.1954                   21062908.9344
  -6358851.01747  -4934454.47344  23064670.0944                   23064669.6294
 -63736216.22147 -49648778.01344  23378201.0634                   23378200.7894
 -39982080.58248 -31139739.21946  20847404.9304                   20847403.3094
 -24245014.70748 -18876287.83546  21440694.2734                   21440692.6024
 -52546649.80747 -40928306.35545  22025832.3284                   22025830.7894
  -4695883.61047  -3639264.64844  23536416.4224                   23536417.5004
 -26921490.70846 -20961474.69243  23989450.7114                   23989449.4224
 -47156304.55148 -36728695.36746  20545562.2664                   20545558.4184
 11  8 19  0 39  0.0000000  0  9G12G30G17G10G05G04G25G09G02
 -30683205.67148 -23893301.77646  21040763.7034                   21040761.2854
  -6517059.37547  -5057733.68544  23034563.9304                   23034562.9844
 -63748237.94046 -49658145.65344  23375913.2194                   23375913.0864
 -40033608.48548 -31179890.80046  20837599.8054                   20837597.8674
 -24394418.92848 -18992706.65546  21412263.3444                   21412261.9144
 -52535857.09447 -40919896.46245  22027886.2974                   22027884.8524
  -4858772.84947  -3766191.33444  23505420.4224                   23505420.1484
 -26908944.64846 -20951698.66043  23991837.3594                   23991838.7504
 -47217912.15448 -36776701.30046  20533838.6804                   20533834.8554
 11  8 19  0 39 30.0000000  0  9G12G30G17G10G05G04G25G09G02
 -30799056.51348 -23983575.13746  21018718.5084                   21018715.5004
  -6674874.92946  -5180706.77144  23004532.5944                   23004532.2854
 -63760044.74446 -49667345.83044  23373666.7034                   23373666.1414
 -40084466.29748 -31219520.24446  20827921.6954                   20827919.6054
 -24543396.71648 -19108793.18346  21383913.9614                   21383912.4844
 -52524935.00547 -40911385.74845  22029964.6644                   22029963.3324
  -5021370.86947  -3892891.07744  23474478.2194                   23474479.3794
 -26896281.73246 -20941831.62644  23994247.4304                   23994248.6174
 -47279218.44648 -36824472.44546  20522172.3364                   20522168.0664
 11  8 19  0 40  0.0000000  0  9G12G30G17G10G05G04G25G09G02
 -30914372.67448 -24073431.86946  20996774.4224                   20996771.4964
  -6832295.47147  -5303372.07244  22974576.5234                   22974576.4344
 -63771637.13647 -49676378.88844  23371461.1024                   23371459.4654
 -40134655.22248 -31258628.48646  20818370.3054                   20818368.4344
 -24691946.00148 -19224545.82646  21355645.3754                   21355644.1214
 -52513885.82347 -40902776.03045  22032066.9844                   22032065.6214
  -5183675.77447  -4019362.44244  23443593.2034                   23443592.9454
 -26883505.86747 -20931876.49543  23996678.2584                   23996680.3754
 -47340225.42048 -36872010.35546  20510563.5944                   20510559.0514
 11  8 19  0 40 30.0000000  0  9G12G30G17G10G05G04G25G09G02
 -31029155.40048 -24162872.93546  20974931.5474                   20974929.2504
  -6989321.42047  -5425729.91544  22944695.9304                   22944694.6054
 -63783017.66846 -49685246.86544  23369295.1334                   23369294.1254
 -40184178.87648 -31297218.31846  20808946.8284                   20808945.0744
 -24840067.17748 -19339964.86646  21327458.8054                   21327457.5204
 -52502714.52247 -40894071.16845  22034192.9454                   22034191.0434
  -5345687.95647  -4145605.70844  23412762.7734                   23412764.0704
 -26870623.28847 -20921838.30743  23999130.4384                   23999131.8954
 -47400937.30848 -36919318.33146  20499010.5554                   20499005.7344
 11  8 19  0 41  0.0000000  0  9G12G30G17G10G05G04G25G09G02
 -29567973.16348 -23024289.35446  21252985.4304                   21252983.1844
  -5570519.17247  -4320169.67044  23214684.4534                   23214684.1764
 -62218759.92247 -48466344.76644  23666963.3284                   23666962.9534
 -38657610.72948 -30107684.68946  21099443.0234                   21099441.1484
 -23412327.21848 -18227440.15746  21599148.8054                   21599147.1844
 -50915997.66147 -39657668.43045  22336134.3834                   22336133.3594
  -3931973.67847  -3044010.14344  23681783.7664                   23681784.6564
 -25282212.36246 -19684115.60944  24301394.3444                   24301396.5664
 -45885927.70148 -35738791.35346  20787307.2114                   20787302.7114
 11  8 19  0 41 30.0000000  0  9G12G30G17G10G05G04G25G09G02
 -29681677.95948 -23112890.47246  21231348.2114                   21231345.6684
  -5726742.78847  -4441902.30244  23184956.0474                   23184955.0474
 -62229710.56147 -48474877.82044  23664879.6024                   23664879.4264
 -38705801.04848 -30145235.58246  21090272.7734                   21090270.4414
 -23559579.72748 -18342182.33146  21571127.5634                   21571126.1804
 -50904582.31147 -39648773.38045  22338307.0234                   22338305.5044
  -4093387.47947  -3169787.09744  23651067.9454                   23651068.2934
 -25269121.98346 -19673915.49344  24303886.5314                   24303887.3134
 -45946048.41348 -35785638.65946  20775866.2734                   20775862.1094
 11  8 19  0 42  0.0000000  0  9G12G30G17G10G05G04G25G09G02
 -29794838.60848 -23201067.58346  21209814.4534                   21209812.3754
  -5882558.61947  -4563317.19044  23155304.9534                   23155303.6914
 -62240443.26947 -48483241.04044  23662837.7894                   23662837.3204
 -38753323.39948 -30182265.95546  21081229.2504                   21081227.1764
 -23706391.42348 -18456581.00046  21543190.4454                   21543189.3204
 -50893044.96247 -39639783.26544  22340502.8524                   22340501.3014
  -4254495.60147  -3295325.87444  23620409.9304                   23620410.7854
 -25255930.03946 -19663636.13343  24306395.7734                   24306397.4574
 -46005872.46348 -35832254.78946  20764482.3364                   20764477.9184
 11  8 19  0 42 30.0000000  0  9G12G30G17G10G05G04G25G09G02
 -29907459.18648 -23288823.86246  21188383.5004                   21188380.9574
  -6037969.94447  -4684416.88544  23125731.2814                   23125730.5514
 -62250963.51447 -48491438.71344  23660835.6484                   23660835.6844
 -38800184.62848 -30218781.18946  21072311.6724                   21072309.8444
 -23852765.84848 -18570638.94546  21515336.5554                   21515334.4924
 -50881393.65247 -39630704.34244  22342720.0554                   22342718.9414
  -4415301.41547  -3420629.05444  23589809.3914                   23589810.3364
 -25242645.84746 -19653285.00844  24308924.9924                   24308926.0434
 -46065407.60048 -35878645.79646  20753152.8204                   20753148.7114
 11  8 19  0 43  0.0000000  0  9G12G30G17G10G05G04G25G09G02
 -30019535.02848 -23376155.67146  21167056.0554                   21167053.2344
  -6192970.89947  -4805196.79744  23096235.7274                   23096235.4844
 -62261268.02747 -48499468.21844  23658875.2344                   23658873.8444
 -38846382.07848 -30254779.18646  21063520.7814                   21063518.8634
 -23998696.97348 -18684351.44546  21487565.9614                   21487564.7424
 -50869626.60647 -39621535.25045  22344958.9534                   22344958.1414
  -4575799.17747  -3545692.21845  23559267.1024                   23559268.8674
 -25229269.38346 -19642861.94744  24311470.2034                   24311472.1094
 -46124652.07348 -35924810.31746  20741879.2584                   20741875.2544
 11  8 19  0 43 30.0000000  0  9G12G30G17G10G05G04G25G09G02
 -30131067.30248 -23463063.92546  21145831.9844                   21145829.0394
  -6347562.38847  -4925657.64744  23066817.3594                   23066817.0984
 -62271359.76046 -48507331.95844  23656954.4924                   23656953.2424
 -38891920.18748 -30290263.42046  21054855.3754                   21054853.8794
 -24144185.97248 -18797719.44746  21459880.8364                   21459878.6684
 -50857749.16547 -39612280.11045  22347219.5164                   22347217.7194
  -4735989.74347  -3670515.98145  23528784.6254                   23528785.4384
 -25215807.49146 -19632372.29144  24314031.9224                   24314034.3094
 -46183610.28648 -35970751.77146  20730660.2194                   20730655.6994
 11  8 19  0 44  0.0000000  0  9G12G30G17G10G05G04G25G09G02
 -30242054.85748 -23549547.73246  21124712.1804                   21124709.4264
  -6501742.08047  -5045797.63644  23037478.6564                   23037477.7734
 -62281238.87647 -48515030.02544  23655074.7974                   23655073.6564
 -38936800.73548 -30325235.26246  21046314.3594                   21046313.1644
 -24289231.38048 -18910741.78946  21432279.3444                   21432277.4224
 -50845763.55047 -39602940.69645  22349500.5784                   22349498.9734
  -4895871.00047  -3795098.75945  23498360.2114                   23498360.6804
 -25202263.94846 -19621819.02544  24316608.6884                   24316611.3444
 -46242284.00948 -36016471.54946  20719495.1804                   20719490.8244
 11  8 19  0 44 30.0000000  0  9G12G30G17G10G05G04G25G09G02
 -30352495.25848 -23635605.17846  21103695.9304                   21103693.4264
  -6655506.52847  -5165614.03744  23008217.5314                   23008217.5474
 -62290903.94746 -48522561.26444  23653235.6024                   23653234.6024
 -38981023.38148 -30359694.45046  21037899.4694                   21037897.4574
 -24433829.46948 -19023415.57246  21404763.0864                   21404761.4454
 -50833670.36547 -39593517.49145  22351801.3204                   22351800.1684
  -5055439.32947  -3919437.65745  23467995.0164                   23467996.1604
 -25188641.15246 -19611204.01344  24319201.1564                   24319203.7274
 -46300673.66248 -36061969.97246  20708383.4694                   20708378.9494
 11  8 19  0 45  0.0000000  0  9G12G30G17G10G05G04G25G09G02
 -30462385.95848 -23721234.29946  21082784.5704                   21082781.7894
  -6808852.11347  -5285104.05244  22979037.7344                   22979036.3524
 -62300354.27946 -48529925.21744  23651436.9614                   23651436.3594
 -39024588.53348 -30393641.31246  21029609.4924                   21029607.5004
 -24577976.96548 -19135738.24846  21377333.0554                   21377331.4104
 -50821470.70547 -39584011.29745  22354123.1484                   22354121.9534
  -5214691.48147  -4043530.17745  23437690.1334                   23437691.5514
 -25174941.86047 -19600529.34543  24321809.5554                   24321811.5044
 -46358779.68848 -36107247.37646  20697326.3524                   20697321.6764
 11  8 19  0 45 30.0000000  0  9G12G30G17G10G05G04G25G09G02
 -30571726.40548 -23806434.65246  21061977.4384                   21061974.7854
  -6961777.47347  -5404266.63344  22949936.2894                   22949934.9924
 -62309590.24346 -48537122.09844  23649679.0704                   23649679.5554
 -39067497.95348 -30427077.21646  21021443.9924                   21021442.0634
 -24721672.20648 -19247708.50546  21349988.4304                   21349986.8404
 -50809167.31147 -39574424.27545  22356464.5314                   22356463.1644
  -5373625.89847  -4167375.12545  23407446.7584                   23407447.1764
 -25161170.55746 -19589798.66743  24324429.8054                   24324431.8954
 -46416604.74548 -36152305.85446  20686322.8984                   20686318.4614
 11  8 19  0 46  0.0000000  0  9G12G30G17G10G05G04G25G09G02
 -30680515.33948 -23891205.24546  21041275.5634                   21041272.9804
  -7114280.43847  -5523100.08044  22920915.9224                   22920914.7384
 -62318612.42347 -48544152.40544  23647962.7114                   23647962.0594
 -39109753.28748 -30460003.42146  21013403.1174                   21013400.9844
 -24864913.70248 -19359325.20246  21322730.6644                   21322728.8134
 -50796762.60947 -39564758.30045  22358824.6094                   22358824.0904
  -5532240.64847  -4290970.96045  23377263.3524                   23377264.0394
 -25147330.67046 -19579014.52344  24327063.8134                   24327066.0554
 -46474150.52448 -36197146.71746  20675371.8594                   20675367.7934
 11  8 19  0 46 30.0000000  0  9G12G30G17G10G05G04G25G09G02
 -30788748.25648 -23975542.58546  21020679.7814                   21020677.2234
  -7266355.94047  -5641600.44144  22891976.9774                   22891975.9494
 -62327417.79146 -48551013.78344  23646286.2504                   23646286.7034
 -39151353.55148 -30492419.19446  21005486.4304                   21005484.7584
 -25007696.68448 -19470584.62146  21295559.6564                   21295557.8404
 -50784255.48847 -39555012.52945  22361205.1024                   22361204.0984
  -5690530.51847  -4414313.66745  23347141.5474                   23347141.4184
 -25133422.92546 -19568177.50543  24329710.1884                   24329712.3284
 -46531415.92448 -36241769.09646  20664474.7424                   20664470.1724
 11  8 19  0 47  0.0000000  0  9G12G30G17G10G05G04G25G09G02
 -30896427.99948 -24059448.88046  21000188.8054                   21000186.0744
  -7418005.35547  -5759768.76644  22863119.2504                   22863117.9384
 -62336010.34846 -48557709.30444  23644651.6024                   23644651.8444
 -39192303.59548 -30524328.31846  20997694.1334                   20997692.5314
 -25150022.53948 -19581487.83646  21268475.9694                   21268474.2584
 -50771651.96047 -39545191.64945  22363603.3754                   22363602.5744
  -5848497.01747  -4537404.41644  23317081.2734                   23317081.8014
 -25119454.93946 -19557293.54143  24332368.3134                   24332370.7584
 -46588406.09148 -36286177.00146  20653629.7034                   20653625.4574
 11  8 19  0 47 30.0000000  0  9G12G30G17G10G05G04G25G09G02
 -31003552.05548 -24142922.16846  20979804.1564                   20979801.3834
  -7569225.03747  -5877602.24844  22834343.4224                   22834341.7154
 -62344388.42146 -48564237.70244  23643057.6804                   23643057.3984
 -39232603.32148 -30555730.69646  20990025.1804                   20990023.3444
 -25291887.77348 -19692032.12346  21241479.7424                   21241478.2584
 -50758952.51547 -39535295.98445  22366020.1414                   22366018.9654
  -6006136.44447  -4660240.26544  23287083.6644                   23287084.2304
 -25105428.69946 -19546364.22843  24335037.3134                   24335038.7234
 -46645121.20848 -36330370.61346  20642837.0864                   20642832.7734
 11  8 19  0 48  0.0000000  0  9G12G30G17G10G05G04G25G09G02
 -31110118.95748 -24225961.31446  20959525.0084                   20959522.2424
  -7720012.70347  -5995099.07544  22805649.0234                   22805647.6094
 -62352552.09346 -48570598.98544  23641503.2814                   23641502.5164
 -39272254.16747 -30586627.46746  20982480.3134                   20982478.3134
 -25433290.67648 -19802216.16446  21214571.5234                   21214570.0514
 -50746159.04647 -39525327.09045  22368454.5164                   22368453.7664
  -6163446.59946  -4782819.54444  23257147.6334                   23257148.4534
 -25091348.06646 -19535392.38343  24337717.1564                   24337718.6134
 -46701562.78748 -36374351.05346  20632096.5084                   20632092.7304
 11  8 19  0 48 30.0000000  0  9G12G30G17G10G05G04G25G09G02
 -31216133.09148 -24308569.73446  20939350.7734                   20939348.4884
  -7870371.95347  -6112262.10144  22777036.8834                   22777035.0824
 -62360507.55646 -48576798.11244  23639990.3054                   23639989.4884
 -39311263.55947 -30617024.39846  20975057.0864                   20975054.7274
 -25574234.88448 -19912042.76746  21187751.0474                   21187749.5434
 -50733279.53647 -39515291.15345  22370905.5004                   22370904.3594
  -6320431.13147  -4905145.11044  23227275.1094                   23227275.5944
 -25077222.27646 -19524385.50443  24340405.0554                   24340407.3204
 -46757738.87648 -36418124.60846  20621406.6254                   20621402.6334
 11  8 19  0 49  0.0000000  0  9G12G30G17G10G05G04G25G09G02
 -31321590.05648 -24390743.97646  20919283.2274                   20919280.5474
  -8020297.32747  -6229087.03244  22748506.9224                   22748505.7704
 -62368251.53046 -48582832.38044  23638517.1334                   23638516.6334
 -39349629.42447 -30646919.87446  20967756.0394                   20967754.1644
 -25714715.17548 -20021507.88246  21161018.7034                   21161017.1684
 -50720312.71547 -39505187.16944  22373373.1414                   22373371.8834
  -6477084.53847  -5027212.64544  23197464.5944                   23197465.8914
 -25063051.82546 -19513343.71943  24343102.2344                   24343103.6334
 -46813647.75648 -36461689.95846  20610767.6414                   20610763.2154
 11  8 19  0 49 30.0000000  0  9G12G30G17G10G05G04G25G09G02
 -31426486.51248 -24472481.47746  20899322.2194                   20899319.4654
  -8169784.63447  -6345570.58044  22720060.4694                   22720059.3874
 -62375782.13946 -48588700.39644  23637084.0704                   23637083.5204
 -39387351.66648 -30676313.83246  20960577.7114                   20960576.5234
 -25854727.59648 -20130608.42046  21134374.7664                   21134373.3874
 -50707258.48947 -39495015.06144  22375857.7344                   22375855.9344
  -6633402.55747  -5149018.82444  23167718.6884                   23167718.7234
 -25048838.30646 -19502268.44743  24345806.2734                   24345810.0944
 -46869288.82148 -36505046.63646  20600179.5234                   20600175.1914
 11  8 19  0 50  0.0000000  0  9G12G30G17G10G05G04G25G09G02
 -31530821.92248 -24553781.77646  20879467.9924                   20879464.6724
  -8318831.43647  -6461710.87644  22691697.9144                   22691696.6844
 -62383099.52546 -48594402.26044  23635691.5474                   23635690.6254
 -39424431.96847 -30705207.58846  20953522.0314                   20953519.9344
 -25994270.19648 -20239342.86746  21107820.7974                   21107819.3754
 -50694118.67247 -39484776.29145  22378357.6484                   22378355.9494
  -6789382.94847  -5270561.94745  23138036.3594                   23138036.6884
 -25034585.30946 -19491162.47143  24348518.6724                   24348521.9024
 -46924663.68548 -36548195.86046  20589641.7584                   20589637.8594
 11  8 19  0 50 30.0000000  0  9G12G30G17G10G05G04G25G09G02
 -31634599.95048 -24634647.76846  20859719.2274                   20859716.5944
  -8467441.03247  -6577510.52444  22663417.8134                   22663417.2774
 -62390208.87146 -48599942.06744  23634337.6414                   23634337.7114
 -39460877.31947 -30733606.56346  20946586.0944                   20946584.1954
 -26133346.41748 -20347713.89746  21081355.2664                   21081354.4964
 -50680900.88847 -39474476.74844  22380872.7034                   22380871.9884
  -6945028.79247  -5391844.35945  23108417.4384                   23108418.7304
 -25020301.82746 -19480032.61743  24351236.9924                   24351238.8984
 -46979779.31748 -36591143.09546  20579154.2034                   20579149.7584
 11  8 19  0 51  0.0000000  0  9G12G30G17G10G05G04G25G09G02
 -31737815.11348 -24715075.14946  20840078.4144                   20840075.5394
  -8615606.75447  -6692964.26445  22635223.1484                   22635222.5434
 -62397106.00246 -48605316.48344  23633025.0474                   23633025.4414
 -39496684.82147 -30761508.51446  20939772.3914                   20939770.0634
 -26271949.41248 -20455716.18646  21054980.1024                   21054978.6454
 -50667602.34147 -39464114.28145  22383403.1564                   22383402.3714
  -7100333.54447  -5512861.01544  23078864.7504                   23078865.4804
 -25005986.91746 -19468878.29643  24353961.6254                   24353963.6484
 -47034633.13048 -36633886.32246  20568715.6954                   20568711.4104
 11  8 19  0 51 30.0000000  0  9G12G30G17G10G05G04G25G09G02
 -31840469.57948 -24795065.62246  20820543.8754                   20820541.1094
  -8763329.91547  -6808073.16944  22607112.0394                   22607111.5204
 -62403794.34446 -48610528.23244  23631753.0944                   23631752.2664
 -39531859.57148 -30788917.41946  20933078.6564                   20933077.0234
 -26410081.27948 -20563351.36246  21028694.4844                   21028692.5944
 -50654228.56747 -39453693.18044  22385948.2194                   22385947.3984
  -7255298.37447  -5633612.74945  23049375.1254                   23049376.1684
 -24991647.50346 -19457704.93943  24356690.2504                   24356692.0664
 -47089229.90948 -36676429.26846  20558326.0784                   20558321.6454
 11  8 19  0 52  0.0000000  0  9G12G30G17G10G05G04G25G09G02
 -31942556.72548 -24874614.03646  20801117.2274                   20801114.7664
  -8910602.59647  -6922831.04445  22579086.9384                   22579086.9574
 -62410268.44947 -48615573.01744  23630521.6884                   23630520.8714
 -39566397.42947 -30815830.02946  20926506.6024                   20926504.5084
 -26547734.61748 -20670613.66646  21002500.2194                   21002498.2154
 -50640775.72347 -39443210.47544  22388508.3834                   22388507.3484
  -7409915.35147  -5754093.49345  23019952.0474                   23019953.3794
 -24977281.44646 -19446510.83443  24359424.3284                   24359425.9454
 -47143566.07148 -36718769.13946  20547986.2034                   20547981.8714
 11  8 19  0 52 30.0000000  0  9G12G30G17G10G05G04G25G09G02
 -30468658.81448 -23726122.14146  21081590.6254                   21081588.1414
  -7482004.46847  -5809637.65144  22850940.6804                   22850939.0784
 -60841115.19747 -47392856.21344  23929121.8914                   23929120.9024
 -38024885.97148 -29614652.27046  21219845.9844                   21219844.8834
 -25109489.40748 -19549903.06246  21276188.7664                   21276187.1994
 -49051832.85047 -38205073.18745  22690874.6724                   22690873.0664
  -5988763.90747  -4646702.69945  23290388.5164                   23290389.7734
 -23387479.50445 -18207704.28943  24661953.1254                   24661956.2894
 -45622228.01248 -35533310.92146  20837487.1414                   20837483.2074
 11  8 19  0 53  0.0000000  0  9G12G30G17G10G05G04G25G09G02
 -30569617.66148 -23804791.36046  21062378.7974                   21062376.3524
  -7628379.23647  -5923695.84544  22823085.7504                   22823085.0394
 -60847170.87247 -47397574.96644  23927969.5084                   23927968.5084
 -38058165.23648 -29640584.15746  21213513.4694                   21213511.8794
 -25246189.05848 -19656422.22746  21250175.7114                   21250173.7344
 -49038237.29947 -38194479.29144  22693461.2344                   22693461.3444
  -6142688.16647  -4766643.60045  23261097.4064                   23261098.8364
 -23373080.48346 -18196484.46443  24664694.2584                   24664695.7734
 -45676056.96648 -35575255.54946  20827244.2734                   20827239.3834
 11  8 19  0 53 30.0000000  0  9G12G30G17G10G05G04G25G09G02
 -30670009.13848 -23883018.47346  21043274.8284                   21043272.2114
  -7774300.12647  -6037400.38645  22795318.0634                   22795316.8014
 -60853015.93747 -47402129.61844  23926857.3834                   23926856.2384
 -38090816.12848 -29666026.42746  21207299.9924                   21207298.1724
 -25382407.49948 -19762566.43246  21224254.3444                   21224252.3054
 -49024571.43147 -38183830.58745  22696061.9454                   22696061.8594
  -6296261.11347  -4886310.78145  23231873.8204                   23231875.2234
 -23358668.77146 -18185254.77143  24667437.1414                   24667439.1954
 -45729633.04248 -35617003.14346  20817048.9844                   20817044.5744
 11  8 19  0 54  0.0000000  0  9G12G30G17G10G05G04G25G09G02
 -30769833.31148 -23960803.53946  21024278.8134                   21024276.4264
  -7919766.16147  -6150750.47844  22767636.9694                   22767635.7234
 -60858651.52447 -47406521.02344  23925783.6644                   23925784.2274
 -38122841.44848 -29690981.20746  21201205.5784                   21201204.1724
 -25518143.83748 -19868334.95846  21198424.4844                   21198422.1724
 -49010838.45747 -38173129.58945  22698675.1804                   22698674.5394
  -6449481.64847  -5005703.33645  23202717.2424                   23202718.9494
 -23344248.81646 -18174018.65743  24670180.6884                   24670182.4304
 -45782959.21648 -35658555.99446  20806901.4384                   20806896.8914
 11  8 19  0 54 30.0000000  0  9G12G30G17G10G05G04G25G09G02
 -30869090.72748 -24038146.96746  21005391.0634                   21005388.0634
  -8064776.82647  -6263745.71445  22740042.1644                   22740040.8954
 -60864079.55747 -47410750.70544  23924751.6334                   23924751.4064
 -38154244.75548 -29715451.30446  21195230.1484                   21195228.6524
 -25653397.85748 -19973727.65346  21172686.4144                   21172684.5004
 -48997041.72847 -38162378.92944  22701300.3754                   22701300.1884
  -6602349.21247  -5124820.89145  23173626.9844                   23173628.5784
 -23329825.74746 -18162780.11243  24672925.6174                   24672927.2584
 -45836038.26048 -35699916.29546  20796800.6484                   20796795.9384
 11  8 19  0 55  0.0000000  0  9G12G30G17G10G05G04G25G09G02
 -30967781.40448 -24115048.78446  20986610.8364                   20986608.4344
  -8209330.72447  -6376385.04444  22712534.2814                   22712532.5704
 -60869300.53947 -47414818.99544  23923757.9924                   23923757.2734
 -38185028.59848 -29739438.70746  21189372.3984                   21189370.3834
 -25788168.75248 -20078743.89646  21147040.3984                   21147038.7584
 -48983183.94647 -38151580.70144  22703937.6644                   22703936.7304
  -6754862.36447  -5243662.25745  23144604.9924                   23144606.3324
 -23315403.88146 -18151542.54043  24675670.9614                   24675673.2194
 -45888873.06748 -35741086.27246  20786746.8054                   20786741.9104
 11  8 19  0 55 30.0000000  0  9G12G30G17G10G05G04G25G09G02
 -31065904.74748 -24191508.53846  20967938.3054                   20967935.2384
  -8353426.39347  -6488667.30844  22685113.6024                   22685112.0594
 -60874315.57347 -47418726.79944  23922803.4924                   23922804.2424
 -38215195.26348 -29762945.19546  21183631.7894                   21183629.8284
 -25922455.13848 -20183382.59446  21121486.3754                   21121484.2194
 -48969267.67147 -38140736.88144  22706585.8834                   22706585.3484
  -6907019.57847  -5362226.25645  23115650.5084                   23115651.0704
 -23300987.41446 -18140309.10943  24678414.0474                   24678416.5234
 -45941465.66948 -35782067.52446  20776738.2114                   20776733.5514
 11  8 19  0 56  0.0000000  0  9G12G30G17G10G05G04G25G09G02
 -31163454.46848 -24267521.30946  20949375.4224                   20949372.6724
  -8497056.56547  -6600586.88344  22657781.7034                   22657780.1724
 -60879119.76747 -47422470.38044  23921889.3364                   23921889.6414
 -38244741.80148 -29785968.47046  21178009.2584                   21178007.3054
 -26056250.13548 -20287638.38546  21096025.9384                   21096023.9774
 -48955289.41747 -38129844.74344  22709246.3524                   22709245.0704
  -7058813.47547  -5480507.15945  23086764.7194                   23086765.3554
 -23286574.60546 -18129078.56943  24681156.5554                   24681159.6724
 -45993812.71948 -35822857.43346  20766777.2344                   20766772.5634
 11  8 19  0 56 30.0000000  0  9G12G30G17G10G05G04G25G09G02
 -31260430.80448 -24343087.27746  20930920.9614                   20930918.4734
  -8640219.52247  -6712142.35444  22630538.9384                   22630537.9574
 -60883713.77247 -47426050.15244  23921014.8054                   23921014.7154
 -38273670.59848 -29808510.36046  21172503.9064                   21172502.0394
 -26189552.35348 -20391510.18946  21070659.5234                   21070657.7464
 -48941251.47047 -38118906.11744  22711917.4534                   22711916.5664
  -7210242.20647  -5598503.50945  23057948.4694                   23057950.0514
 -23272169.26546 -18117853.86544  24683898.4454                   24683901.4414
 -46045916.30048 -35863457.62746  20756862.1174                   20756858.0044
 11  8 19  0 57  0.0000000  0  9G12G30G17G10G05G04G25G09G02
 -31356837.26948 -24418209.20346  20912575.8594                   20912573.0824
  -8782918.21847  -6823336.10044  22603383.7034                   22603382.4844
 -60888102.65647 -47429470.11744  23920179.5634                   23920179.3324
 -38301988.35848 -29830576.13146  21167115.5864                   21167113.8054
 -26322365.29748 -20495000.75946  21045385.8594                   21045383.8954
 -48927160.77647 -38107926.40045  22714599.1414                   22714597.4534
  -7361308.74847  -5716217.62845  23029201.8524                   23029203.2974
 -23257780.14546 -18106641.78043  24686636.9614                   24686641.1294
 -46097783.00448 -35903873.23646  20746992.0864                   20746988.0164
 11  8 19  0 57 30.0000000  0  9G12G30G17G10G05G04G25G09G02
 -31452672.66448 -24492886.14346  20894338.9614                   20894336.3834
  -8925150.15347  -6934166.11045  22576318.5864                   22576316.5634
 -60892286.04346 -47432729.87144  23919383.9774                   23919383.0634
 -38329696.60248 -29852166.96046  21161842.9224                   21161841.4024
 -26454686.91448 -20598108.46546  21020205.7974                   21020204.2504
 -48913018.57747 -38096906.53244  22717290.2424                   22717289.0274
  -7512010.41347  -5833647.42345  23000524.1644                   23000525.5984
 -23243410.19746 -18095444.66043  24689370.7894                   24689375.3984
 -46149413.86948 -35944105.07946  20737167.1884                   20737162.7854
 11  8 19  0 58  0.0000000  0  9G12G30G17G10G05G04G25G09G02
 -31547933.13348 -24567115.08446  20876211.4924                   20876209.2194
  -9066910.11147  -7044628.36245  22549341.7664                   22549340.2344
 -60896260.98546 -47435827.28743  23918627.3204                   23918626.6684
 -38356794.43148 -29873282.13246  21156686.5084                   21156684.6764
 -26586511.87948 -20700829.16946  20995120.4304                   20995118.9494
 -48898823.63647 -38085845.57844  22719991.4224                   22719990.0554
  -7662341.86847  -5950788.74545  22971916.7114                   22971917.4964
 -23229059.59546 -18084262.62143  24692102.0394                   24692106.0944
 -46200807.40548 -35984152.00046  20727387.4304                   20727382.8674
 11  8 19  0 58 30.0000000  0  9G12G30G17G10G05G04G25G09G02
 -31642617.30248 -24640894.94746  20858193.7034                   20858191.2074
  -9208195.89347  -7154721.11845  22522456.0554                   22522454.3444
 -60900027.75846 -47438762.40444  23917910.5234                   23917910.3914
 -38383283.57848 -29893923.01846  21151645.6024                   21151643.4064
 -26717838.32548 -20803161.41946  20970129.5704                   20970127.7384
 -48884577.20547 -38074744.51344  22722702.5784                   22722701.7344
  -7812300.83447  -6067639.83345  22943380.5164                   22943381.2664
 -23214731.62046 -18073098.20143  24694829.0394                   24694832.2974
 -46251965.02448 -36024015.10146  20717652.2114                   20717648.2504
 11  8 19  0 59  0.0000000  0  9G12G30G17G10G05G04G25G09G02
 -31736728.29848 -24714228.19646  20840284.8594                   20840282.1804
  -9349008.97747  -7264445.52845  22495660.6334                   22495659.2894
 -60903589.92846 -47441538.15944  23917232.6174                   23917232.1844
 -38409169.60448 -29914093.95246  21146719.6334                   21146717.6374
 -26848668.74648 -20905107.14546  20945233.6334                   20945231.6684
 -48870285.08247 -38063607.83044  22725421.9614                   22725420.8984
  -7961888.67047  -6184201.71045  22914914.3674                   22914916.4064
 -23200433.23646 -18061956.85843  24697549.9534                   24697553.2114
 -46302892.16248 -36063698.58546  20707960.8834                   20707957.2114
 11  8 19  0 59 30.0000000  0  9G12G30G17G10G05G04G25G09G02
 -31830264.29448 -24787113.38846  20822485.7424                   20822483.0474
  -9489346.51747  -7373799.39945  22468955.2034                   22468954.3404
 -60906946.80346 -47444153.92044  23916595.2584                   23916594.8634
 -38434453.72548 -29933795.86046  21141908.3984                   21141906.4224
 -26979000.16748 -21006664.05646  20920432.2034                   20920430.0824
 -48855947.89747 -38052436.03944  22728150.6564                   22728149.2894
  -8111102.28347  -6300471.97545  22886520.4304                   22886521.3054
 -23186166.88746 -18050840.56643  24700265.0864                   24700267.3554
 -46353589.46448 -36103202.99546  20698313.9144                   20698309.6334
 11  8 19  1  0  0.0000000  0  9G12G30G17G10G05G04G25G09G02
 -31923223.82348 -24859549.37746  20804796.4924                   20804793.6454
  -9629205.57747  -7482780.42245  22442340.7424                   22442339.8524
 -60910097.96546 -47446609.42044  23915994.0004                   23915994.5434
 -38459137.02048 -29953029.59446  21137211.3674                   21137208.7734
 -27108830.05348 -21107830.16446  20895726.3594                   20895724.3134
 -48841566.63147 -38041229.90645  22730887.7504                   22730886.5554
  -8259938.78347  -6416448.41445  22858197.6254                   22858198.6954
 -23171935.43146 -18039751.24543  24702972.7424                   24702976.5824
 -46404057.41748 -36142528.68046  20688710.1564                   20688705.4844
 11  8 19  1  0 30.0000000  0  9G12G30G17G10G05G04G25G09G02
 -32015603.67148 -24931533.67946  20787216.6484                   20787214.1214
  -9768581.96047  -7591385.31945  22415817.8984                   22415817.2624
 -60913041.25846 -47448902.91344  23915434.7344                   23915434.3834
 -38483219.34948 -29971795.03746  21132628.1094                   21132626.1374
 -27238154.77948 -21208602.62446  20871116.7424                   20871114.7234
 -48827140.63947 -38029988.89544  22733632.6804                   22733630.9574
  -8408393.69047  -6532127.49045  22829948.0474                   22829947.9494
 -23157739.87046 -18028690.03843  24705674.7424                   24705678.5314
 -46454295.63048 -36181675.34246  20679150.1954                   20679145.9064
 11  8 19  1  1  0.0000000  0  9G12G30G17G10G05G04G25G09G02
 -32107404.30348 -25003066.63746  20769747.9454                   20769745.1914
  -9907474.85147  -7699613.50745  22389387.4064                   22389387.2034
 -60915777.96346 -47451035.45444  23914912.8754                   23914913.6644
 -38506704.04548 -29990094.79746  21128159.3834                   21128157.7974
 -27366973.85148 -21308981.07646  20846603.1884                   20846600.6094
 -48812672.77947 -38018715.25445  22736386.0004                   22736384.8444
  -8556466.08247  -6647508.51645  22801770.8834                   22801771.2304
 -23143584.87446 -18017660.42643  24708367.7344                   24708371.3054
 -46504306.69848 -36220645.01146  20669633.4694                   20669629.0004
 11  8 19  1  1 30.0000000  0  9G12G30G17G10G05G04G25G09G02
 -32198624.51348 -25074147.31146  20752388.9144                   20752386.2234
 -10045881.69247  -7807462.91345  22363050.0634                   22363049.2034
 -60918307.92946 -47453006.87943  23914432.5234                   23914431.5864
 -38529592.86048 -30007930.23646  21123803.9384                   21123801.5824
 -27495284.77048 -21408963.57746  20822186.2894                   20822184.6844
 -48798164.45747 -38007410.07644  22739146.2034                   22739145.6134
  -8704153.21947  -6762589.32845  22773666.9384                   22773667.3674
 -23129473.06946 -18006664.43243  24711052.8204                   24711056.6094
 -46554091.76448 -36259438.57246  20660159.3754                   20660155.3594
 11  8 19  1  2  0.0000000  0  9G12G30G17G10G05G04G25G09G02
 -32289264.48248 -25144775.84846  20735140.5554                   20735138.4694
 -10183801.24047  -7914932.63345  22336804.6024                   22336804.2424
 -60920632.27746 -47454818.06443  23913989.5474                   23913990.3594
 -38551888.70548 -30025303.61346  21119561.1644                   21119559.3094
 -27623087.18048 -21508549.83246  20797866.4454                   20797864.7774
 -48783618.38247 -37996075.53044  22741914.4694                   22741913.6954
  -8851453.83347  -6877368.97245  22745636.1484                   22745637.0824
 -23115408.69946 -17995705.41443  24713730.3914                   24713732.1024
 -46603653.38348 -36298058.02246  20650728.1804                   20650723.8364
 11  8 19  1  2 30.0000000  0  9G12G30G17G10G05G04G25G09G02
 -32379322.40748 -25214950.85346  20718003.5314                   20718000.6254
 -10321230.55347  -8022020.34945  22310652.6174                   22310652.1644
 -60922749.88646 -47456468.17444  23913586.7894                   23913587.2304
 -38573592.40148 -30042215.57446  21115430.6024                   21115428.7424
 -27750378.21148 -21607737.59746  20773643.3054                   20773641.6914
 -48769034.79047 -37984711.72044  22744690.0164                   22744688.2584
  -8998364.68547  -6991844.88645  22717679.6414                   22717680.9104
 -23101394.18246 -17984785.21543  24716397.9064                   24716399.4064
 -46652991.99348 -36336503.69246  20641339.4304                   20641335.2584
 11  8 19  1  3  0.0000000  0  9G12G30G17G10G05G04G25G09G02
 -32468799.30748 -25284673.09446  20700976.1414                   20700973.4734
 -10458169.47247  -8128725.97745  22284594.1484                   22284592.4844
 -60924663.13247 -47457959.03143  23913223.0944                   23913223.5984
 -38594708.11247 -30058669.36545  21111412.4304                   21111410.6134
 -27877158.19148 -21706527.15246  20749518.0084                   20749516.4694
 -48754417.29547 -37973321.51244  22747470.8364                   22747470.1414
  -9144885.48247  -7106016.88345  22689797.4384                   22689798.1414
 -23087434.66846 -17973907.88743  24719054.6564                   24719056.5904
 -46702111.06148 -36374778.29346  20631992.5864                   20631988.3014
 11  8 19  1  3 30.0000000  0  9G12G30G17G10G05G04G25G09G02
 -32557688.82848 -25353937.63946  20684061.2274                   20684058.6684
 -10594610.15247  -8235043.33845  22258629.9384                   22258628.7384
 -60926366.33347 -47459286.25343  23912899.3674                   23912898.3874
 -38615232.44447 -30074662.33846  21107507.1024                   21107504.4694
 -28003420.11448 -21804913.01446  20725491.8204                   20725489.7974
 -48739761.67347 -37961901.54444  22750259.9064                   22750259.0474
  -9291008.19947  -7219878.69145  22661991.6174                   22661992.1914
 -23073527.39546 -17963071.32943  24721701.5864                   24721703.9884
 -46751006.06048 -36412878.29546  20622688.1414                   20622683.9694
 11  8 19  1  4  0.0000000  0  8G12G30G17G10G05G04G25G02
 -31070574.03548 -24195146.88946  20967049.8984                   20967047.1644
  -9155132.85247  -7113372.67145  22532553.4694                   22532552.7464
 -59352446.38847 -46232855.11943  24212406.3284                   24212404.3714
 -37059753.54447 -28862600.85545  21403504.8984                   21403502.9344
 -26553744.57748 -20675295.67246  21001355.3834                   21001353.6254
 -47149656.56147 -36722858.62244  23052846.8444                   23052846.2934
  -7861312.59447  -6105830.11545  22934053.2814                   22934054.2734
 -45224263.78248 -35223208.98546  20913217.6094                   20913213.0664
 11  8 19  1  4 30.0000000  0  8G12G30G17G10G05G04G25G02
 -31158298.57848 -24263503.64346  20950356.1644                   20950353.5904
  -9290582.93547  -7218918.15245  22506777.7974                   22506777.3444
 -59353741.57847 -46233864.38043  24212159.5634                   24212159.3914
 -37079113.07547 -28877686.18846  21399821.1024                   21399819.1884
 -26678976.74348 -20772879.14446  20977524.7814                   20977522.8674
 -47134940.92247 -36711391.91644  23055647.1484                   23055645.7854
  -8006644.34347  -6219075.59045  22906397.7114                   22906399.1414
 -45272727.19548 -35260972.69546  20903994.9384                   20903990.9534
 11  8 19  1  5  0.0000000  0  8G12G30G17G10G05G04G25G02
 -31245428.18748 -24331396.83546  20933776.2194                   20933773.5784
  -9425523.33247  -7324066.48845  22481099.5864                   22481098.9454
 -59354821.72647 -46234705.99043  24211954.4844                   24211953.4454
 -37097882.04148 -28892311.34945  21396249.0784                   21396247.5664
 -26803680.44748 -20870050.81246  20953794.4384                   20953792.0784
 -47120186.36247 -36699894.84744  23058454.9064                   23058454.2734
  -8151566.07447  -6332001.57945  22878820.0164                   22878820.5124
 -45320965.55848 -35298561.04346  20894816.0394                   20894811.9384
 11  8 19  1  5 30.0000000  0  8G12G30G17G10G05G04G25G02
 -31331961.06248 -24398825.03246  20917309.7274                   20917306.7894
  -9559950.98447  -7428815.28545  22455519.0554                   22455518.1214
 -59355686.20146 -46235379.54543  24211790.0084                   24211788.9844
 -37116061.45248 -28906477.13846  21392789.9384                   21392787.9064
 -26927852.62448 -20966808.32146  20930164.8984                   20930162.5634
 -47105393.54247 -36688368.00144  23061269.9224                   23061269.1954
  -8296074.35947  -6444605.38845  22851321.0314                   22851321.5204
 -45368979.21648 -35335974.28746  20885679.1414                   20885674.8244
 11  8 19  1  6  0.0000000  0  8G12G30G17G10G05G04G25G02
 -31417900.89348 -24465791.11346  20900955.5314                   20900953.2664
  -9693867.84847  -7533166.05645  22430035.2344                   22430034.4344
 -59356338.83346 -46235888.05844  24211664.8364                   24211664.2664
 -37133657.62547 -28920188.45046  21389441.4384                   21389439.2774
 -27051495.99648 -21063153.77446  20906636.5084                   20906634.2624
 -47090567.43046 -36676815.23444  23064090.7194                   23064090.4924
  -8440170.98847  -6556888.43945  22823900.6414                   22823901.2814
 -45416773.76348 -35373216.80646  20876583.9694                   20876580.0044
 11  8 19  1  6 30.0000000  0  8G12G30G17G10G05G04G25G02
 -31503250.59848 -24532297.37046  20884714.2664                   20884711.1484
  -9827276.01547  -7637120.47045  22404648.7194                   22404647.2734
 -59356783.94346 -46236234.86243  24211579.7894                   24211579.8204
 -37150676.89447 -28933450.21345  21386202.9064                   21386200.9384
 -27174613.04448 -21159089.09246  20883207.8524                   20883205.3284
 -47075713.94447 -36665241.11544  23066917.7894                   23066916.8834
  -8583857.81847  -6668852.17245  22796557.5394                   22796559.0514
 -45464355.05648 -35410293.14046  20867529.5394                   20867525.0984
 11  8 19  1  7  0.0000000  0  8G12G30G17G10G05G04G25G02
 -31588010.91748 -24598344.35646  20868584.4064                   20868581.6454
  -9960174.29347  -7740677.54745  22379358.8284                   22379357.3484
 -59357022.56046 -46236420.81843  24211535.4844                   24211535.0634
 -37167122.23647 -28946264.77045  21383073.1804                   21383071.3014
 -27297203.05048 -21254613.72946  20859879.6954                   20859877.4804
 -47060835.06647 -36653647.23144  23069748.6334                   23069748.2704
  -8727133.34347  -6780495.42145  22769292.8834                   22769294.1134
 -45511724.75448 -35447204.59546  20858515.3754                   20858511.5664
 11  8 19  1  7 30.0000000  0  8G12G30G17G10G05G04G25G02
 -31672175.79448 -24663927.36446  20852568.7034                   20852565.9844
 -10092555.39947  -7843831.63445  22354168.1804                   22354166.1764
 -59357049.45446 -46236441.77943  24211529.2114                   24211529.4104
 -37182990.62047 -28958629.72345  21380053.4454                   21380051.7974
 -27419259.13748 -21349722.33346  20836653.4924                   20836651.5204
 -47045926.93347 -36642030.49544  23072586.7584                   23072585.0394
  -8869990.20547  -6891812.41645  22742108.5784                   22742108.7344
 -45558878.81747 -35483948.02246  20849542.3914                   20849537.7704
 11  8 19  1  8  0.0000000  0  8G12G30G17G10G05G04G25G02
 -31755757.43348 -24729055.89846  20836663.7974                   20836660.7934
 -10224430.14647  -7946591.15345  22329072.5474                   22329071.5784
 -59356877.28246 -46236307.59144  24211562.5784                   24211562.7974
 -37198297.09747 -28970556.85045  21377140.7274                   21377138.5824
 -27540792.86048 -21444423.87946  20813526.0634                   20813524.1174
 -47031003.80547 -36630402.12244  23075426.2504                   23075424.9454
  -9012438.84047  -7002811.34245  22715000.9924                   22715001.8244
 -45605831.56448 -35520534.56546  20840607.7344                   20840603.1174
 11  8 19  1  8 30.0000000  0  8G12G30G17G10G05G04G25G02
 -31838750.71648 -24793725.98946  20820870.3914                   20820867.7584
 -10355792.26847  -8048951.21745  22304075.2894                   22304073.7504
 -59356502.23646 -46236015.37244  24211634.4844                   24211634.3484
 -37213039.75148 -28982044.63845  21374335.3134                   21374333.2974
 -27661798.17848 -21538713.70046  20790499.5474                   20790497.2854
 -47016062.75347 -36618759.77644  23078269.5474                   23078268.1414
  -9154472.78847  -7113487.11445  22687973.0394                   22687972.9654
 -45652580.53948 -35556962.34946  20831711.2194                   20831707.2624
 11  8 19  1  9  0.0000000  0  8G12G30G17G10G05G04G25G02
 -31921157.49048 -24857939.04946  20805189.0944                   20805186.4774
 -10486642.23247  -8150912.21245  22279175.3984                   22279173.8594
 -59355926.94646 -46235567.08944  24211744.0314                   24211743.5394
 -37227222.96247 -28993096.48945  21371636.8754                   21371634.4534
 -27782275.85548 -21632592.36346  20767573.2274                   20767571.3404
 -47001107.47447 -36607106.29244  23081115.4304                   23081114.0434
  -9296092.22447  -7223839.91145  22661024.0084                   22661024.4774
 -45699129.21048 -35593234.03746  20822853.5634                   20822849.6374
 11  8 19  1  9 30.0000000  0  8G12G30G17G10G05G04G25G02
 -32002977.39348 -24921694.81246  20789619.1884                   20789616.2074
 -10616977.84747  -8252472.40745  22254373.3284                   22254371.3244
 -59355151.12546 -46234962.49744  24211890.8134                   24211890.9734
 -37240848.86747 -29003714.08045  21369043.2664                   21369041.4264
 -27902224.40548 -21726058.72346  20744748.0784                   20744746.1374
 -46986139.35347 -36595442.88644  23083963.6954                   23083962.4924
  -9437294.68847  -7333867.77345  22634153.8984                   22634154.2624
 -45745478.64148 -35629350.48446  20814033.2894                   20814029.2704
 11  8 19  1 10  0.0000000  0  8G12G30G17G10G05G04G25G02
 -32084207.82348 -24984991.23246  20774161.4614                   20774159.2114
 -10746795.53947  -8353629.02745  22229670.0554                   22229667.9024
 -59354173.77946 -46234200.92944  24212077.3364                   24212077.2774
 -37253918.33048 -29013898.08545  21366556.6024                   21366554.6294
 -28021640.79448 -21819110.41246  20722023.7274                   20722022.1374
 -46971157.93747 -36583769.09944  23086814.3754                   23086813.3484
  -9578076.39347  -7443567.76845  22607364.1564                   22607365.0474
 -45791628.68148 -35665311.54646  20805251.6804                   20805247.6134
 11  8 19  1 10 30.0000000  0  8G12G30G17G10G05G04G25G02
 -32164851.89248 -25047830.76546  20758815.5004                   20758812.5634
 -10876096.57147  -8454383.03845  22205064.5704                   22205063.3244
 -59352997.77946 -46233284.52143  24212300.2814                   24212301.0744
 -37266436.59048 -29023652.57045  21364174.6254                   21364172.8524
 -28140526.51648 -21911748.60046  20699400.8364                   20699398.6764
 -46956167.59447 -36572088.33244  23089667.1334                   23089666.0864
  -9718438.20947  -7552940.59545  22580654.6094                   22580654.6454
 -45837583.60148 -35701120.56846  20796506.6804                   20796502.1524
 11  8 19  1 11  0.0000000  0  8G12G30G17G10G05G04G25G02
 -32244908.93648 -25110212.86946  20743581.3134                   20743578.7154
 -11004879.16547  -8554733.07945  22180558.0164                   22180556.2304
 -59351623.63746 -46232213.80743  24212561.9144                   24212561.7624
 -37278405.98048 -29032979.36345  21361896.8914                   21361894.6374
 -28258880.33248 -22003972.31246  20676878.5164                   20676876.5984
 -46941169.90847 -36560401.85144  23092521.0234                   23092520.0554
  -9858378.07347  -7661984.61545  22554024.2344                   22554024.4414
 -45883345.09448 -35736778.87246  20787798.2584                   20787793.7464
 11  8 19  1 11 30.0000000  0  8G12G30G17G10G05G04G25G02
 -32324377.50248 -25172136.41846  20728458.7424                   20728456.5164
 -11133140.12647  -8654676.64845  22156150.6644                   22156149.6564
 -59350050.10846 -46230987.63344  24212861.8914                   24212861.6844
 -37289827.61748 -29041879.34345  21359723.5554                   21359721.4694
 -28376699.50048 -22095779.41547  20654458.1334                   20654455.4804
 -46926164.97647 -36548709.73544  23095376.0084                   23095375.2854
  -9997892.58247  -7770697.17145  22527476.0234                   22527476.2384
 -45928913.09148 -35772286.38446  20779127.0084                   20779122.6604
 11  8 19  1 12  0.0000000  0  8G12G30G17G10G05G04G25G02
 -32403253.66148 -25233598.34846  20713448.8674                   20713447.0004
 -11260874.20047  -8754209.65045  22131844.4534                   22131841.7154
 -59348273.78146 -46229603.45643  24213199.6024                   24213198.9264
 -37300700.74348 -29050351.90045  21357654.1094                   21357652.0004
 -28493979.27548 -22187166.21546  20632140.2974                   20632138.3874
 -46911150.50447 -36537010.17544  23098233.2734                   23098232.6134
 -10136976.15647  -7879073.96145  22501009.1414                   22501009.2154
 -45974285.76948 -35807641.70346  20770493.0634                   20770488.6884
 11  8 19  1 12 30.0000000  0  8G12G30G17G10G05G04G25G02
 -32481541.41848 -25294601.78746  20698551.5784                   20698548.6884
 -11388084.01147  -8853334.13745  22107636.3364                   22107635.1564
 -59346299.75946 -46228065.24943  24213575.1644                   24213574.6644
 -37311032.18848 -29058402.37445  21355688.0864                   21355686.4144
 -28610723.12848 -22278135.40946  20609924.5784                   20609923.0394
 -46896132.20947 -36525307.62044  23101091.9304                   23101090.7934
 -10275631.00747  -7987116.65945  22474623.7814                   22474624.1454
 -46019468.67148 -35842849.15546  20761895.1954                   20761891.1334
 11  8 19  1 13  0.0000000  0  8G12G30G17G10G05G04G25G02
 -32559241.20048 -25355147.06746  20683765.7734                   20683763.6564
 -11514768.55247  -8952049.34045  22083529.2344                   22083527.7894
 -59344128.87046 -46226373.58843  24213988.2274                   24213988.1374
 -37320825.08148 -29066033.20645  21353824.3204                   21353822.6174
 -28726930.32148 -22368686.42346  20587811.1644                   20587808.7114
 -46881112.36347 -36513603.90444  23103950.0004                   23103949.3524
 -10413855.88347  -8094824.32245  22448320.3674                   22448320.3794
 -46064463.90148 -35877910.36946  20753332.7734                   20753328.8054
 11  8 19  1 13 30.0000000  0  8G12G30G17G10G05G04G25G02
 -32636352.37348 -25415233.70246  20669091.8834                   20669089.2504
 -11640925.62147  -9050353.51445  22059522.4534                   22059520.2854
 -59341761.04646 -46224528.46443  24214439.0084                   24214438.2304
 -37330081.26247 -29073245.81945  21352063.1564                   21352061.7194
 -28842599.07848 -22458817.88446  20565800.2274                   20565798.1484
 -46866091.83447 -36501899.62444  23106808.5004                   23106807.2424
 -10551648.28447  -8202194.98245  22422098.9774                   22422098.6844
 -46109272.35848 -35912826.04446  20744806.2114                   20744801.5274
 11  8 19  1 14  0.0000000  0  9G12G30G17G10G05G04G25G29G02
 -32712875.99247 -25474862.48546  20654530.0314                   20654527.2774
 -11766554.67247  -9148246.25245  22035615.8204                   22035614.8834
 -59339197.44246 -46222530.81543  24214925.9224                   24214925.6134
 -37338804.50347 -29080043.16245  21350403.5634                   21350401.5824
 -28957729.04548 -22548529.50647  20543891.1884                   20543889.6454
 -46851073.00446 -36490196.66944  23109666.1564                   23109664.9804
 -10689007.33247  -8309227.97745  22395960.7114                   22395961.2384
   9235613.05656   7213401.17754  24534986.1954                   24534986.3674
 -46153896.75747 -35947598.28646  20736314.1644                   20736310.1844
 11  8 19  1 14 30.0000000  0  9G12G30G17G10G05G04G25G29G02
 -32788817.06947 -25534037.36446  20640078.9384                   20640076.3634
 -11891659.58247  -9245730.54845  22011809.0704                   22011807.9654
 -59336444.44546 -46220385.62143  24215450.5634                   24215449.9804
 -37347002.95347 -29086431.57045  21348842.8284                   21348840.7624
 -29072324.93348 -22637824.96046  20522084.6884                   20522082.6914
 -46836062.73347 -36478500.38444  23112522.6954                   23112521.7304
 -10825936.37147  -8415925.87145  22369903.4454                   22369904.1914
   9088900.03646   7099079.43944  24507067.7344                   24507068.5864
 -46198343.92447 -35982232.42146  20727856.0634                   20727852.0554
 11  8 19  1 15  0.0000000  0  9G12G30G17G10G05G04G25G29G02
 -32864183.34447 -25592764.34046  20625737.3054                   20625734.7584
 -12016246.23547  -9342811.04345  21988101.4924                   21988099.4844
 -59333509.55846 -46218098.63843  24216008.9144                   24216008.5354
 -37354686.74248 -29092418.93145  21347381.0394                   21347379.0204
 -29186393.31948 -22726709.37847  20500378.4614                   20500376.0274
 -46821069.96246 -36466817.74044  23115376.2344                   23115374.2464
 -10962441.17347  -8522293.20745  22343927.9614                   22343928.0554
   8942104.33447   6984693.19843  24479133.7974                   24479132.9924
 -46242622.93147 -36016735.53546  20719430.0394                   20719425.2734
 11  8 19  1 15 30.0000000  0  9G12G30G17G10G05G04G25G29G02
 -32938967.93248 -25651038.04446  20611506.0704                   20611503.8094
 -12140306.49947  -9439481.34145  21964492.7194                   21964491.7384
 -59330386.72346 -46215665.23643  24216603.5704                   24216602.7504
 -37361852.05147 -29098002.27745  21346017.2734                   21346015.4774
 -29299926.52648 -22815176.76246  20478773.8284                   20478771.8284
 -46806089.57346 -36455144.75844  23118226.3984                   23118224.8794
 -11098513.13147  -8628323.28045  22318033.6094                   22318033.6334
   8795232.80046   6870247.91344  24451185.0084                   24451185.8984
 -46286728.89948 -36051103.80746  20711037.0864                   20711032.6994
 11  8 19  1 16  0.0000000  0  9G12G30G17G10G05G04G25G29G02
 -31437747.21748 -24481255.67246  20897178.5474                   20897176.7894
 -10688413.37647  -8308136.02345  22240779.4304                   22240777.7194
 -57751655.19046 -44985484.73143  24517024.8674                   24517026.0124
 -35793080.05947 -27875582.54245  21644544.6804                   21644542.6724
 -27837498.12748 -21675622.13847  20757064.7274                   20757062.3324
 -45215702.03546 -35215881.75744  23420867.2734                   23420866.0234
  -9658724.52247  -7506410.04645  22592017.1724                   22592016.7034
  10223711.26247   7983348.09544  24723015.6564                   24723014.9804
 -44755240.22748 -34857735.99646  21002470.0784                   21002465.9574
 11  8 19  1 16 30.0000000  0  9G12G30G17G10G05G04G25G29G02
 -31511363.64648 -24538619.14146  20883170.1954                   20883167.6024
 -10811411.24447  -8403978.50745  22217374.1954                   22217372.1134
 -57748152.86146 -44982755.59543  24517692.6644                   24517692.3634
 -35799211.35447 -27880360.17545  21643378.1804                   21643376.1604
 -27949952.53048 -21763248.90046  20735665.1414                   20735662.7854
 -45200745.47746 -35204227.36244  23423712.9774                   23423712.1764
  -9793920.17647  -7611757.27545  22566290.3054                   22566290.1724
  10076692.84947   7868788.36744  24695039.8674                   24695038.3014
 -44798999.06948 -34891833.80446  20994142.8524                   20994138.6134
 11  8 19  1 17  0.0000000  0  9G12G30G17G10G05G04G25G29G02
 -31584393.67048 -24595525.64646  20869273.2034                   20869270.2934
 -10933873.08747  -8499403.28445  22194069.6414                   22194068.9104
 -57744458.95146 -44979877.17743  24518394.9144                   24518394.8554
 -35804826.83147 -27884735.86545  21642309.8204                   21642307.9654
 -28061863.71048 -21850452.37846  20714369.2034                   20714366.7664
 -45185800.24047 -35192581.79444  23426557.3444                   23426556.8094
  -9928672.17247  -7716758.79645  22540647.5634                   22540647.3244
   9929604.18847   7754173.91044  24667048.5314                   24667048.5314
 -44842583.82848 -34925795.94046  20985848.6724                   20985844.0354
 11  8 19  1 17 30.0000000  0  9G12G30G17G10G05G04G25G29G02
 -31656832.64547 -24651971.60746  20855488.2424                   20855485.9184
 -11055792.87547  -8594405.70745  22170869.2194                   22170868.3834
 -57740569.63546 -44976846.43843  24519135.0944                   24519135.3014
 -35809925.13347 -27888708.56645  21641339.5084                   21641336.9184
 -28173225.89848 -21937228.07247  20693177.6644                   20693175.7584
 -45170863.20747 -35180942.57544  23429399.5314                   23429398.7114
 -10062974.19547  -7821409.68645  22515091.0394                   22515090.6804
   9782449.59347   7639508.06943  24639046.2734                   24639046.7854
 -44885991.81447 -34959620.35046  20977588.1414                   20977584.2114
 11  8 19  1 18  0.0000000  0  9G12G30G17G10G05G04G25G29G02
 -31728679.49647 -24707956.16246  20841816.3444                   20841813.7114
 -11177168.12648  -8688983.80145  22147772.7424                   22147770.6454
 -57736483.87946 -44973662.71343  24519912.1804                   24519911.0204
 -35814507.86047 -27892279.53445  21640467.0314                   21640465.4694
 -28284037.09448 -22023574.41847  20672090.7664                   20672089.0634
 -45155934.97646 -35169310.23744  23432240.4144                   23432239.5984
 -10196823.34647  -7925707.69245  22489620.1724                   22489620.4844
   9635230.45246   7524791.90743  24611031.4454                   24611031.9344
 -44929223.12847 -34993307.08446  20969361.9534                   20969357.3754
 11  8 19  1 18 30.0000000  0  9G12G30G17G10G05G04G25G29G02
 -31799937.23148 -24763481.67046  20828256.7734                   20828254.0124
 -11298000.47747  -8783138.87045  22124778.7734                   22124776.6644
 -57732205.43546 -44970328.81043  24520726.3444                   24520725.2814
 -35818580.88148 -27895453.33445  21639692.1414                   21639690.5824
 -28394299.66448 -22109493.25846  20651108.5084                   20651106.4304
 -45141019.46447 -35157687.80244  23435078.4224                   23435077.0634
 -10330220.90447  -8029653.82845  22464235.2504                   22464235.9494
   9487943.79046   7410023.13343  24583002.8134                   24583002.4344
 -44972282.41548 -35026859.78446  20961168.2194                   20961163.9184
 11  8 19  1 19  0.0000000  0  9G12G30G17G10G05G04G25G29G02
 -31870604.52548 -24818547.08246  20814809.1024                   20814805.9804
 -11418286.84647  -8876868.49245  22101888.7584                   22101886.5474
 -57727733.11446 -44966843.82944  24521578.2424                   24521577.5864
 -35822145.23947 -27898230.76245  21639014.0784                   21639011.6604
 -28504011.21748 -22194982.74546  20630230.9844                   20630229.0004
 -45126116.72647 -35146075.31043  23437914.9454                   23437913.9144
 -10463163.27347  -8133245.24545  22438936.9774                   22438937.4414
   9340591.18246   7295202.95343  24554963.3754                   24554963.3524
 -45015169.43148 -35060278.23646  20953006.9774                   20953002.2734
 11  8 19  1 19 30.0000000  0  9G12G30G17G10G05G04G25G29G02
 -31940678.86348 -24873150.45746  20801474.4064                   20801471.3984
 -11538023.18847  -8970169.53445  22079104.0394                   22079103.0084
 -57723064.85046 -44963206.15944  24522466.3284                   24522466.1174
 -35825201.16847 -27900612.01145  21638432.5084                   21638430.8364
 -28613167.96148 -22280039.91647  20609459.2584                   20609457.0984
 -45111225.19847 -35134471.55044  23440747.8674                   23440747.1844
 -10595646.05947  -8236478.56845  22413726.3284                   22413727.0664
   9193175.73246   7180333.85343  24526910.9774                   24526909.8014
 -45057883.07248 -35093561.60246  20944878.5314                   20944874.2734
 11  8 19  1 20  0.0000000  0  9G12G30G17G10G05G04G25G29G02
 -32010162.08748 -24927293.21046  20788252.3054                   20788249.4454
 -11657209.75247  -9063042.16345  22056423.2974                   22056421.7544
 -57718202.70447 -44959417.44344  24523391.8834                   24523391.0704
 -35827753.16147 -27902600.58245  21637946.5004                   21637944.3484
 -28721770.96648 -22364665.59246  20588792.5554                   20588790.4144
 -45096347.98747 -35122878.94744  23443579.5084                   23443578.4574
 -10727669.12347  -8339353.66245  22388603.0944                   22388604.3594
   9045696.20246   7065414.80243  24498846.5634                   24498845.1764
 -45100426.38048 -35126712.23646  20936782.5784                   20936778.5474
 11  8 19  1 20 30.0000000  0  9G12G30G17G10G05G04G25G29G02
 -32079055.53548 -24980976.40046  20775141.7814                   20775139.2974
 -11775846.10847  -9155486.08245  22033848.0004                   22033845.8054
 -57713148.20247 -44955478.79044  24524353.5004                   24524352.8834
 -35829805.00448 -27904199.43145  21637556.4614                   21637554.4494
 -28829820.10048 -22448859.69746  20568231.7274                   20568229.3954
 -45081487.29147 -35111299.22444  23446407.5554                   23446406.6374
 -10859231.55147  -8441869.82145  22363567.4304                   22363567.7544
   8898151.65946   6950445.10843  24470769.7114                   24470768.0864
 -45142801.71648 -35159731.97746  20928719.2344                   20928714.9264
 11  8 19  1 21  0.0000000  0  8G12G30G10G05G04G25G29G02
 -32147359.23247 -25034200.05246  20762144.4144                   20762141.5634
 -11893930.97247  -9247500.23245  22011376.5944                   22011374.7624
 -35831359.56148 -27905410.76745  21637260.4384                   21637258.7274
 -28937314.74948 -22532621.72147  20547775.9144                   20547773.5474
 -45066644.48247 -35099733.42244  23449231.5164                   23449230.7894
 -10990331.58947  -8544025.66945  22338619.9534                   22338619.9304
   8750542.24846   6835424.81243  24442680.0944                   24442680.1134
 -45185010.74648 -35192622.12746  20920687.2274                   20920682.7384
 11  8 19  1 21 30.0000000  0  8G12G30G10G05G04G25G29G02
 -32215069.93148 -25086961.60846  20749259.4064                   20749256.6684
 -12011459.67047  -9339081.00845  21989011.8754                   21989009.7664
 -35832416.07148 -27906234.04045  21637059.4064                   21637057.6994
 -29044250.64948 -22615948.36147  20527426.6414                   20527424.0594
 -45051817.57246 -35088180.01543  23452053.6094                   23452052.1804
 -11120964.12947  -8645817.24645  22313761.5554                   22313762.5044
   8602871.61946   6720356.80143  24414579.0164                   24414578.8874
 -45227051.13748 -35225380.87546  20912687.1414                   20912682.7934
 11  8 19  1 22  0.0000000  0  8G12G30G10G05G04G25G29G02
 -32282183.17348 -25139257.62846  20736488.0944                   20736485.1604
 -12128425.61547  -9430223.28045  21966753.9304                   21966751.7194
 -35832972.33347 -27906667.50445  21636953.7974                   21636951.8984
 -29150622.15848 -22698835.21947  20507185.0314                   20507182.8674
 -45037002.49746 -35076635.84443  23454872.8984                   23454871.3404
 -11251122.28247  -8747239.13445  22288992.9694                   22288993.6414
   8455145.06646   6605245.23543  24386468.1484                   24386467.6334
 -45268919.49548 -35258005.57246  20904719.7894                   20904715.4264
 11  8 19  1 22 30.0000000  0  8G12G30G10G05G04G25G29G02
 -32348695.73948 -25191085.57746  20723830.9454                   20723828.4104
 -12244824.55747  -9520923.75245  21944603.9454                   21944601.3324
 -35833028.20448 -27906711.04145  21636943.4454                   21636941.3834
 -29256425.12948 -22781279.05247  20487051.2734                   20487049.0434
 -45022197.50146 -35065099.52543  23457690.8134                   23457688.4224
 -11380801.15247  -8848287.59645  22264316.2424                   22264316.0354
   8307366.08846   6490092.85543  24358347.2894                   24358345.0434
 -45310613.88548 -35290494.70146  20896785.6564                   20896781.0904
 11  8 19  1 23  0.0000000  0  8G12G30G10G05G04G25G29G02
 -32414606.64047 -25242444.70546  20711288.5164                   20711285.3914
 -12360653.68847  -9611180.19745  21922562.2814                   21922560.0984
 -35832584.94847 -27906365.65345  21637027.1644                   21637025.9144
 -29361657.57648 -22863278.32847  20467026.1024                   20467023.7234
 -45007402.19046 -35053570.69244  23460505.5234                   23460503.8164
 -11509997.55347  -8948960.08545  22239730.8524                   22239730.5984
   8159536.54446   6374901.02144  24330215.5554                   24330215.8754
 -45352134.47548 -35322848.39746  20888884.2114                   20888879.7344
 11  8 19  1 23 30.0000000  0  8G12G30G10G05G04G25G29G02
 -32479922.49848 -25293340.15846  20698859.5084                   20698857.0314
 -12475918.05947  -9700996.56145  21900627.7034                   21900626.5164
 -35831651.90747 -27905638.59645  21637204.8834                   21637202.9734
 -29466325.09648 -22944837.40447  20447108.6724                   20447105.8164
 -44992623.97846 -35042055.18143  23463317.7034                   23463316.5554
 -11638715.97747  -9049260.12045  22215236.7194                   22215236.7544
   8011650.44146   6259665.15844  24302073.7814                   24302073.8984
 -45393488.70348 -35355072.47346  20881014.6644                   20881011.0514
 11  8 19  1 24  0.0000000  0  8G12G30G10G05G04G25G29G02
 -32544647.31348 -25343775.05746  20686542.5164                   20686540.0044
 -12590620.50047  -9790375.06845  21878800.6024                   21878799.2304
 -35830235.90847 -27904535.21445  21637473.9774                   21637472.2114
 -29570431.12148 -23025958.95647  20427297.9844                   20427295.3484
 -44977868.52046 -35030557.48743  23466125.7504                   23466124.1294
 -11766958.85047  -9149189.62245  22190832.8524                   22190832.6454
   7863703.76646   6144382.04844  24273920.2814                   24273921.1644
 -45434682.08548 -35387171.22146  20873176.1954                   20873171.5904
 11  8 19  1 24 30.0000000  0  8G12G30G10G05G04G25G29G02
 -32608783.45448 -25393751.26046  20674337.9694                   20674335.5204
 -12704760.85147  -9879315.56245  21857080.1254                   21857079.5394
 -35828340.97947 -27903058.63745  21637834.9384                   21637832.9734
 -29673975.51548 -23106642.86547  20407594.0554                   20407591.7814
 -44963137.79847 -35019079.03844  23468929.1334                   23468927.5634
 -11894725.44847  -9248747.96945  22166519.4304                   22166519.9694
   7715695.91646   6029051.27044  24245755.9844                   24245755.1884
 -45475717.01048 -35419146.48046  20865367.6254                   20865363.3874
 11  8 19  1 25  0.0000000  0  8G12G30G10G05G04G25G29G02
 -32672330.80448 -25443268.66046  20662245.4774                   20662242.7934
 -12818337.75547  -9967817.01345  21835467.6564                   21835466.7274
 -35825969.87747 -27901211.01445  21638285.9924                   21638284.0354
 -29776958.02048 -23186888.93947  20387996.8594                   20387995.0944
 -44948433.05547 -35007620.85344  23471727.3134                   23471726.7344
 -12022013.93648  -9347933.77145  22142297.5394                   22142298.2194
   7567627.44146   5913673.24944  24217578.7814                   24217578.6914
 -45516594.64648 -35450999.18246  20857588.5474                   20857584.4534
 11  8 19  1 25 30.0000000  0  8G12G30G10G05G04G25G29G02
 -32735290.75548 -25492328.34046  20650264.2194                   20650261.6484
 -12931351.01548 -10055879.26045  21813962.0084                   21813960.9884
 -35823126.98947 -27898995.77945  21638826.9844                   21638825.6764
 -29879379.01548 -23266697.47147  20368507.0784                   20368504.5354
 -44933756.36047 -34996184.50844  23474520.6414                   23474519.6054
 -12148823.72347  -9446746.56145  22118166.1334                   22118166.6134
   7419497.64847   5798247.48944  24189391.3204                   24189390.7584
 -45557317.63048 -35482731.36746  20849839.2664                   20849834.6884
 11  8 19  1 26  0.0000000  0  8G12G30G10G05G04G25G29G02
 -32797663.58348 -25540930.54046  20638395.6254                   20638392.4064
 -13043799.24547 -10143501.21445  21792563.9064                   21792562.3204
 -35819814.55947 -27896414.67445  21639457.6174                   21639455.6914
 -29981237.66247 -23346067.81647  20349123.9534                   20349121.5904
 -44919108.50447 -34984770.63044  23477307.1884                   23477307.2344
 -12275152.81847  -9545184.78745  22094126.6724                   22094127.4064
   7271306.96547   5682774.33844  24161191.0864                   24161189.6564
 -45597886.88147 -35514343.77146  20842119.4774                   20842114.9734
 11  8 19  1 26 30.0000000  0  8G12G30G10G05G04G25G29G02
 -32859450.70048 -25589076.33346  20626637.6484                   20626635.0314
 -13155682.51147 -10230682.95045  21771272.9454                   21771272.2584
 -35816036.64047 -27893470.82945  21640176.2584                   21640174.6054
 -30082534.60748 -23425000.47547  20329847.8674                   20329845.1764
 -44904492.13046 -34973381.29644  23480088.6564                   23480087.4924
 -12401000.75447  -9643248.07945  22070178.4844                   22070178.4654
   7123054.62446   5567253.06144  24132979.7894                   24132978.5044
 -45638304.99048 -35545838.39646  20834428.0784                   20834424.2304
 11  8 19  1 27  0.0000000  0  8G12G30G10G05G04G25G29G02
 -32920646.93848 -25636761.70346  20614992.3054                   20614989.6214
 -13266993.90348 -10317419.07045  21750091.3054                   21750090.0044
 -35811790.49848 -27890162.16145  21640984.3594                   21640982.4884
 -30183263.39948 -23503490.40847  20310679.1484                   20310677.1604
 -44889902.32647 -34962012.63643  23482864.8134                   23482864.4614
 -12526360.11648  -9740930.67346  22046323.5784                   22046324.0204
   6974746.99547   5451688.73544  24104757.6884                   24104756.3444
 -45678567.30448 -35577211.62146  20826766.4384                   20826762.1484
 11  8 19  1 27 30.0000000  0  8G12G30G10G05G04G25G29G02
 -31405835.78548 -24456389.38246  20903251.0704                   20903248.5204
 -11802313.59547  -9176109.69745  22028810.9774                   22028809.2664
 -34231664.26647 -26658894.97045  21941672.2344                   21941670.1174
 -28708004.93048 -22353938.32447  20591411.9534                   20591409.7304
 -43299925.60646 -33723069.80444  23785427.9384                   23785426.0554
 -11075809.99647  -8610631.83846  22322354.2974                   22322354.7304
   8401804.36546   6563681.57043  24376316.8594                   24376316.7304
 -44143258.84748 -34380867.36746  21118925.7814                   21118921.2504
 11  8 19  1 28  0.0000000  0  8G12G30G10G05G04G25G29G02
 -31465860.84848 -24503162.16046  20891828.8834                   20891826.5044
 -11912486.72148  -9261958.85645  22007845.5704                   22007844.4774
 -34226499.47147 -26654870.46245  21942655.1174                   21942653.6844
 -28807604.55348 -22431548.38447  20572458.8524                   20572456.5664
 -43285401.35646 -33711752.22943  23788192.0164                   23788190.9454
 -11200196.05948  -8707556.00946  22298683.8984                   22298684.4264
   8253378.14046   6448024.82543  24348072.6024                   24348072.2584
 -44183222.55048 -34412007.90646  21111321.2974                   21111316.3874
 11  8 19  1 28 30.0000000  0  8G12G30G10G05G04G25G29G02
 -31525297.98148 -24549476.81046  20880518.6094                   20880515.9144
 -12022085.99748  -9347360.85245  21986989.4614                   21986987.8714
 -34220876.80247 -26650489.17445  21943725.2664                   21943723.3634
 -28906635.85448 -22508715.59647  20553613.8284                   20553611.5394
 -43270908.08547 -33700458.83543  23790949.8204                   23790948.7894
 -11324089.88548  -8804096.62045  22275107.8754                   22275108.0554
   8104896.57046   6332324.91643  24319818.1484                   24319816.6724
 -44223035.78448 -34443031.19746  21103744.9384                   21103740.4654
 11  8 19  1 29  0.0000000  0  8G12G30G10G05G04G25G29G02
 -31584150.53148 -24595335.93246  20869319.0704                   20869316.7774
 -12131113.39448  -9432317.23545  21966242.0704                   21966240.6844
 -34214802.17047 -26645755.69245  21944881.7344                   21944879.6374
 -29005101.47848 -22585442.03547  20534876.7034                   20534874.0354
 -43256450.22847 -33689193.08344  23793701.1884                   23793700.6054
 -11447493.01848  -8900254.86345  22251624.6644                   22251625.1684
   7956356.72546   6216579.65543  24291551.4304                   24291551.0434
 -44262703.02048 -34473940.71846  21096195.8914                   21096191.7624
 11  8 19  1 29 30.0000000  0  8G12G30G10G05G04G25G29G02
 -31642418.50948 -24640739.55746  20858230.5314                   20858228.5314
 -12239566.87548  -9516826.41045  21945604.3134                   21945602.1134
 -34208277.57147 -26640671.59945  21946122.7424                   21946120.7344
 -29102999.82848 -22661726.42847  20516246.9694                   20516244.5314
 -43242027.66647 -33677954.77343  23796446.2344                   23796444.8204
 -11570402.74848  -8996028.64246  22228236.1644                   22228236.1564
   7807760.20146   6100790.24043  24263274.1884                   24263272.8954
 -44302224.39347 -34504736.59346  21088675.4454                   21088671.2504
 11  8 19  1 30  0.0000000  0  8G12G30G10G05G04G25G29G02
 -31700100.71248 -24685686.74546  20847254.3524                   20847251.6024
 -12347443.86247  -9600886.37245  21925076.1484                   21925074.6174
 -34201304.43847 -26635238.00345  21947449.7194                   21947447.8324
 -29200328.84548 -22737567.18647  20497725.8674                   20497723.8324
 -43227639.94547 -33666743.60743  23799183.4534                   23799183.4494
 -11692815.94148  -9091415.52146  22204941.7974                   22204941.8134
   7659109.30846   5984958.40543  24234986.8594                   24234986.2734
 -44341599.47648 -34535418.47646  21081182.8674                   21081178.4064
 11  8 19  1 30 30.0000000  0  8G12G30G10G05G04G25G29G02
 -31757200.49948 -24730180.10046  20836388.3984                   20836386.3484
 -12454745.68248  -9684498.15345  21904656.9384                   21904656.0664
 -34193887.91747 -26629458.91245  21948860.8834                   21948859.2194
 -29297090.68948 -22812965.98947  20479312.3984                   20479310.1134
 -43213290.34947 -33655562.11543  23801914.0944                   23801913.3754
 -11814733.36448  -9186416.07346  22181741.3364                   22181741.7504
   7510402.05346   5869082.67643  24206688.0554                   24206686.6214
 -44380831.72048 -34565989.03746  21073717.1254                   21073712.4574
 11  8 19  1 31  0.0000000  0  8G12G30G10G05G04G25G29G02
 -31813717.74748 -24774219.52046  20825633.9304                   20825631.5084
 -12561470.86848  -9767660.63045  21884347.8524                   21884346.1604
 -34186030.58747 -26623336.31245  21950356.5554                   21950354.0824
 -29393284.08848 -22887921.84747  20461007.7814                   20461005.5124
 -43198979.50047 -33644410.83944  23804637.6254                   23804636.5124
 -11936152.95948  -9281028.71146  22158635.8674                   22158636.5274
   7361639.45347   5753163.74444  24178381.1724                   24178380.6954
 -44419921.99448 -34596448.99046  21066278.5634                   21066274.0554
 11  8 19  1 31 30.0000000  0  8G12G30G10G05G04G25G29G02
 -31869653.24148 -24817805.63046  20814990.0634                   20814987.1214
 -12667618.60248  -9850373.12745  21864148.5704                   21864147.7304
 -34177735.59147 -26616872.70545  21951934.6174                   21951932.6844
 -29488909.14948 -22962434.86647  20442810.8444                   20442808.3874
 -43184708.48347 -33633290.63444  23807353.1804                   23807352.3284
 -12057073.33248  -9375252.35746  22135625.6024                   22135626.1414
   7212821.91247   5637202.09344  24150061.7274                   24150060.5124
 -44458871.77948 -34626799.46246  21058866.5554                   21058862.3554
 11  8 19  1 32  0.0000000  0  8G12G30G10G05G04G25G29G02
 -31925009.16348 -24860940.12246  20804455.9614                   20804453.3284
 -12773189.24447  -9932635.95445  21844059.2974                   21844057.8324
 -34169007.30947 -26610071.45345  21953595.3754                   21953593.4384
 -29583966.73448 -23036505.67647  20424721.7194                   20424719.5124
 -43170479.50847 -33622203.16944  23810060.8054                   23810060.1914
 -12177494.26148  -9469086.80846  22112710.2344                   22112710.7544
   7063948.34347   5521196.76544  24121731.3984                   24121731.5744
 -44497683.73548 -34657042.53746  21051481.0554                   21051476.5004
 11  8 19  1 32 30.0000000  0  8G12G30G10G05G04G25G29G02
 -31979786.57348 -24903623.83646  20794031.7034                   20794029.6684
 -12878182.39247 -10014448.77845  21824079.5474                   21824077.7344
 -34159849.27547 -26602935.33345  21955338.2814                   21955336.5784
 -29678457.09448 -23110134.49047  20406741.0234                   20406738.6334
 -43156294.31047 -33611149.82644  23812760.6884                   23812760.7734
 -12297414.73848  -9562531.31246  22089890.1884                   22089890.8404
   6915019.08847   5405148.00744  24093391.8054                   24093390.1294
 -44536359.33948 -34687179.35446  21044120.9924                   21044116.9224
 11  8 19  1 33  0.0000000  0  8G12G30G10G05G04G25G29G02
 -32033984.28848 -24945855.82546  20783718.5314                   20783715.8834
 -12982595.07447 -10095809.31345  21804210.5634                   21804208.7304
 -34150262.41847 -26595465.07745  21957162.6254                   21957160.7344
 -29772377.65848 -23183319.32147  20388868.6724                   20388865.8014
 -43142151.57647 -33600129.52644  23815451.6484                   23815451.1294
 -12416831.10948  -9655583.01246  22067166.0084                   22067166.4654
   6766036.85447   5289058.03244  24065041.4454                   24065039.6644
 -44574898.01948 -34717209.47846  21036787.1954                   21036782.7114
 11  8 19  1 33 30.0000000  0  8G12G30G10G05G04G25G29G02
 -32087604.33048 -24987637.68346  20773515.1564                   20773512.3634
 -13086427.64748 -10176717.82145  21784451.5704                   21784450.0164
 -34140251.04147 -26587664.02345  21959067.8674                   21959065.8834
 -29865729.42348 -23256060.92347  20371103.7194                   20371101.6564
 -43128053.50647 -33589144.09244  23818133.7034                   23818133.2194
 -12535743.19748  -9748241.75746  22044537.5394                   22044538.3284
   6617000.63146   5172926.00944  24036679.4454                   24036678.9574
 -44613301.97648 -34747134.62146  21029479.4614                   21029474.9384
 11  8 19  1 34  0.0000000  0  8G12G30G10G05G04G25G29G02
 -32140645.47948 -25028968.45846  20763421.8134                   20763419.3404
 -13189677.25747 -10257172.05545  21764803.9224                   21764802.2504
 -34129816.10747 -26579532.90945  21961053.6334                   21961051.4064
 -29958510.22048 -23328357.63547  20353448.3754                   20353445.9614
 -43113999.02247 -33578192.55044  23820809.6414                   23820808.9024
 -12654147.43848  -9840504.79446  22022006.2424                   22022006.8554
   6467913.07246   5056753.93144  24008310.0784                   24008307.5824
 -44651569.91048 -34776953.76846  21022196.8524                   21022192.4144
 11  8 19  1 34 30.0000000  0  8G12G30G10G05G04G25G29G02
 -32193110.64448 -25069850.40146  20753437.5784                   20753435.8714
 -13292345.06647 -10337172.94945  21745267.1254                   21745264.7734
 -34118962.69647 -26571075.72545  21963118.9694                   21963117.2424
 -30050721.64748 -23400210.67747  20335901.1174                   20335898.7234
 -43099990.95347 -33567277.23144  23823474.8284                   23823473.7934
 -12772044.45048  -9932372.57646  21999571.0234                   21999571.5514
   6318772.92546   4940540.92944  23979929.8204                   23979927.7854
 -44689705.67148 -34806669.92846  21014940.4384                   21014935.7234
 11  8 19  1 35  0.0000000  0  8G12G30G10G05G04G25G29G02
 -32244999.43748 -25110283.24246  20743563.6024                   20743561.1254
 -13394428.93847 -10416718.80245  21725841.1804                   21725839.3674
 -34107692.20647 -26562293.51945  21965263.9844                   21965261.8834
 -30142362.25348 -23471618.89947  20318462.5164                   20318460.3244
 -43086028.91847 -33556397.74443  23826131.6804                   23826130.6484
 -12889431.42148 -10023842.91746  21977233.1644                   21977233.4694
   6169582.09546   4824288.44944  23951539.5554                   23951538.1524
 -44727708.92148 -34836282.84446  21007707.9224                   21007704.2194
 11  8 19  1 35 30.0000000  0  8G12G30G10G05G04G25G29G02
 -32296312.32548 -25150267.30846  20733799.0474                   20733796.7544
 -13495928.16547 -10495809.11445  21706526.4614                   21706523.8444
 -34096008.23147 -26553189.15145  21967486.9454                   21967484.7814
 -30233432.16448 -23542582.45047  20301132.3674                   20301130.0784
 -43072114.05146 -33545555.01643  23828778.9924                   23828778.7464
 -13006307.04648 -10114914.82146  21954992.2814                   21954992.4614
   6020341.22446   4707996.94444  23923139.9534                   23923139.1374
 -44765580.85948 -34865793.43046  21000501.2814                   21000497.4654
 11  8 19  1 36  0.0000000  0  8G12G30G10G05G04G25G29G02
 -32347050.11148 -25189803.25246  20724144.1564                   20724141.6134
 -13596841.27047 -10574442.70045  21687322.9924                   21687321.6524
 -34083912.96447 -26543764.29045  21969788.8914                   21969786.7074
 -30323930.27048 -23613100.43147  20283911.0394                   20283908.9304
 -43058246.60746 -33534749.27743  23831418.6094                   23831417.9534
 -13122669.16748 -10205586.58146  21932849.4384                   21932849.7034
   5871051.51446   4591667.38844  23894729.6024                   23894729.5084
 -44803321.59948 -34895201.78846  20993319.6564                   20993315.2624
 11  8 19  1 36 30.0000000  0  8G12G30G10G05G04G25G29G02
 -32397212.14548 -25228890.56046  20714598.5784                   20714596.1844
 -13697166.45147 -10652618.15445  21668231.9534                   21668230.4144
 -34071408.33547 -26534020.44045  21972168.2504                   21972166.2034
 -30413855.20648 -23683171.78947  20266799.2664                   20266796.4964
 -43044426.12746 -33523980.10843  23834048.3204                   23834047.7304
 -13238515.32148 -10295856.30646  21910804.6644                   21910804.6334
   5721714.81046   4475301.20944  23866311.6954                   23866311.7774
 -44840931.46947 -34924508.16146  20986162.8674                   20986158.6294
 11  8 19  1 37  0.0000000  0  8G12G30G10G05G04G25G29G02
 -32446801.79748 -25267531.84246  20705161.8674                   20705159.4844
 -13796904.95047 -10730336.45045  21649252.0234                   21649250.1024
 -34058499.21647 -26523961.40444  21974624.2814                   21974622.0274
 -30503208.96448 -23752798.06847  20249795.7734                   20249793.4414
 -43030655.56347 -33513249.79343  23836668.5634                   23836669.1174
 -13353846.04848 -10385724.38446  21888857.8914                   21888858.1724
   5572329.85546   4358897.45744  23837885.5164                   23837885.1024
 -44878413.87948 -34953715.22946  20979030.2504                   20979025.8524
 11  8 19  1 37 30.0000000  0  8G12G30G10G05G04G25G29G02
 -32495818.96448 -25305727.03346  20695834.7034                   20695832.2504
 -13896055.51547 -10807596.62345  21630384.4534                   21630383.3014
 -34045188.45947 -26513589.40145  21977157.5634                   21977155.3444
 -30591990.96748 -23821978.82447  20232901.2344                   20232898.4024
 -43016935.11846 -33502558.63443  23839279.5474                   23839279.4804
 -13468659.48848 -10475189.40146  21867009.5864                   21867009.7464
   5422897.51846   4242456.70844  23809449.2424                   23809448.5514
 -44915768.93347 -34982823.05946  20971921.8284                   20971917.3404
 11  8 19  1 38  0.0000000  0  8G12G30G10G05G04G25G29G02
 -32544264.38848 -25343476.70846  20686615.8054                   20686613.1954
 -13994617.06347 -10884397.80345  21611628.7584                   21611626.5864
 -34031478.72447 -26502906.48945  21979766.9844                   21979764.6844
 -30680200.43748 -23890713.44747  20216115.2814                   20216112.7304
 -43003265.38946 -33491906.87443  23841881.0234                   23841880.5744
 -13582953.81748 -10564249.91646  21845260.0084                   21845260.5824
   5273419.30147   4125980.26944  23781005.5474                   23781003.8244
 -44952997.60248 -35011832.40746  20964837.2194                   20964832.7424
 11  8 19  1 38 30.0000000  0  8G12G30G10G05G04G25G29G02
 -32592141.66648 -25380783.67146  20677504.9694                   20677502.5514
 -14092591.26147 -10960741.31145  21592985.1804                   21592983.3014
 -34017375.30947 -26491916.81545  21982449.5864                   21982448.3634
 -30767839.83348 -23959003.85247  20199438.0704                   20199435.1994
 -42989649.22846 -33481296.87243  23844471.5944                   23844472.1604
 -13696730.06748 -10652906.71646  21823609.2114                   21823608.6134
   5123893.38547   4009466.58844  23752550.7034                   23752550.7584
 -44990103.08148 -35040745.77046  20957776.4844                   20957772.4264
 11  8 19  1 39  0.0000000  0  8G12G30G10G05G04G25G29G02
 -32639449.27348 -25417646.74646  20668502.3444                   20668499.7584
 -14189975.01547 -11036624.72245  21574453.3284                   21574451.9264
 -34002878.76647 -26480620.82645  21985209.6334                   21985206.8954
 -30854906.82848 -24026848.24147  20182869.6644                   20182867.0704
 -42976085.28746 -33470727.59743  23847053.7504                   23847052.6644
 -13809984.43048 -10741156.85346  21802057.5394                   21802058.2464
   4974322.93647   3892918.21644  23724088.6564                   23724087.9264
 -45027084.19648 -35069562.23646  20950739.4224                   20950735.4224
 11  8 19  1 39 30.0000000  0  8G12G30G10G05G04G25G29G02
 -31110764.45948 -24226463.77346  20959401.6644                   20959399.3204
 -12711342.14747  -9884443.23545  21855828.0314                   21855826.6684
 -32412570.25647 -25241419.41545  22287834.9694                   22287832.7584
 -29365976.15848 -22866642.49047  20466203.5704                   20466201.2584
 -41387152.35146 -32232598.10443  24149417.2114                   24149416.3874
 -12347289.50448  -9601394.54846  22080399.1094                   22080399.0124
   6400136.06947   5003941.48544  23995411.6024                   23995410.4844
 -43488518.17748 -33870679.62446  21243518.7344                   21243514.7274
 11  8 19  1 40  0.0000000  0  8G12G30G10G05G04G25G29G02
 -31156933.48948 -24262439.64046  20950615.7814                   20950613.4844
 -12807540.92247  -9959403.29645  21837522.6334                   21837520.6564
 -32397294.17947 -25229515.98245  22290741.5704                   22290739.9774
 -29451895.86248 -22933592.87847  20449853.7114                   20449851.5314
 -41373692.53846 -32222109.97143  24151979.1884                   24151977.1174
 -12459493.84348  -9688826.48646  22059047.2274                   22059047.0744
   6250481.07847   4887327.17244  23966932.5164                   23966932.2194
 -43525251.10648 -33899302.69546  21236528.3204                   21236524.3554
 11  8 19  1 40 30.0000000  0  8G12G30G10G05G04G25G29G02
 -31202538.02448 -24297975.63846  20941937.5634                   20941935.3134
 -12903149.57547 -10033903.52245  21819328.4064                   21819326.9804
 -32381636.22147 -25217314.97645  22293720.9224                   22293719.4104
 -29537244.95248 -23000098.63447  20433612.3444                   20433609.9844
 -41360289.20546 -32211665.79443  24154528.8364                   24154528.6454
 -12571174.52348  -9775850.37046  22037795.1954                   22037794.7114
   6100781.46247   4770678.12744  23938445.3754                   23938445.1294
 -43561864.93848 -33927832.96146  21229561.0314                   21229556.2974
 11  8 19  1 41  0.0000000  0  8G12G30G10G05G04G25G29G02
 -31247578.43948 -24333072.07046  20933367.0554                   20933364.5864
 -12998166.74847 -10107942.84645  21801246.7274                   21801245.3054
 -32365598.61247 -25204818.14845  22296773.0784                   22296770.6994
 -29622022.75848 -23066159.24447  20417479.8284                   20417477.1524
 -41346942.34546 -32201265.68343  24157069.1724                   24157067.8554
 -12682329.48848  -9862464.60646  22016642.8524                   22016642.7894
   5951039.30347   4653995.87944  23909950.6804                   23909950.5274
 -43598359.58947 -33956270.36446  21222616.4844                   21222612.5044
 11  8 19  1 41 30.0000000  0  8G12G30G10G05G04G25G29G02
 -31292055.72848 -24367729.69346  20924903.2034                   20924900.8134
 -13092591.80248 -10181520.77145  21783278.6484                   21783276.5864
 -32349184.39747 -25192027.84545  22299896.8204                   22299894.4264
 -29706228.98048 -23131774.45747  20401455.7344                   20401453.1644
 -41333652.58346 -32190909.98343  24159597.9774                   24159597.3754
 -12792957.27148  -9948668.05546  21995590.7664                   21995591.0434
   5801255.56847   4537281.27044  23881448.6094                   23881447.1884
 -43634736.03448 -33984615.64846  21215694.2584                   21215689.9304
 11  8 19  1 42  0.0000000  0  8G12G30G10G05G04G25G29G02
 -31335970.37348 -24401948.89046  20916546.6724                   20916544.1374
 -13186423.40748 -10254636.28345  21765423.0084                   21765421.2114
 -32332395.82747 -25178945.85345  22303090.8364                   22303089.2424
 -29789863.26948 -23196944.00547  20385540.5704                   20385538.2584
 -41320419.91747 -32180598.87243  24162115.7974                   24162116.0164
 -12903055.89648 -10034459.15046  21974640.2424                   21974640.7154
   5651431.36147   4420535.14244  23852937.7584                   23852936.9184
 -43670994.41848 -34012868.94346  21208794.6644                   21208789.8484
 11  8 19  1 42 30.0000000  0  8G12G30G10G05G04G25G29G02
 -31379323.89948 -24435730.86246  20908296.6254                   20908293.6684
 -13279661.52248 -10327289.33746  21747680.6954                   21747678.7074
 -32315236.35747 -25165574.82944  22306356.8054                   22306354.3134
 -29872926.00048 -23261668.18847  20369734.2894                   20369731.8554
 -41307245.19747 -32170332.84543  24164622.8284                   24164622.0204
 -13012624.58248 -10119837.32046  21953790.1334                   21953790.0084
   5501567.53147   4303758.15544  23824418.9384                   23824418.0904
 -43707136.53148 -34041031.64746  21201917.1644                   21201912.7424
 11  8 19  1 43  0.0000000  0  8G12G30G10G05G04G25G29G02
 -31422116.33448 -24469075.61046  20900153.3984                   20900150.5744
 -13372304.73248 -10399478.84246  21730051.1254                   21730049.8984
 -32297708.15747 -25151916.47745  22309692.4454                   22309690.1954
 -29955416.43348 -23325946.43547  20354036.8204                   20354034.4884
 -41294128.25146 -32160111.81843  24167119.2424                   24167118.3754
 -13121661.10548 -10204800.80746  21933041.0084                   21933041.3284
   5351665.71446   4186951.58944  23795894.6414                   23795892.6764
 -43743162.23648 -34069103.63046  21195061.6804                   21195057.3714
 11  8 19  1 43 30.0000000  0  8G12G30G10G05G04G25G29G02
 -31464345.85448 -24501981.73146  20892117.5634                   20892114.6914
 -13464349.29948 -10471201.87245  21712535.6414                   21712534.1294
 -32279811.09847 -25137970.73345  22313097.9924                   22313095.8874
 -30037331.46548 -23389776.30947  20338449.0704                   20338446.0314
 -41281066.51646 -32149933.85543  24169604.1954                   24169603.6024
 -13230161.09448 -10289346.22346  21912393.7344                   21912394.0204
   5201729.96446   4070118.54744  23767362.1884                   23767360.6844
 -43779068.81047 -34097082.78846  21188228.7664                   21188225.0944
 11  8 19  1 44  0.0000000  0  8G12G30G10G05G04G25G29G02
 -31506014.31348 -24534450.66846  20884187.8984                   20884185.2894
 -13555795.64648 -10542458.76046  21695134.2664                   21695132.0594
 -32261549.01247 -25123740.51545  22316574.0314                   22316571.3794
 -30118672.00648 -23453158.52347  20322970.5554                   20322967.9884
 -41268061.57846 -32139800.15743  24172079.1254                   24172079.1644
 -13338124.15248 -10373473.25446  21891849.3054                   21891849.7344
   5051760.31746   3953259.08644  23738823.6564                   23738823.6094
 -43814858.49747 -34124970.86746  21181418.0944                   21181413.8014
 11  8 19  1 44 30.0000000  0  8G12G30G10G05G04G25G29G02
 -31547125.42448 -24566485.28646  20876365.0004                   20876361.7074
 -13646645.49348 -10613250.82045  21677845.4384                   21677843.6994
 -32242927.14947 -25109229.99545  22320117.2734                   22320114.6844
 -30199440.52848 -23516095.02547  20307600.4534                   20307598.1094
 -41255116.16946 -32129712.76843  24174541.8914                   24174542.5864
 -13445551.31948 -10457182.70346  21871406.5864                   21871406.8164
   4901755.63246   3836372.37544  23710278.8754                   23710278.3364
 -43850534.32747 -34152770.21646  21174629.4844                   21174625.5204
 11  8 19  1 45  0.0000000  0  8G12G30G10G05G04G25G29G02
 -31587678.74048 -24598085.28646  20868647.8754                   20868645.3834
 -13736896.94048 -10683576.62446  21660671.1334                   21660669.0784
 -32223946.96447 -25094440.25345  22323728.4844                   22323726.3444
 -30279635.35548 -23578584.48247  20292339.9384                   20292337.1764
 -41242229.32146 -32119671.10843  24176994.1334                   24176993.6684
 -13552439.86848 -10540472.46446  21851065.9774                   21851066.6054
   4751718.52846   3719460.38044  23681727.3364                   23681726.8794
 -43886095.61148 -34180480.31246  21167862.4694                   21167857.6564
 11  8 19  1 45 30.0000000  0  8G12G30G10G05G04G25G29G02
 -31627674.43148 -24629250.75146  20861036.9064                   20861034.1134
 -13826548.78748 -10753435.20945  21643611.0554                   21643609.5554
 -32204610.50847 -25079372.90145  22327408.3134                   22327406.7034
 -30359255.80648 -23640626.36847  20277188.5394                   20277186.0084
 -41229401.00246 -32109674.96143  24179436.6024                   24179435.5434
 -13658787.77748 -10623340.94046  21830828.7114                   21830829.1994
   4601650.60347   3602524.39844  23653171.0474                   23653169.9694
 -43921542.28448 -34208101.09946  21161117.3204                   21161112.2974
 11  8 19  1 46  0.0000000  0  8G12G30G10G05G04G25G29G02
 -31667114.43348 -24659983.21546  20853531.8054                   20853528.8554
 -13915600.91048 -10822826.47545  21626665.3054                   21626663.4694
 -32184921.06147 -25064030.46944  22331155.0164                   22331153.3634
 -30438302.49248 -23702221.17047  20262146.8134                   20262144.0594
 -41216631.84446 -32099725.00143  24181866.0784                   24181865.5904
 -13764594.23648 -10705787.51546  21810694.5704                   21810695.2114
   4451552.71647   3485565.07144  23624608.3284                   23624607.0234
 -43956875.61848 -34235633.56446  21154393.1414                   21154388.5394
 11  8 19  1 46 30.0000000  0  8G12G30G10G05G04G25G29G02
 -31706006.84248 -24690288.98246  20846130.9924                   20846127.7934
 -14004060.02148 -10891755.65646  21609832.3204                   21609830.5314
 -32164888.92447 -25048421.01044  22334966.8754                   22334964.8134
 -30516782.58748 -23763374.46447  20247212.3444                   20247210.1644
 -41203929.39946 -32089826.97043  24184283.7664                   24184283.6564
 -13869865.09748 -10787816.75646  21790662.3444                   21790662.3484
   4301418.61347   3368577.52144  23596039.2034                   23596037.3014
 -43992103.73048 -34263084.03546  21147689.6024                   21147685.3954
 11  8 19  1 47  0.0000000  0  8G12G30G10G05G04G25G29G02
 -31744348.20348 -24720165.37046  20838834.3834                   20838831.6884
 -14091920.91948 -10960218.67545  21593112.4614                   21593111.3324
 -32144512.16747 -25032543.04345  22338844.1954                   22338842.9344
 -30594692.08048 -23824083.14247  20232386.6334                   20232383.9414
 -41191289.82346 -32079977.96343  24186688.4144                   24186688.4734
 -13974594.46348 -10869424.02846  21770732.7424                   21770732.8324
   4151254.08847   3251566.25344  23567462.9224                   23567462.2774
 -44027222.14148 -34290449.02246  21141006.8444                   21141002.2974
 11  8 19  1 47 30.0000000  0  8G12G30G10G05G04G25G29G02
 -31782139.39648 -24749613.05646  20831643.2114                   20831640.1054
 -14179182.79348 -11028214.94645  21576507.1334                   21576505.2194
 -32123793.33147 -25016398.50745  22342787.5084                   22342784.9734
 -30672030.18648 -23884346.57747  20217669.6884                   20217667.4534
 -41178712.43346 -32070177.48143  24189081.3364                   24189082.0904
 -14078780.73748 -10950608.13346  21750906.8444                   21750907.4224
   4001060.80047   3134532.59644  23538882.4224                   23538882.0434
 -44062231.40147 -34317728.95946  21134344.6094                   21134340.2504
 11  8 19  1 48  0.0000000  0  8G12G30G10G05G04G25G29G02
 -31819383.05848 -24778634.08946  20824556.1564                   20824553.1414
 -14265846.95948 -11095745.45945  21560015.4774                   21560013.9414
 -32102737.11747 -24999991.05745  22346794.2274                   22346792.3404
 -30748798.80748 -23944166.25947  20203061.1414                   20203058.6294
 -41166200.05046 -32060427.57243  24191463.0784                   24191462.2704
 -14182424.47448 -11031369.46446  21731184.2814                   21731183.7034
   3850838.27347   3017476.10944  23510295.3134                   23510294.4884
 -44097133.93648 -34344925.73546  21127703.0084                   21127698.6564
 11  8 19  1 48 30.0000000  0  9G12G30G26G10G05G04G25G29G02
 -31856079.26148 -24807228.52346  20817572.8674                   20817570.4694
 -14351911.45148 -11162808.69546  21543637.8594                   21543635.5314
  13943244.43657  10883066.51253  24728381.3524                   24728380.4414
 -32081344.68947 -24983321.67845  22350865.7034                   22350863.6174
 -30824996.33248 -24003540.92147  20188561.0784                   20188558.4104
 -41153751.06046 -32050727.09543  24193832.2114                   24193831.3404
 -14285522.81948 -11111705.83646  21711565.3834                   21711565.6414
   3700589.26347   2900399.02544  23481704.2194                   23481703.7854
 -44131929.00248 -34372038.75646  21121081.4304                   21121077.0394
 11  8 19  1 49  0.0000000  0  9G12G30G26G10G05G04G25G29G02
 -31892237.19748 -24835403.53846  20810692.1954                   20810689.8164
 -14437384.11448 -11229410.77646  21527373.1094                   21527370.9184
  13783887.63246  10758892.49543  24698056.4224                   24698055.2234
 -32059627.21346 -24966399.00144  22354997.6254                   22354995.7974
 -30900631.63948 -24062477.50847  20174168.0944                   20174165.4734
 -41141374.01046 -32041082.67843  24196187.1174                   24196186.9964
 -14388082.82248 -11191622.70346  21692048.8914                   21692048.1564
   3550306.48847   2783295.61544  23453106.5084                   23453105.3444
 -44166625.20348 -34399074.74746  21114479.2424                   21114474.7154
 11  8 19  1 49 30.0000000  0  9G12G30G26G10G05G04G25G29G02
 -31927861.06248 -24863162.38746  20803913.5944                   20803911.1524
 -14522267.24248 -11295553.45145  21511220.3594                   21511218.3914
  13624380.82546  10634601.58043  24667704.2664                   24667701.5004
 -32037590.26847 -24949227.37644  22359191.5234                   22359189.0944
 -30975707.28048 -24120977.98347  20159882.1484                   20159879.4844
 -41129071.96246 -32031496.71443  24198528.7504                   24198528.1374
 -14490105.96248 -11271121.24946  21672634.4224                   21672634.3634
   3399988.85947   2666165.03844  23424501.8914                   23424500.8594
 -44201225.94748 -34426036.35046  21107894.9774                   21107890.3484
 11  8 19  1 50  0.0000000  0  9G12G30G26G10G05G04G25G29G02
 -31962949.06548 -24890503.68746  20797236.1644                   20797233.4574
 -14606557.41348 -11361234.08845  21495180.3754                   21495178.6374
  13464730.11246  10510198.51642  24637322.7664                   24637320.4654
 -32015233.75347 -24931806.73544  22363445.3204                   22363443.4924
 -31050220.65248 -24179040.33547  20145702.0394                   20145699.7304
 -41116842.08646 -32021966.90243  24200855.8984                   24200855.3094
 -14591588.04248 -11350198.16646  21653322.7734                   21653322.8714
   3249640.40847   2549010.46744  23395891.2274                   23395889.3674
 -44235728.73448 -34452921.62046  21101329.0944                   21101324.7194
 11  8 19  1 50 30.0000000  0  9G12G30G26G10G05G04G25G29G02
 -31997499.42248 -24917426.04246  20790661.4534                   20790658.6844
 -14690251.59948 -11426450.30846  21479253.9384                   21479252.3014
  13304941.24546  10385687.79742  24606915.4224                   24606912.8714
 -31992557.77147 -24914137.18544  22367760.6954                   22367758.8754
 -31124169.01348 -24236662.41047  20131630.2504                   20131627.4264
 -41104682.03046 -32012491.57143  24203169.9774                   24203170.2894
 -14692525.17548 -11428850.45946  21634115.2664                   21634115.3324
   3099265.01047   2431834.89344  23367275.9924                   23367274.3444
 -44270131.45348 -34479728.92546  21094782.5784                   21094778.0824
 11  8 19  1 51  0.0000000  0  9G12G30G26G10G05G04G25G29G02
 -30456090.52848 -23716328.20546  21083981.8204                   21083979.3984
 -13197924.72948 -10263598.17445  21763234.5634                   21763232.2344
  14720444.28245  11488677.19542  24876277.2034                   24876275.6844
 -30394143.83247 -23668619.84244  22671928.5474                   22671926.9264
 -29622128.29548 -23066241.06847  20417459.1254                   20417456.3834
 -39517170.57446 -30775469.66343  24505262.4224                   24505262.9734
 -13217490.94148 -10279473.11646  21914805.2734                   21914805.2344
   4524291.51047   3542245.23144  23638449.3984                   23638448.9804
 -42729011.76248 -33278856.42346  21388047.9064                   21388043.3244
 11  8 19  1 51 30.0000000  0  9G12G30G26G10G05G04G25G29G02
 -30489560.87248 -23742409.00446  21077612.8524                   21077610.0394
 -13280417.21748 -10327878.01246  21747536.5864                   21747534.4144
  14560396.48345  11363964.79742  24845819.6804                   24845818.4804
 -30370828.18646 -23650451.84544  22676365.1024                   22676363.8444
 -29694938.70448 -23122976.43447  20403603.7584                   20403601.0554
 -39505142.09746 -30766096.86943  24507552.7114                   24507551.7584
 -13317326.01648 -10357266.64346  21895807.0704                   21895807.1054
   4373875.76447   3425038.21944  23609826.8284                   23609826.2624
 -42763207.22448 -33305502.22646  21381540.4454                   21381536.2974
 11  8 19  1 52  0.0000000  0  9G12G30G26G10G05G04G25G29G02
 -30522496.19748 -23768072.89346  21071345.4774                   21071342.8554
 -13362311.21148 -10391691.47946  21731952.3364                   21731949.8324
  14400220.96145  11239152.84042  24815339.5704                   24815338.7194
 -30347199.64247 -23632040.05545  22680861.6644                   22680860.2154
 -29767183.29448 -23179270.90647  20389856.0704                   20389854.3404
 -39493182.54546 -30756777.74043  24509828.0164                   24509828.4694
 -13416611.15848 -10434631.66146  21876913.5394                   21876913.4144
   4223438.93147   3307814.74444  23581199.1254                   23581198.1054
 -42797302.79248 -33332070.17946  21375052.2734                   21375047.9614
 11  8 19  1 52 30.0000000  0  9G12G30G26G10G05G04G25G29G02
 -30554894.14948 -23793318.06446  21065179.8524                   21065177.7974
 -13443603.10948 -10455035.78046  21716482.8524                   21716480.9024
  14239923.76655  11114246.09852  24784835.2734                   24784834.5084
 -30323257.65947 -23613384.01344  22685417.9694                   22685416.2934
 -29838858.96248 -23235122.06447  20376216.6414                   20376213.9534
 -39481288.65946 -30747509.74243  24512091.2344                   24512090.2464
 -13515341.88747 -10511564.65746  21858125.4534                   21858125.5164
   4072985.76147   3190578.58544  23552568.3594                   23552567.5514
 -42831295.54248 -33358558.01546  21368583.7194                   21368579.8164
 11  8 19  1 53  0.0000000  0  9G12G30G26G10G05G04G25G29G02
 -30586756.12648 -23818145.58846  21059117.4844                   21059114.5124
 -13524292.32348 -10517910.44746  21701128.6334                   21701126.3484
  14079508.30845  10989247.19643  24754309.9614                   24754309.4414
 -30299004.78347 -23594485.70544  22690033.1334                   22690031.1094
 -29909965.86148 -23290530.02547  20362685.5784                   20362682.8754
 -39469460.45646 -30738292.95043  24514341.7274                   24514340.6334
 -13613516.92748 -10588064.64846  21839443.3284                   21839443.7974
   3922517.87347   3073330.93044  23523935.9774                   23523933.8794
 -42865185.78548 -33384965.97146  21362135.0234                   21362130.6414
 11  8 19  1 53 30.0000000  0  9G12G30G26G10G05G04G25G29G02
 -30618083.67648 -23842556.67246  21053155.5554                   21053152.9574
 -13604379.11948 -10580315.72445  21685888.7664                   21685886.2624
  13918977.49846  10864158.39043  24723762.2424                   24723762.4344
 -30274444.45446 -23575347.76744  22694707.0554                   22694704.4454
 -29980504.75148 -23345495.37247  20349262.4614                   20349259.9224
 -39457698.66446 -30729127.93443  24516579.6804                   24516578.9924
 -13711135.51148 -10664131.03846  21820867.3984                   21820867.5784
   3772036.16047   2956072.46945  23495300.4454                   23495298.5274
 -42898974.26948 -33411294.63646  21355704.8134                   21355700.7114
 11  8 19  1 54  0.0000000  0  9G12G30G26G10G05G04G25G29G02
 -30648880.12648 -23866553.91346  21047295.6254                   21047292.3054
 -13683865.20548 -10642252.90346  21670762.7584                   21670760.4614
  13758332.38146  10738980.47643  24693192.4064                   24693191.2774
 -30249581.14746 -23555973.78344  22699437.8984                   22699436.2854
 -30050477.67448 -23400019.69947  20335947.0554                   20335944.2074
 -39446005.09646 -30720016.01242  24518805.3284                   24518804.4804
 -13808198.50048 -10739764.50746  21802397.0864                   21802396.1684
   3621540.25347   2838802.96845  23466661.6954                   23466660.9804
 -42932663.48448 -33437545.95146  21349294.2424                   21349289.8594
 11  8 19  1 54 30.0000000  0  9G12G30G26G10G05G04G25G29G02
 -30679148.24748 -23890139.46546  21041535.5234                   21041532.4804
 -13762751.94648 -10703723.06246  21655751.1884                   21655748.8054
  13597574.00546  10613714.34543  24662600.6094                   24662600.7344
 -30224419.52147 -23536367.34844  22704226.3364                   22704224.5314
 -30119886.64848 -23454104.60947  20322738.4844                   20322735.9884
 -39434381.71646 -30710958.82543  24521017.1484                   24521016.3364
 -13904706.60548 -10814965.60546  21784031.8284                   21784031.4734
   3471029.80346   2721522.11145  23438020.3524                   23438019.1914
 -42966255.33948 -33463721.42446  21342901.8444                   21342897.3484
 11  8 19  1 55  0.0000000  0  9G12G30G26G10G05G04G25G29G02
 -30708888.94748 -23913314.04446  21035876.2814                   21035873.3444
 -13841038.35648 -10764725.42845  21640853.3674                   21640851.0554
  13436706.72646  10488363.35844  24631989.4844                   24631988.0044
 -30198961.19947 -23516529.70444  22709071.4924                   22709069.0594
 -30188730.82748 -23507749.39447  20309638.2584                   20309635.6684
 -39422827.62646 -30701955.72443  24523215.7114                   24523214.9884
 -14000657.79448 -10889732.72846  21765772.9844                   21765772.8634
   3320507.29547   2604231.88044  23409376.3524                   23409375.9774
 -42999749.63548 -33489820.86646  21336528.2974                   21336523.1454
 11  8 19  1 55 30.0000000  0  9G12G30G26G10G05G04G25G29G02
 -30738099.86048 -23936075.80846  21030317.3284                   21030314.3094
 -13918720.21648 -10825256.74046  21626071.4144                   21626069.5984
  13275737.44246  10362932.87443  24601357.7034                   24601356.8134
 -30173205.12647 -23496460.05444  22713972.0474                   22713969.8014
 -30257007.00048 -23560951.59647  20296645.6024                   20296643.0084
 -39411339.07446 -30693003.56543  24525401.8134                   24525402.2774
 -14096047.10248 -10964062.03946  21747620.7344                   21747621.1174
   3169978.01947   2486936.36045  23380731.8674                   23380731.2464
 -43033142.88947 -33515841.56346  21330173.3054                   21330168.8484
 11  8 19  1 56  0.0000000  0  9G12G30G26G10G05G04G25G29G02
 -30766786.74448 -23958429.24046  21024858.4924                   21024855.6484
 -13995802.42148 -10885320.76946  21611403.2894                   21611400.5514
  13114664.34346  10237421.47543  24570706.2274                   24570705.4104
 -30147158.67647 -23476164.12344  22718928.4694                   22718926.4574
 -30324720.43848 -23613715.29647  20283759.9844                   20283757.5784
 -39399920.96646 -30684106.33543  24527575.0554                   24527573.9104
 -14190878.41947 -11037956.55346  21729575.1724                   21729575.3984
   3019438.88747   2369633.15944  23352085.6644                   23352084.1844
 -43066439.97447 -33541787.33646  21323837.5474                   21323832.7774
 11  8 19  1 56 30.0000000  0  9G12G30G26G10G05G04G25G29G02
 -30794951.07148 -23980375.47246  21019499.1094                   21019495.8794
 -14072284.57048 -10944917.23446  21596849.2734                   21596847.6374
  12953490.95246  10111831.91043  24540035.2974                   24540034.9574
 -30120824.48447 -23455643.99644  22723940.1644                   22723938.0044
 -30391871.09448 -23666040.46447  20270981.8674                   20270979.1024
 -39388573.21846 -30675263.91143  24529735.3594                   24529733.9454
 -14285150.59548 -11111415.36446  21711635.6334                   21711635.5124
   2868891.49247   2252323.51644  23323437.0084                   23323436.4384
 -43099641.44747 -33567658.60446  21317519.3134                   21317515.1214
 11  8 19  1 57  0.0000000  0  9G12G30G26G10G05G04G25G29G02
 -30822594.44848 -24001915.77446  21014238.4774                   21014235.5784
 -14148166.99548 -11004046.38846  21582408.5704                   21582407.4534
  12792219.95846   9986166.28143  24509346.4144                   24509345.3754
 -30094205.91847 -23434902.26544  22729004.9614                   22729003.5554
 -30458459.84648 -23717927.78747  20258310.7114                   20258307.9024
 -39377296.32746 -30666476.68043  24531880.5474                   24531880.2664
 -14378863.02048 -11184438.02946  21693802.5784                   21693803.5594
   2718337.07147   2135008.39844  23294787.4694                   23294786.3834
 -43132747.77748 -33593455.72846  21311219.4384                   21311214.9454
 11  8 19  1 57 30.0000000  0  9G12G30G26G10G05G04G25G29G02
 -30849715.42248 -24023049.00446  21009077.8914                   21009074.5354
 -14223446.54148 -11062705.77046  21568083.2424                   21568082.2584
  12630857.49346   9860429.27843  24478640.8134                   24478638.1484
 -30067302.34447 -23413938.44444  22734124.9144                   22734122.4844
 -30524484.21348 -23769375.33047  20245746.5704                   20245743.6374
 -39366087.18146 -30657742.33443  24534013.0554                   24534012.8554
 -14472011.73148 -11257021.41846  21676077.0314                   21676077.2974
   2567779.97747   2017691.22444  23266136.8914                   23266136.0004
 -43165756.53448 -33619176.82046  21304937.5944                   21304933.2624
 11  8 19  1 58  0.0000000  0  9G12G30G26G10G05G04G25G29G02
 -30876318.76248 -24043778.88646  21004014.9844                   21004012.2384
 -14298126.15048 -11120897.67946  21553872.4924                   21553870.6024
  12469404.12946   9734621.58943  24447916.7814                   24447915.7774
 -30040119.12047 -23392756.73344  22739297.8054                   22739296.1524
 -30589947.47648 -23820385.65947  20233289.3364                   20233286.5474
 -39354948.59946 -30649062.96643  24536133.1334                   24536131.5944
 -14564598.62447 -11329167.05546  21658458.2814                   21658458.5314
   2417219.05846   1900371.02244  23237486.4534                   23237485.5984
 -43198670.91347 -33644824.38346  21298674.7274                   21298670.4924
 11  8 19  1 58 30.0000000  0  9G12G30G26G10G05G04G25G29G02
 -30902406.84548 -24064107.26746  20999050.9224                   20999047.9414
 -14372206.78648 -11178622.85946  21539775.6414                   21539774.0824
  12307861.83746   9608744.49543  24417176.1644                   24417174.9534
 -30012660.44847 -23371360.40044  22744522.9454                   22744521.8164
 -30654851.23747 -23870960.01147  20220938.1724                   20220935.7544
 -39343881.87946 -30640439.46743  24538237.6174                   24538238.3874
 -14656623.96148 -11400875.10446  21640946.3914                   21640947.1054
   2266654.94347   1783048.38745  23208835.1644                   23208834.6764
 -43231492.04147 -33670399.28646  21292429.0004                   21292424.6374
 11  8 19  1 59  0.0000000  0  9G12G30G26G10G05G04G25G29G02
 -30927979.85448 -24084034.30246  20994184.5234                   20994181.4024
 -14445687.53348 -11235880.59746  21525792.6414                   21525791.0004
  12146234.76346   9482801.44943  24386420.5084                   24386419.4844
 -29984928.03446 -23349750.74344  22749800.8284                   22749797.5594
 -30719194.94247 -23921097.94947  20208694.1414                   20208691.3524
 -39332885.99146 -30631871.26642  24540330.8364                   24540330.2274
 -14748085.85747 -11472144.12246  21623542.1414                   21623542.1884
   2116090.16347   1665725.19545  23180184.0864                   23180182.9454
 -43264219.48147 -33695901.20546  21286200.9534                   21286196.3674
 11  8 19  1 59 30.0000000  0  9G12G30G26G10G05G04G25G29G02
 -30953041.40148 -24103562.78146  20989415.3834                   20989413.1954
 -14518570.12248 -11292672.24546  21511923.7194                   21511922.0784
  11984524.49646   9356793.52443  24355647.0084                   24355647.3594
 -29956926.11846 -23327931.06344  22755129.3444                   22755127.2974
 -30782981.00447 -23970801.36547  20196556.0784                   20196553.6254
 -39321962.81846 -30623359.69542  24542409.7194                   24542408.4694
 -14838985.19848 -11542974.77946  21606244.7274                   21606244.5594
   1965524.13346   1548401.03644  23151531.6024                   23151530.7624
 -43296855.46747 -33721331.83246  21279990.6564                   21279986.1134
 11  8 19  2  0  0.0000000  0  9G12G30G26G10G05G04G25G29G02
 -30977590.83448 -24122692.22146  20984743.9144                   20984740.9024
 -14590852.50948 -11348996.18346  21498168.8054                   21498167.6844
  11822736.40246   9230724.91143  24324860.9144                   24324859.8284
 -29928655.37246 -23305901.93044  22760508.9774                   22760506.9304
 -30846207.63548 -24020068.86147  20184524.7194                   20184521.9344
 -39311110.08746 -30614903.03743  24544475.8834                   24544474.4614
 -14929318.97648 -11613364.74546  21589054.4694                   21589054.5904
   1814961.15046   1431079.27044  23122880.3754                   23122879.7894
 -43329397.90347 -33746689.57146  21273797.8674                   21273793.5704
 11  8 19  2  0 30.0000000  0  9G12G30G26G10G05G04G25G29G02
 -31001634.77848 -24141427.76546  20980168.3524                   20980165.3914
 -14662539.86548 -11404856.47346  21484526.9224                   21484525.7114
  11660868.72846   9104594.37343  24294056.9384                   24294056.6484
 -29900123.87946 -23283669.62944  22765937.7344                   22765936.0354
 -30908880.37348 -24068904.75347  20172598.2034                   20172595.4694
 -39300332.89646 -30606505.21942  24546526.8834                   24546524.6644
 -15019091.44748 -11683317.32546  21571971.4304                   21571971.8324
   1664397.68446   1313757.14244  23094229.2114                   23094228.0474
 -43361852.16048 -33771978.59546  21267622.3054                   21267617.7074
 11  8 19  2  1  0.0000000  0  9G12G30G26G10G05G04G25G29G02
 -31025172.39748 -24159768.77246  20975689.3364                   20975686.3134
 -14733629.68748 -11460251.14846  21470999.4304                   21470998.2704
  11498927.12246   8978406.18143  24263241.4774                   24263239.6414
 -29871331.54646 -23261234.02944  22771417.2114                   22771414.7424
 -30970997.29348 -24117307.54447  20160777.7114                   20160775.1764
 -39289628.63756 -30598164.22352  24548562.4304                   24548562.2154
 -15108299.31448 -11752829.94946  21554996.1334                   21554996.0704
   1513837.64946   1196437.71244  23065578.6724                   23065577.2194
 -43394216.25947 -33797197.37846  21261463.8444                   21261458.5434
 11  8 19  2  1 30.0000000  0  9G12G30G26G10G05G04G25G29G02
 -31048205.26048 -24177716.45646  20971306.2974                   20971303.4064
 -14804122.18948 -11515180.38046  21457584.7034                   21457583.4964
  11336915.11746   8852163.20843  24232410.5944                   24232410.2854
 -29842281.14746 -23238597.41344  22776944.7734                   22776943.0434
 -31032559.28848 -24165277.91547  20149062.6954                   20149059.7854
 -39278997.16846 -30589879.89842  24550585.2974                   24550584.6524
 -15196941.80948 -11821902.02946  21538127.8284                   21538127.9494
   1363283.03146   1079122.49445  23036929.3754                   23036927.6024
 -43426490.30547 -33822345.98946  21255322.0394                   21255317.6914
 11  8 19  2  2  0.0000000  0  8G12G30G26G10G05G25G29G02
 -31070736.00448 -24195272.87946  20967018.6954                   20967015.8404
 -14874018.58748 -11569645.11946  21444283.9534                   21444282.9224
  11174834.87546   8725867.11543  24201568.2974                   24201567.1484
 -29812976.34047 -23215762.48444  22782521.2814                   22782519.5664
 -31093567.98947 -24212817.15047  20137453.1884                   20137450.3914
 -15285019.29648 -11890533.82546  21521367.1644                   21521367.5274
   1212734.13347    961811.72745  23008280.7664                   23008279.3204
 -43458675.69447 -33847425.51146  21249197.6024                   21249193.2814
 11  8 19  2  2 30.0000000  0  8G12G30G26G10G05G25G29G02
 -29517343.63048 -22984837.26446  21262619.4224                   21262616.4494
 -13367894.52048 -10396041.94545  21730889.9144                   21730887.8914
  12588117.18446   9827126.07843  24470506.2344                   24470504.7234
 -28207998.75246 -21965130.61744  23087938.2114                   23087937.0664
 -29578599.82548 -23032322.46747  20425742.1724                   20425739.5394
 -13797105.87048 -10731120.76846  21804507.9304                   21804507.6994
   2637619.78747   2072112.27845  23279427.4534                   23279425.1884
 -41915349.30047 -32644833.51946  21542882.7344                   21542878.4844
 11  8 19  2  3  0.0000000  0  8G12G30G26G10G05G25G29G02
 -29538864.17748 -23001606.51646  21258524.1644                   21258521.4144
 -13436588.33848 -10449569.60046  21717818.0944                   21717816.4144
  12425921.17046   9700739.76343  24439641.5004                   24439639.5044
 -28178182.36146 -21941897.08844  23093612.6954                   23093610.8984
 -29638492.86448 -23078992.36047  20414344.7504                   20414342.1374
 -13884040.13948 -10798861.76046  21787964.5234                   21787964.7624
   2487098.49747   1954823.02145  23250783.9774                   23250782.4344
 -41947347.04948 -32669766.82046  21536793.8674                   21536789.4224
 11  8 19  2  3 30.0000000  0  8G12G30G26G10G05G25G29G02
 -29559881.40448 -23017983.57546  21254524.2814                   21254521.5824
 -13504679.86648 -10502627.93946  21704860.4694                   21704858.9534
  12263673.66746   9574313.10943  24408767.2814                   24408764.3754
 -28148112.58646 -21918466.09444  23099334.5704                   23099332.9264
 -29697827.74248 -23125227.31247  20403053.7034                   20403051.0164
 -13970400.42548 -10866155.48046  21771530.6174                   21771530.9264
   2336594.98247   1837547.60745  23222143.2424                   23222142.4884
 -41979250.05448 -32694626.29646  21530722.5164                   21530718.1024
 11  8 19  2  4  0.0000000  0  8G12G30G26G10G05G25G29G02
 -29580397.50148 -23033970.14146  21250620.7664                   21250617.8284
 -13572170.43648 -10555217.98646  21692017.6254                   21692016.2344
  12101376.90347   9447848.19943  24377883.1254                   24377881.5394
 -28117793.24046 -21894840.63844  23105104.3594                   23105102.0234
 -29756605.89448 -23171028.45047  20391868.7274                   20391865.7814
 -14056187.15148 -10933002.27246  21755206.1414                   21755206.2734
   2186109.95847   1720286.59645  23193507.8134                   23193505.8714
 -42011059.57148 -32719412.92346  21524669.6254                   21524665.0664
 11  8 19  2  4 30.0000000  0  8G12G30G26G10G05G25G29G02
 -29600419.41748 -23049571.64446  21246810.6724                   21246807.8244
 -13639065.88848 -10607344.29746  21679287.3524                   21679286.0634
  11939028.80447   9321343.25143  24346988.9144                   24346988.1844
 -28087232.50946 -21871027.09744  23110919.7424                   23110917.7464
 -29814833.89948 -23216400.90747  20380787.8754                   20380785.5274
 -14141405.28048 -10999405.99046  21738989.7424                   21738989.7234
   2035639.39847   1603036.85345  23164873.8204                   23164872.4574
 -42042781.45848 -32744131.28346  21518632.7814                   21518628.6414
 11  8 19  2  5  0.0000000  0  8G12G30G26G10G05G25G29G02
 -29619953.46748 -23064792.98346  21243093.6024                   21243090.6134
 -13705370.45447 -10659010.18446  21666670.2894                   21666667.8754
  11776628.93647   9194797.92843  24316084.9534                   24316084.2974
 -28056437.02646 -21847030.63544  23116779.8204                   23116777.9614
 -29872516.60648 -23261348.44747  20369811.7344                   20369809.0474
 -14226058.03648 -11065369.16746  21722881.0234                   21722880.2584
   1885181.10547   1485796.68545  23136242.7034                   23136240.9924
 -42074419.59948 -32768784.37846  21512612.7274                   21512608.0664
 11  8 19  2  5 30.0000000  0  8G12G30G26G10G05G25G29G02
 -29638997.69748 -23079632.64046  21239469.4534                   21239466.8054
 -13771081.31948 -10710213.44546  21654165.8204                   21654164.1024
  11614183.71147   9068217.33743  24285172.7274                   24285171.3404
 -28025406.42946 -21822850.96744  23122684.8284                   23122682.9064
 -29929651.16848 -23305868.86347  20358939.2034                   20358936.6564
 -14310141.69948 -11130888.88546  21706880.0944                   21706879.7114
   1734740.29447   1368570.13545  23107614.8284                   23107613.0124
 -42105971.06348 -32793369.91746  21506608.2814                   21506604.5314
 11  8 19  2  6  0.0000000  0  8G12G30G26G10G05G25G29G02
 -29657556.38148 -23094093.95046  21235937.7274                   21235935.1374
 -13836200.65547 -10760955.78446  21641773.9614                   21641772.2974
  11451694.56547   8941602.50343  24254252.4304                   24254251.0744
 -27994145.31746 -21798491.67444  23128633.1094                   23128631.9734
 -29986240.42948 -23349964.37147  20348170.4454                   20348168.1604
 -14393657.57648 -11195966.18346  21690987.4924                   21690987.5944
   1584316.82547   1251357.08545  23078989.9144                   23078989.3444
 -42137438.17948 -32817889.73746  21500620.7274                   21500616.0474
 11  8 19  2  6 30.0000000  0  8G12G30G26G10G05G25G29G02
 -29675636.21348 -23108182.13846  21232497.4454                   21232494.4344
 -13900734.30348 -10811241.74146  21629493.9614                   21629491.6564
  11289159.85946   8814952.16444  24223323.2814                   24223321.5944
 -27962661.64346 -21773958.97944  23134624.7114                   23134623.7074
 -30042290.71348 -23393639.88947  20337504.6644                   20337501.8014
 -14476610.50648 -11260604.80746  21675201.9534                   21675202.5514
   1433906.90547   1134154.56445  23050367.2814                   23050367.2734
 -42168826.22448 -32842347.94846  21494647.5704                   21494642.8834
 11  8 19  2  7  0.0000000  0  8G12G30G26G10G05G25G29G02
 -29693238.77848 -23121898.43346  21229147.9844                   21229145.3554
 -13964682.21448 -10861071.26946  21617324.9844                   21617322.9924
  11126583.30246   8688269.23944  24192385.1414                   24192384.7344
 -27930957.42147 -21749254.42644  23140657.8834                   23140656.4454
 -30097802.27648 -23436895.62647  20326941.4534                   20326938.2114
 -14558999.56148 -11324804.04846  21659523.9844                   21659523.9614
   1283513.00347   1016964.55845  23021748.6484                   23021747.8014
 -42200135.02448 -32866744.40946  21488689.6254                   21488684.4844
 11  8 19  2  7 30.0000000  0  8G12G30G26G10G05G25G29G02
 -29710365.49048 -23135243.92846  21225888.8364                   21225885.8634
 -14028044.62447 -10910444.55746  21605267.5864                   21605265.0594
  10963968.50247   8561556.49244  24161440.8914                   24161440.0274
 -27899035.17647 -21724379.98244  23146732.3674                   23146731.1454
 -30152775.68348 -23479732.02747  20316480.0084                   20316476.5124
 -14640823.98348 -11388563.31046  21643953.0474                   21643953.5084
   1133136.88947    899788.37745  22993132.7114                   22993131.7344
 -42231364.56147 -32891079.09946  21482746.8524                   21482741.9454
 11  8 19  2  8  0.0000000  0  8G12G30G26G10G05G25G29G02
 -29727016.70348 -23148218.90146  21222719.8364                   21222717.9414
 -14090820.43647 -10959360.76345  21593321.2194                   21593319.3954
  10801320.55046   8434817.87944  24130490.2584                   24130489.1024
 -27866895.88647 -21699336.39744  23152848.5164                   23152846.5944
 -30207210.43348 -23522148.68647  20306121.3674                   20306118.7894
 -14722081.82848 -11451881.10346  21628490.1174                   21628489.9494
    982782.04947    782628.78545  22964522.1804                   22964520.3244
 -42262513.45547 -32915350.96046  21476819.6414                   21476814.5744
 11  8 19  2  8 30.0000000  0  8G12G30G26G10G05G25G29G02
 -29743195.12648 -23160825.47046  21219641.4144                   21219638.8284
 -14153010.91547 -11007820.86846  21581487.1024                   21581485.0904
  10638641.92947   8308055.40443  24099533.0164                   24099531.7384
 -27834542.84247 -21674126.23544  23159005.1414                   23159002.9344
 -30261107.84348 -23564146.65247  20295865.0314                   20295862.2344
 -14802773.37748 -11514757.61846  21613135.1564                   21613135.3164
    832449.56547    665486.60045  22935914.3204                   22935912.9924
 -42293582.36147 -32939560.47646  21470906.9224                   21470902.8444
 11  8 19  2  9  0.0000000  0  8G12G30G26G10G05G25G29G02
 -29758904.77348 -23173066.76946  21216651.9064                   21216649.3754
 -14214618.99847 -11055827.17546  21569763.8204                   21569761.4264
  10475934.09946   8181270.13543  24068571.1254                   24068569.2274
 -27801981.08647 -21648753.47244  23165201.7114                   23165199.6024
 -30314471.48548 -23605728.69047  20285710.2114                   20285707.2624
 -14882900.62248 -11577194.41546  21597887.1334                   21597887.1484
    682138.83247    548361.37845  22907311.3364                   22907309.0234
 -42324573.98147 -32963709.77446  21465009.3914                   21465005.1684
 11  8 19  2  9 30.0000000  0  8G12G30G26G10G05G25G29G02
 -29774148.13348 -23184944.71546  21213751.2504                   21213749.2934
 -14275645.46748 -11103380.26346  21558150.4924                   21558148.3164
  10313199.94346   8054464.33343  24037602.7504                   24037601.8914
 -27769213.57547 -21623220.39344  23171436.6094                   23171435.1644
 -30367302.78048 -23646895.92147  20275656.7584                   20275654.3014
 -14962463.41648 -11639191.39046  21582747.1954                   21582747.2304
    531851.56347    431254.43545  22878712.7734                   22878710.9184
 -42355488.66648 -32987799.11746  21459126.7034                   21459122.6684
 11  8 19  2 10  0.0000000  0  8G12G30G26G10G05G25G29G02
 -29788925.70648 -23196459.71246  21210939.0394                   21210936.8914
 -14336089.38248 -11150479.42046  21546648.7034                   21546646.7274
  10150444.87646   7927642.33543  24006633.2664                   24006630.3404
 -27736241.48747 -21597527.84944  23177711.4454                   23177709.0984
 -30419600.92448 -23687647.70447  20265704.4614                   20265701.8134
 -15041459.85048 -11700747.03646  21567714.6414                   21567714.5474
    381591.02647    314168.29545  22850118.9614                   22850117.2934
 -42386325.08148 -33011827.48546  21453258.8284                   21453254.5704
 11  8 19  2 10 30.0000000  0  8G12G30G26G10G05G25G29G02
 -29803238.80948 -23207612.79446  21208215.8754                   21208213.4224
 -14395951.23447 -11197125.01446  21535257.2664                   21535255.3714
   9987672.15246   7800806.44043  23975656.5004                   23975656.2704
 -27703067.06747 -21571677.68544  23184024.1724                   23184022.9964
 -30471366.50348 -23727984.50747  20255854.3984                   20255851.8714
 -15119889.42848 -11761860.96846  21552790.0474                   21552790.1954
    231359.20847    197104.56545  22821530.5394                   22821528.7544
 -42417083.19747 -33035794.84546  21447405.3444                   21447401.7344
 11  8 19  2 11  0.0000000  0  8G12G30G26G10G05G25G29G02
 -29817090.67948 -23218406.46346  21205579.3134                   21205577.2734
 -14455232.61747 -11243318.29245  21523976.4064                   21523973.9884
   9824884.61246   7673959.12643  23944680.1804                   23944678.9224
 -27669694.14947 -21545672.85744  23190375.1334                   23190373.1564
 -30522601.61048 -23767907.95147  20246104.3984                   20246101.6484
 -15197753.00548 -11822533.86846  21537973.1804                   21537973.3014
     81157.18347     80064.01145  22792948.0474                   22792946.4884
 -42447764.06647 -33059702.02346  21441567.3134                   21441562.5594
 11  8 19  2 11 30.0000000  0  8G12G30G26G10G05G25G29G02
 -29830484.79048 -23228843.44646  21203030.9454                   21203028.2384
 -14513936.02948 -11289061.20646  21512805.5634                   21512803.4574
   9662083.76846   7547101.39043  23913699.7274                   23913698.7624
 -27636127.04847 -21519516.72444  23196762.3984                   23196760.6254
 -30573309.21448 -23807420.36147  20236455.0394                   20236452.2734
 -15275051.95348 -11882766.80346  21523263.4224                   21523263.0904
    -69014.86847    -36953.16345  22764370.7664                   22764369.9574
 -42478369.89248 -33083550.72446  21435743.1254                   21435739.2624
 11  8 19  2 12  0.0000000  0  8G12G30G26G10G05G25G29G02
 -29843420.30648 -23238923.07146  21200569.1564                   21200566.2974
 -14572058.80548 -11334351.66146  21501745.0864                   21501743.3954
   9499276.30446   7420238.50343  23882718.9144                   23882716.8594
 -27602365.16047 -21493208.75944  23203187.2034                   23203185.5084
 -30623487.08348 -23846519.98947  20226906.8284                   20226903.5784
 -15351782.75348 -11942557.00946  21508662.3364                   21508662.5704
   -219152.06947   -153943.17645  22735800.9454                   22735799.1564
 -42508896.94948 -33107338.04246  21429934.3914                   21429929.7814
 11  8 19  2 12 30.0000000  0  8G12G30G26G10G05G25G29G02
 -29855901.65148 -23248648.82146  21198194.0394                   21198191.7504
 -14629604.39048 -11379192.37546  21490794.6094                   21490792.5594
   9336463.57347   7293371.45844  23851736.8674                   23851734.4414
 -27568413.50947 -21466752.89844  23209647.6254                   23209646.5354
 -30673138.74248 -23885209.58647  20217458.2504                   20217455.3014
 -15427947.84548 -12001906.42646  21494168.4534                   21494168.5164
   -369255.21547   -270906.63845  22707237.1334                   22707235.6484
 -42539347.96548 -33131066.09646  21424139.3754                   21424134.7584
 11  8 19  2 13  0.0000000  0  8G12G30G26G10G05G25G29G02
 -29867926.96148 -23258019.19046  21195905.8754                   21195903.0234
 -14686569.65348 -11423580.87046  21479954.5944                   21479952.5314
   9173652.65547   7166505.93644  23820755.0084                   23820752.6884
 -27534270.61647 -21440148.09944  23216145.0784                   23216143.5434
 -30722261.39948 -23923486.97647  20208110.1334                   20208107.8984
 -15503543.08548 -12060811.78746  21479783.1414                   21479783.2274
   -519318.24047   -387838.81645  22678680.9694                   22678679.6564
 -42569719.33348 -33154732.09746  21418359.5864                   21418355.4224
 11  8 19  2 13 30.0000000  0  8G12G30G26G10G05G25G29G02
 -29879500.04248 -23267037.19246  21193703.5314                   21193701.2034
 -14742957.13348 -11467519.17046  21469224.3834                   21469222.6374
   9010845.38646   7039643.18743  23789773.6094                   23789771.5864
 -27499941.20747 -21413397.90543  23222677.8204                   23222675.7074
 -30770858.00148 -23961354.44447  20198862.8054                   20198860.1294
 -15578570.21648 -12119274.45946  21465506.0164                   21465505.7584
   -669341.28047   -504739.85345  22650132.9534                   22650130.9844
 -42600012.95448 -33178337.50646  21412595.1334                   21412590.6764
 11  8 19  2 14  0.0000000  0  8G12G30G26G10G05G25G29G02
 -29890624.62748 -23275705.70746  21191586.6564                   21191584.6764
 -14798768.95848 -11511008.87746  21458603.6174                   21458601.9844
   8848043.94846   6912784.93943  23758793.0634                   23758791.6844
 -27465429.26547 -21386505.48243  23229245.0784                   23229241.8484
 -30818931.01148 -23998813.92747  20189714.0704                   20189711.7194
 -15653030.33448 -12177295.31446  21451336.7814                   21451335.9454
   -819323.14847   -621608.79445  22621592.0634                   22621590.3324
 -42630230.44248 -33201883.59946  21406845.0704                   21406840.6804
 11  8 19  2 14 30.0000000  0  8G12G30G26G10G05G25G29G02
 -28325883.24848 -22056426.72446  21489346.6334                   21489344.7424
 -13278585.29348 -10326450.16346  21747884.7114                   21747883.2544
  10260676.31646   8013537.46543  24027608.7584                   24027606.0274
 -25855319.53547 -20131874.51144  23535639.4694                   23535636.8674
 -29291061.13548 -22808265.96047  20480458.7034                   20480455.8954
 -14151502.05748 -11007273.25546  21737067.8444                   21737067.7344
    606161.66747    489158.65645  22892852.7274                   22892851.3834
 -41084951.82348 -31997770.38546  21700901.8754                   21700897.3554
 11  8 19  2 15  0.0000000  0  8G12G30G26G10G05G25G29G02
 -28336119.64248 -22064403.14746  21487399.3444                   21487396.3834
 -13333251.43348 -10369047.14346  21737482.0394                   21737480.7774
  10097894.17946   7886694.33343  23996632.1334                   23996630.6844
 -25820453.06446 -20104705.80643  23542273.3594                   23542272.4344
 -29338093.69348 -22844914.69947  20471508.9454                   20471506.2544
 -14224831.07048 -11064412.71946  21723113.9774                   21723113.8594
    456263.87047    372355.27245  22864327.6884                   22864326.9024
 -41115019.76748 -32021199.93946  21695180.1804                   21695175.3204
 11  8 19  2 15 30.0000000  0  8G12G30G26G10G05G25G29G02
 -28345915.00648 -22072035.91046  21485534.9454                   21485532.4774
 -13387345.98648 -10411198.73346  21727188.3674                   21727186.7544
   9935127.35446   7759863.08544  23965658.3054                   23965656.4734
 -25785413.01246 -20077401.92443  23548941.8754                   23548940.1214
 -29384607.54848 -22881159.26247  20462657.2734                   20462654.8754
 -14297594.27448 -11121111.30146  21709267.7974                   21709267.1254
    306411.31647    255587.12745  22835812.0704                   22835810.3204
 -41145012.94448 -32044571.24046  21689472.4534                   21689468.0274
 11  8 19  2 16  0.0000000  0  8G12G30G26G10G05G25G29G02
 -28355270.16748 -22079325.66246  21483755.5164                   21483752.6524
 -13440868.48848 -10452904.55946  21717003.0394                   21717001.6564
   9772380.72946   7633047.59843  23934688.0234                   23934686.7034
 -25750200.45046 -20049963.55843  23555642.6094                   23555640.8014
 -29430602.59448 -22916999.55047  20453904.6414                   20453901.8164
 -14369790.30148 -11177367.93746  21695529.0084                   21695529.3364
    156607.07147    138856.64845  22807305.0084                   22807304.1954
 -41174929.75548 -32067883.02546  21683779.6724                   21683774.3874
 11  8 19  2 16 30.0000000  0  8G12G30G26G10G05G25G29G02
 -28364186.34148 -22086273.35346  21482058.1484                   21482055.5354
 -13493819.16548 -10494164.81445  21706927.2974                   21706925.5704
   9609658.57146   7506251.21044  23903723.0474                   23903722.6804
 -25714817.11047 -20022392.10843  23562375.5164                   23562373.4104
 -29476079.48548 -22952436.07947  20445250.8984                   20445248.0824
 -14441418.40148 -11233182.01946  21681898.6254                   21681898.7114
      6853.95747     22166.00245  22778807.8444                   22778806.3714
 -41204769.84448 -32091135.00846  21678101.2424                   21678096.2384
 11  8 19  2 17  0.0000000  0  8G12G30G26G10G05G25G29G02
 -28372668.35648 -22092882.71946  21480444.3914                   21480442.0354
 -13546201.36948 -10534982.09546  21696958.9614                   21696957.6254
   9446962.10246   7379474.78244  23872763.1724                   23872762.1024
 -25679268.23047 -19994691.68944  23569140.1884                   23569138.4924
 -29521041.65448 -22987471.51847  20436694.9694                   20436692.2234
 -14512480.95348 -11288555.41046  21668375.8834                   21668375.9614
   -142848.30447    -94485.01645  22750321.2584                   22750318.8404
 -41234535.43648 -32114328.94846  21672436.5634                   21672432.0984
 11  8 19  2 17 30.0000000  0  8G12G30G26G10G05G25G29G02
 -28380718.94448 -22099155.91546  21478912.3444                   21478910.1844
 -13598016.72248 -10575357.70645  21687099.2344                   21687097.2194
   9284294.32446   7252720.75544  23841808.2194                   23841807.4574
 -25643556.83047 -19966864.64244  23575935.9454                   23575935.1684
 -29565491.05548 -23022107.40347  20428236.4304                   20428233.3524
 -14582978.73848 -11343488.73346  21654960.7274                   21654961.1804
   -292498.50147   -211095.46845  22721843.3674                   22721841.1844
 -41264227.79148 -32137465.82246  21666786.8204                   21666782.4804
 11  8 19  2 18  0.0000000  0  8G12G30G26G10G05G25G29G02
 -28388340.44948 -22105094.75546  21477461.7114                   21477459.7894
 -13649266.36648 -10615292.47046  21677346.0084                   21677344.3714
   9121658.59446   7125991.66644  23810859.6954                   23810859.0234
 -25607685.58447 -19938913.02843  23582762.3594                   23582761.0864
 -29609429.14148 -23056344.85047  20419875.0234                   20419872.4224
 -14652911.87448 -11397982.07646  21641652.8834                   21641652.6724
   -442094.52947   -327663.69945  22693375.9614                   22693374.6684
 -41293846.32948 -32160545.17146  21661150.2974                   21661146.3134
 11  8 19  2 18 30.0000000  0  8G12G30G26G10G05G25G29G02
 -28395535.30148 -22110701.14246  21476092.5944                   21476090.0984
 -13699951.67448 -10654787.51446  21667701.0314                   21667699.9414
   8959058.41346   6999290.33244  23779917.4844                   23779916.9534
 -25571657.51547 -19910839.20943  23589618.0084                   23589616.9804
 -29652857.23648 -23090184.91147  20411610.9144                   20411608.3164
 -14722280.79048 -11452035.77146  21628452.3594                   21628452.4414
   -591634.77047   -444188.46345  22664919.1884                   22664917.3874
 -41323391.48248 -32183567.35646  21655527.9224                   21655523.3984
 11  8 19  2 19  0.0000000  0  8G12G30G26G10G05G25G29G02
 -28402306.45547 -22115977.35846  21474804.3204                   21474801.9734
 -13750074.85148 -10693844.53646  21658163.1414                   21658161.4534
   8796496.24846   6872618.59744  23748983.5784                   23748981.7194
 -25535476.08947 -19882645.89843  23596503.3594                   23596501.3444
 -29695778.07448 -23123629.70547  20403443.6254                   20403440.2664
 -14791086.78648 -11505650.83346  21615358.6564                   21615359.1954
   -741118.45947   -560669.16045  22636473.8444                   22636471.8284
 -41352864.44348 -32206533.29546  21649919.3914                   21649914.9064
 11  8 19  2 19 30.0000000  0  9G12G30G26G10G05G15G25G29G02
 -28408657.24247 -22120926.02846  21473595.8284                   21473593.5004
 -13799637.44048 -10732464.72845  21648731.7034                   21648730.2584
   8633975.46146   6745979.03444  23718056.9774                   23718055.6214
 -25499144.32147 -19854335.46743  23603415.7504                   23603415.3984
 -29738193.52748 -23156680.69147  20395372.0004                   20395369.0274
  18667105.54956  14564220.06254  24626078.9454                   24626078.5084
 -14859330.38248 -11558827.65146  21602372.5554                   21602372.9264
   -890543.75347   -677104.34345  22608038.4694                   22608036.9104
 -41382265.64848 -32229443.31046  21644324.7974                   21644320.2424
 11  8 19  2 20  0.0000000  0  9G12G30G26G10G05G15G25G29G02
 -28414595.99847 -22125553.63946  21472465.5944                   21472462.8984
 -13848646.56848 -10770653.67145  21639405.1884                   21639403.7194
   8471493.54246   6619369.79844  23687137.3914                   23687135.3484
 -25462670.70947 -19825914.45343  23610357.2664                   23610355.8874
 -29780110.82448 -23189343.50547  20387395.7114                   20387392.7774
  18506104.58046  14438764.91344  24595441.5474                   24595441.6684
 -14927017.85848 -11611571.14546  21589492.1804                   21589492.3054
  -1039914.96547   -793497.39745  22579613.7114                   22579612.2734
 -41411601.34748 -32252302.28746  21638742.8594                   21638738.0664
 11  8 19  2 20 30.0000000  0  9G12G30G26G10G05G15G25G29G02
 -28420127.31248 -22129863.75146  21471413.1254                   21471410.6134
 -13897105.88448 -10808414.18645  21630183.8364                   21630182.5824
   8309051.83247   6492791.87644  23656225.9224                   23656223.6484
 -25426060.31347 -19797386.87143  23617324.1724                   23617322.9804
 -29821533.75248 -23221621.09447  20379512.8524                   20379509.9224
  18344951.87646  14313191.51744  24564775.0784                   24564774.5354
 -14994151.87648 -11663883.37346  21576717.0634                   21576717.5704
  -1189232.59947   -909848.72645  22551199.6564                   22551198.1094
 -41440873.63048 -32275111.84546  21633171.9844                   21633167.9964
 11  8 19  2 21  0.0000000  0  9G12G30G26G10G05G15G25G29G02
 -28425247.29947 -22133853.34346  21470438.7814                   21470435.8914
 -13945010.62848 -10845742.58045  21621068.1174                   21621065.9654
   8146659.53747   6366252.47844  23625323.5784                   23625322.3444
 -25389309.55547 -19768749.90443  23624317.4454                   23624315.8554
 -29862458.04848 -23253510.13647  20371725.0084                   20371722.2074
  18183655.95846  14187506.50943  24534080.6024                   24534080.1094
 -15060726.73748 -11715759.90646  21564048.2034                   21564048.4614
  -1338488.48847  -1026151.93945  22522797.3674                   22522795.6844
 -41470076.71948 -32297867.50346  21627615.1334                   21627610.7934
 11  8 19  2 21 30.0000000  0  9G12G30G26G10G05G15G25G29G02
 -28429955.92847 -22137522.40546  21469543.0394                   21469540.1414
 -13992359.45348 -10882637.76945  21612057.8364                   21612055.4224
   7984323.31647   6239756.76844  23594431.3834                   23594430.9414
 -25352418.23246 -19740003.48843  23631336.9924                   23631336.0164
 -29902882.29848 -23285009.53647  20364032.8984                   20364030.0234
  18022222.14146  14061714.09543  24503360.4774                   24503360.8134
 -15126740.07148 -11767198.87046  21551486.1564                   21551486.3834
  -1487677.96947  -1142403.41245  22494407.5944                   22494406.2034
 -41499207.77348 -32320567.00846  21622071.5864                   21622066.6334
 11  8 19  2 22  0.0000000  0  9G12G30G26G10G05G15G25G29G02
 -28434255.39147 -22140872.63346  21468724.7194                   21468721.5204
 -14039153.75948 -10919100.87545  21603153.1724                   21603150.6454
   7822046.59646   6113307.42644  23563552.1564                   23563550.5164
 -25315389.19646 -19711149.65843  23638384.3284                   23638381.9774
 -29942808.23848 -23316120.65747  20356435.1804                   20356432.1884
  17860652.83046  13935816.04643  24472615.5394                   24472614.1294
 -15192192.41248 -11818200.69846  21539031.1724                   21539030.8204
  -1636799.06047  -1258601.61345  22466030.2584                   22466028.5634
 -41528267.12648 -32343210.66946  21616541.5554                   21616536.3634
 11  8 19  2 22 30.0000000  0  9G12G30G26G10G05G15G25G29G02
 -28438145.82847 -22143904.14246  21467984.0234                   21467981.7704
 -14085392.34248 -10955130.95445  21594354.5164                   21594351.8284
   7659835.24947   5986908.99944  23532683.8754                   23532682.6684
 -25278222.80446 -19682188.80843  23645457.1804                   23645455.2974
 -29982234.74948 -23346842.59747  20348932.6644                   20348929.2974
  17698953.20946  13809816.46543  24441845.3594                   24441843.7934
 -15257081.64748 -11868763.75346  21526682.8524                   21526682.9654
  -1785847.26347  -1374743.01245  22437667.8054                   22437666.0784
 -41557252.37048 -32365796.55946  21611026.0084                   21611021.3324
 11  8 19  2 23  0.0000000  0  9G12G30G26G10G05G15G25G29G02
 -28441629.23447 -22146618.48646  21467321.2504                   21467319.1484
 -14131076.26748 -10990728.83445  21585660.9694                   21585658.7464
   7497693.53647   5860564.85644  23501829.4694                   23501827.4574
 -25240920.88846 -19653122.44743  23652555.8914                   23652552.9844
 -30021163.04848 -23377176.32747  20341524.7734                   20341521.6564
  17537126.23346  13683717.61443  24411049.8134                   24411049.2814
 -15321407.84048 -11918888.05946  21514442.5704                   21514442.4614
  -1934820.38447  -1490825.90645  22409318.8524                   22409317.6844
 -41586163.19848 -32388324.47045  21605524.5864                   21605520.0084
 11  8 19  2 23 30.0000000  0  9G12G30G26G10G05G15G25G29G02
 -28444707.66847 -22149017.27146  21466735.3834                   21466733.0554
 -14176206.26548 -11025895.08145  21577073.1334                   21577071.1024
   7335625.70447   5734278.26044  23470988.6884                   23470986.4884
 -25203485.49846 -19623951.97843  23659678.6954                   23659676.7344
 -30059594.32448 -23407122.77347  20334211.3444                   20334208.7814
  17375175.39346  13557522.30443  24380231.0394                   24380230.8204
 -15385170.85148 -11968573.53846  21502308.6334                   21502308.6954
  -2083715.75247  -1606848.24545  22380985.6024                   22380983.5514
 -41614998.70848 -32410793.69746  21600036.6174                   21600032.2464
 11  8 19  2 24  0.0000000  0  9G12G30G26G10G05G15G25G29G02
 -28447384.07047 -22151102.77346  21466226.0704                   21466223.8914
 -14220784.51848 -11060631.40145  21568590.2584                   21568588.8404
   7173634.47947   5608051.36243  23440162.7114                   23440160.7664
 -25165919.98446 -19594680.18143  23666827.5634                   23666825.4964
 -30097530.96548 -23436683.77447  20326992.4304                   20326989.8954
  17213102.65946  13431231.93143  24349389.9304                   24349388.2624
 -15448371.87648 -12017821.09746  21490282.0634                   21490281.7664
  -2232532.15647  -1722809.03845  22352666.2894                   22352664.4534
 -41643759.87248 -32433204.97946  21594563.6644                   21594559.7504
 11  8 19  2 24 30.0000000  0  9G12G30G26G10G05G15G25G29G02
 -28449662.34648 -22152878.06546  21465792.9454                   21465789.6374
 -14264814.02548 -11094940.12345  21560211.5554                   21560208.6484
   7011722.03946   5481885.88844  23409352.2664                   23409350.4924
 -25128228.51546 -19565310.22243  23673999.4144                   23673996.9454
 -30134975.75548 -23465861.52747  20319867.1174                   20319864.3554
  17050908.85646  13304847.31543  24318526.1254                   24318523.9964
 -15511012.98448 -12066632.35646  21478361.5944                   21478361.3874
  -2381268.94447  -1838707.79445  22324362.4064                   22324361.0234
 -41672448.19248 -32455559.49745  21589105.1024                   21589100.0474
 11  8 19  2 25  0.0000000  0  9G12G30G26G10G05G15G25G29G02
 -28451543.78348 -22154344.11346  21465434.7344                   21465432.1914
 -14308294.78848 -11128821.25645  21551937.6644                   21551935.1454
   6849893.22646   5355785.54944  23378556.6334                   23378556.5824
 -25090411.82246 -19535842.63243  23681196.1254                   23681192.7934
 -30171928.83248 -23494656.12247  20312834.7194                   20312832.6254
  16888598.16846  13178371.65543  24287638.6094                   24287637.4144
 -15573093.25948 -12115006.60046  21466547.8754                   21466547.8094
  -2529922.78447  -1954541.92445  22296074.8674                   22296072.4654
 -41701062.25948 -32477856.15945  21583659.5164                   21583654.6414
 11  8 19  2 25 30.0000000  0  9G12G30G26G10G05G15G25G29G02
 -28453031.49048 -22155503.36446  21465151.1254                   21465148.8244
 -14351228.79748 -11162276.33845  21543767.5554                   21543764.7424
   6688151.54446   5229753.12744  23347778.7974                   23347777.4534
 -25052473.19946 -19506280.06643  23688415.9844                   23688413.3554
 -30208392.73248 -23523069.53347  20305896.0554                   20305893.4844
  16726172.86946  13051806.64443  24256730.0704                   24256728.9224
 -15634613.77748 -12162944.66546  21454841.1724                   21454840.7154
  -2678491.93647  -2070310.06945  22267802.7274                   22267800.9804
 -41729602.57348 -32500095.34845  21578228.3674                   21578224.2344
 11  8 19  2 26  0.0000000  0  9G12G30G26G10G05G15G25G29G02
 -26878706.85348 -20928756.90446  21764735.2114                   21764732.6294
 -12818195.15048  -9967704.68345  21835494.2344                   21835491.7734
   8101926.93446   6331396.33144  23616810.1024                   23616809.6024
 -23438995.23446 -18249024.50743  23995450.1414                   23995448.2304
 -28668946.66548 -22323501.16547  20598843.1564                   20598840.0274
  18139062.40546  14152759.67543  24525592.9454                   24525592.1764
 -14120151.99948 -10982844.58446  21743033.6484                   21743032.9024
  -1251548.16347   -958405.81345  22539340.7424                   22539338.8984
 -40182647.04648 -31294675.44245  21872604.6724                   21872600.2774
 11  8 19  2 26 30.0000000  0  9G12G30G26G10G05G15G25G29G02
 -26879413.18847 -20929307.30346  21764601.1564                   21764598.4574
 -12860039.04548 -10000310.31445  21827531.4844                   21827529.0864
   7940371.44047   6205509.00444  23586068.6724                   23586066.7504
 -23400818.80146 -18219276.62143  24002715.0084                   24002713.7894
 -28704435.49148 -22351154.79347  20592089.6724                   20592086.7774
  17976417.53146  14026023.57143  24494643.4534                   24494642.7544
 -14180553.50348 -11029910.70046  21731539.2424                   21731539.4844
  -1399940.67747  -1074036.31045  22511102.8834                   22511101.0084
 -40211038.56347 -31316798.67846  21867201.4924                   21867197.0554
 11  8 19  2 27  0.0000000  0  9G12G30G26G10G05G15G25G29G02
 -26879733.22647 -20929556.68646  21764540.4534                   21764538.0124
 -12901340.79548 -10032493.49945  21819671.7584                   21819669.2424
   7778913.98046   6079698.03044  23555343.4224                   23555341.5594
 -23362528.05946 -18189439.69243  24010002.1644                   24009999.5164
 -28739439.86948 -22378430.91647  20585428.6414                   20585425.4614
  17813666.11946  13899204.45744  24463672.1564                   24463672.3134
 -14240397.11948 -11076542.07346  21720151.4774                   21720151.7194
  -1548242.42147  -1189596.06245  22482881.8914                   22482880.7234
 -40239356.19347 -31338864.34145  21861813.2274                   21861808.3484
 11  8 19  2 27 30.0000000  0  9G12G30G26G10G05G15G25G29G02
 -26879668.67947 -20929506.39746  21764552.4924                   21764549.8404
 -12942101.32547 -10064254.95145  21811915.4924                   21811913.5554
   7617558.93546   5953966.86544  23524638.1884                   23524637.3054
 -23324124.84746 -18159515.15943  24017309.5314                   24017308.0084
 -28773961.16448 -22405330.62346  20578859.3984                   20578856.2894
  17650811.61447  13772304.97444  24432682.9694                   24432681.8554
 -14299682.73248 -11122738.66246  21708870.4614                   21708869.9454
  -1696450.38847  -1305082.74345  22454678.6954                   22454677.7114
 -40267599.48947 -31360872.08945  21856439.0784                   21856434.0314
 11  8 19  2 28  0.0000000  0  9G12G30G26G10G05G15G25G29G02
 -26879223.73347 -20929159.69846  21764636.8674                   21764634.5204
 -12982324.10648 -10095597.38345  21804261.8134                   21804259.1844
   7456307.92547   5828316.78744  23493953.0314                   23493951.8484
 -23285613.06446 -18129505.94743  24024637.4844                   24024635.9534
 -28808002.48348 -22431856.30047  20572381.2814                   20572378.3594
  17487854.99547  13645325.95244  24401673.6334                   24401671.2464
 -14358412.94348 -11168502.45046  21697694.0634                   21697693.7344
  -1844564.58047  -1420496.33945  22426493.7894                   22426492.6644
 -40295769.82947 -31382822.98745  21851078.0234                   21851073.7854
 11  8 19  2 28 30.0000000  0  9G12G30G26G10G05G15G25G29G02
 -26878403.62047 -20928520.64546  21764793.0784                   21764790.2544
 -13022012.98747 -10126523.78145  21796708.7194                   21796706.6844
   7295162.63847   5702749.08044  23463288.6024                   23463287.2504
 -23246997.75646 -18099416.13043  24031986.0234                   24031984.3444
 -28841568.01848 -22458011.25547  20565994.0784                   20565990.8954
  17324796.62947  13518267.61744  24370644.0704                   24370643.1844
 -14416590.68648 -11213835.76046  21686623.6884                   21686622.9454
  -1992585.08347  -1535836.90545  22398326.1254                   22398324.9964
 -40323869.59447 -31404718.89645  21845730.8444                   21845725.9384
 11  8 19  2 29  0.0000000  0  9G12G30G26G10G05G15G25G29G02
 -26877206.72147 -20927588.01946  21765021.3284                   21765018.1684
 -13061165.28147 -10157032.04845  21789258.1094                   21789255.9774
   7134131.00147   5577269.91144  23432644.9694                   23432643.5664
 -23208276.93746 -18069244.02643  24039354.9534                   24039351.5204
 -28874655.24348 -22483793.49147  20559697.7974                   20559695.0004
  17161643.86647  13391135.74744  24339596.8204                   24339595.6054
 -14474212.30147 -11258735.70346  21675658.0164                   21675657.6334
  -2140505.50647  -1651099.52645  22370177.5084                   22370176.6414
 -40351894.16647 -31426556.21446  21840397.7344                   21840393.0354
 11  8 19  2 29 30.0000000  0  9G12G30G26G10G05G15G25G29G02
 -26875637.16347 -20926364.99546  21765319.9144                   21765317.5204
 -13099784.60747 -10187125.03445  21781909.7664                   21781906.7774
   6973214.69847   5451880.61844  23402024.3834                   23402022.3404
 -23169455.11946 -18038993.15443  24046741.1334                   24046739.6414
 -28907267.77448 -22509205.83747  20553491.5394                   20553489.0004
  16998397.58747  13263930.98044  24308531.8524                   24308531.6334
 -14531280.61647 -11303204.51246  21664798.5784                   21664798.4534
  -2288325.65847  -1766283.99345  22342048.4924                   22342047.5704
 -40379845.44947 -31448336.41945  21835078.8444                   21835074.1764
 11  8 19  2 30  0.0000000  0  9G12G30G26G10G05G15G25G29G02
 -26873695.46947 -20924852.00146  21765689.3134                   21765686.6454
 -13137870.23947 -10216802.14045  21774662.3364                   21774659.6884
   6812420.18347   5326586.23844  23371425.8984                   23371424.0354
 -23130532.29946 -18008663.67143  24054147.8204                   24054146.0474
 -28939405.05648 -22534247.85846  20547376.0394                   20547373.6054
  16835062.87146  13136657.29643  24277450.6484                   24277449.2974
 -14587793.93248 -11347240.84946  21654044.3364                   21654043.4344
  -2436040.83047  -1881386.64545  22313939.4534                   22313938.0634
 -40407721.24247 -31470057.80745  21829774.0004                   21829770.1294
 11  8 19  2 30 30.0000000  0  9G12G30G26G10G05G15G25G29G02
 -26871388.77847 -20923054.59146  21766128.3754                   21766125.5314
 -13175428.63247 -10246068.39545  21767515.1484                   21767512.8014
   6651746.07547   5201385.67244  23340850.0634                   23340848.7274
 -23091515.44846 -17978261.01243  24061572.8914                   24061570.1844
 -28971073.34448 -22558924.42546  20541349.6954                   20541347.4694
  16671637.60946  13009313.04943  24246350.8594                   24246349.8054
 -14643757.76548 -11390849.02046  21643394.4304                   21643393.9224
  -2583653.81747  -1996409.64745  22285849.5704                   22285847.8594
 -40435526.25647 -31491724.05045  21824483.3984                   21824478.6054
 11  8 19  2 31  0.0000000  0  9G12G30G26G10G05G15G25G29G02
 -26868718.41648 -20920973.79746  21766636.2424                   21766633.8834
 -13212460.31047 -10274924.25845  21760468.0704                   21760465.5164
   6491197.48947   5076282.93644  23310299.0944                   23310296.3054
 -23052406.11646 -17947786.09143  24069015.3054                   24069013.2584
 -29002273.41848 -22583236.13247  20535413.1094                   20535410.1134
  16508125.90546  12881901.46043  24215236.0864                   24215234.3954
 -14699171.83348 -11434028.79146  21632849.5394                   21632849.9964
  -2731161.21947  -2111350.38046  22257779.7344                   22257778.1254
 -40463259.07947 -31513334.02945  21819205.6564                   21819201.1844
 11  8 19  2 31 30.0000000  0  9G12G30G26G10G05G15G25G29G02
 -26865687.40447 -20918611.97346  21767213.0084                   21767210.6914
 -13248967.54047 -10303371.43045  21753520.9774                   21753519.1414
   6330777.65947   4951280.50844  23279772.2974                   23279769.6454
 -23013207.18146 -17917241.51343  24076474.7194                   24076473.6094
 -29033007.31648 -22607184.59947  20529564.5554                   20529561.3634
  16344530.12746  12754424.28743  24184105.2894                   24184103.1254
 -14754037.36548 -11476781.14946  21622409.2664                   21622408.8014
  -2878561.29047  -2226207.45945  22229730.4534                   22229728.8674
 -40490919.78147 -31534887.81345  21813941.9694                   21813937.5124
 11  8 19  2 32  0.0000000  0  9G12G30G26G10G05G15G25G29G02
 -26862297.59447 -20915970.58246  21767858.5394                   21767855.9924
 -13284951.11947 -10331410.57645  21746673.6484                   21746671.6024
   6170491.38947   4826382.16044  23249270.8364                   23249268.0274
 -22973919.77146 -17886627.94643  24083951.2344                   24083948.5784
 -29063276.30548 -22630770.81346  20523804.2584                   20523801.7304
  16180853.99746  12626884.55043  24152957.6724                   24152956.7304
 -14808354.33048 -11519106.04446  21612072.8674                   21612072.4184
  -3025850.97647  -2340978.54745  22201702.3134                   22201700.3054
 -40518507.41047 -31556384.64345  21808692.1884                   21808687.3794
 11  8 19  2 32 30.0000000  0  9G12G30G26G10G05G15G25G29G02
 -26858553.21547 -20913052.89846  21768570.6724                   21768568.4614
 -13320414.35648 -10359044.25745  21739924.7734                   21739922.9344
   6010340.79647   4701589.50844  23218794.8674                   23218792.5514
 -22934547.53646 -17855948.25842  24091442.1804                   24091441.1764
 -29093083.49747 -22653997.18446  20518132.2344                   20518129.3754
  16017099.13947  12499283.42743  24121796.2194                   24121794.5434
 -14862125.04648 -11561005.27546  21601840.6954                   21601840.3954
  -3173029.21847  -2455662.79245  22173694.6954                   22173693.0824
 -40546023.53147 -31577825.75945  21803456.2194                   21803451.6484
 11  8 19  2 33  0.0000000  0  9G12G30G26G10G05G15G25G29G02
 -26854457.88447 -20909861.74046  21769350.6884                   21769347.8984
 -13355360.22648 -10386274.80345  21733274.9534                   21733272.7894
   5850328.55647   4576904.68744  23188345.4614                   23188344.0784
 -22895094.37146 -17825205.55542  24098950.9694                   24098947.8284
 -29122431.80548 -22676865.97546  20512547.2504                   20512544.6134
  15853266.77047  12371621.92243  24090619.0474                   24090617.7464
 -14915351.71548 -11602480.58746  21591711.9844                   21591711.9614
  -3320095.36947  -2570259.70145  22145708.9534                   22145706.6804
 -40573469.21947 -31599211.98445  21798233.6334                   21798229.3284
 11  8 19  2 33 30.0000000  0  9G12G30G26G10G05G15G25G29G02
 -26850013.30148 -20906398.43446  21770195.8834                   21770193.8594
 -13389789.33348 -10413102.68345  21726723.7584                   21726720.7504
   5690459.63746   4452331.54044  23157922.8914                   23157921.8444
 -22855561.72646 -17794400.87542  24106473.9454                   24106471.7344
 -29151321.82548 -22699377.66046  20507050.1724                   20507046.4924
  15689361.16147  12243903.34444  24059429.8594                   24059428.1524
 -14968034.03248 -11643531.73046  21581686.8054                   21581686.4024
  -3467045.92147  -2684766.53545  22117744.9774                   22117742.5434
 -40600843.03647 -31620542.23045  21793024.6094                   21793019.2504
 11  8 19  2 34  0.0000000  0  9G12G30G26G10G05G15G25G29G02
 -26845221.44348 -20902664.53046  21771108.0864                   21771105.9304
 -13423703.38648 -10439529.22045  21720269.6484                   21720267.9024
   5530737.95547   4327873.12144  23127529.0314                   23127527.2114
 -22815951.54846 -17763535.78143  24114012.0004                   24114009.1524
 -29179755.45648 -22721533.72746  20501639.0474                   20501636.0824
  15525385.45947  12116130.13744  24028225.8204                   24028224.7154
 -15020172.74448 -11684159.27946  21571765.4384                   21571765.1564
  -3613878.55347  -2799181.51145  22089803.3134                   22089801.1524
 -40628144.37647 -31641815.99745  21787828.9454                   21787824.2384
 11  8 19  2 34 30.0000000  0  9G12G30G26G10G05G15G25G29G02
 -26840083.64248 -20898661.06146  21772085.3524                   21772083.3094
 -13457102.56148 -10465554.54845  21713914.3364                   21713912.1254
   5371168.80747   4203533.57944  23097163.7814                   23097162.8364
 -22776264.42646 -17732610.79643  24121564.1954                   24121560.1644
 -29207732.75148 -22743334.19646  20496315.1334                   20496311.9144
  15361344.14647  11988305.80744  23997009.8204                   23997009.0824
 -15071767.24848 -11724362.76946  21561947.1024                   21561947.0744
  -3760589.28947  -2913501.47545  22061885.5394                   22061883.5274
 -40655371.51547 -31663031.93345  21782647.4844                   21782643.1764
 11  8 19  2 35  0.0000000  0  9G12G30G26G10G05G15G25G29G02
 -26834603.62248 -20894390.92246  21773128.2194                   21773125.5204
 -13489989.75748 -10491180.93345  21707655.5784                   21707653.9924
   5211755.13647   4079315.16844  23066828.6484                   23066826.4694
 -22736503.64146 -17701628.34042  24129130.3674                   24129128.1294
 -29235256.82248 -22764781.51747  20491077.4694                   20491074.5984
  15197239.24347  11860431.95344  23965781.7194                   23965780.4694
 -15122819.45048 -11764143.70146  21552232.3054                   21552232.5004
  -3907177.06647  -3027725.64645  22033990.8754                   22033988.6604
 -40682525.42247 -31684190.82245  21777480.6884                   21777476.3324
 11  8 19  2 35 30.0000000  0  9G12G30G26G10G05G15G25G29G02
 -26828786.74048 -20889858.30046  21774235.0234                   21774232.3554
 -13522369.61848 -10516411.99745  21701494.0084                   21701492.6914
   5052498.06647   3955218.77544  23036523.5234                   23036520.8094
 -22696674.18446 -17670592.39343  24136709.3284                   24136706.1524
 -29262332.15148 -22785879.16746  20485925.1884                   20485922.3444
  15033070.84347  11732508.65944  23934542.5004                   23934540.8164
 -15173333.25548 -11803505.09346  21542619.8054                   21542619.9774
  -4053642.07647  -3141854.16846  22006119.2194                   22006117.2384
 -40709608.41947 -31705294.41945  21772326.7114                   21772322.3714
 11  8 19  2 36  0.0000000  0  9G12G30G26G10G05G15G25G29G02
 -26822637.90748 -20885067.00246  21775405.7424                   21775402.6604
 -13554246.49547 -10541251.11545  21695427.9844                   21695425.8524
   4893398.83247   3831245.41244  23006247.3284                   23006245.5044
 -22656781.11546 -17639506.82543  24144300.3284                   24144298.1994
 -29288963.20448 -22806630.62746  20480857.3674                   20480854.4574
  14868839.38546  11604536.20344  23903289.5554                   23903288.0394
 -15223312.05848 -11842449.60846  21533108.8204                   21533108.3164
  -4199984.74047  -3255887.36846  21978271.1724                   21978269.7424
 -40736623.02947 -31726344.76745  21767186.3594                   21767181.1414
 11  8 19  2 36 30.0000000  0  9G12G30G26G10G05G15G25G29G02
 -26816158.10748 -20880017.81746  21776638.3754                   21776635.9264
 -13585620.60847 -10565698.49545  21689457.5234                   21689455.9184
   4734463.02647   3707399.35644  22976003.1724                   22976001.0704
 -22616824.84246 -17608372.15642  24151903.5004                   24151901.6334
 -29315149.75848 -22827035.71446  20475874.3444                   20475871.1684
  14704549.56546  11476518.27544  23872026.0944                   23872024.4774
 -15272755.17848 -11880976.70746  21523699.7424                   21523700.3054
  -4346201.05447  -3369822.11746  21950447.0394                   21950444.9494
 -40763567.31047 -31747340.30745  21762058.8284                   21762053.6564
 11  8 19  2 37  0.0000000  0  9G12G30G26G10G05G15G25G29G02
 -26809350.11048 -20874712.89246  21777934.0004                   21777932.0004
 -13616493.68548 -10589755.44145  21683583.1644                   21683581.3754
   4575694.65347   3583683.81544  22945791.0084                   22945788.4494
 -22576807.31346 -17577189.64142  24159518.7344                   24159517.8364
 -29340893.32448 -22847095.63046  20470975.0944                   20470972.5984
  14540204.68847  11348457.46544  23840751.3914                   23840750.8164
 -15321663.55148 -11919087.11546  21514393.5944                   21514393.4654
  -4492288.06847  -3483656.13946  21922647.5554                   21922645.2704
 -40790440.66347 -31768280.58245  21756945.0474                   21756940.9614
 11  8 19  2 37 30.0000000  0  9G12G30G26G10G05G15G25G29G02
 -25226795.66748 -19641553.58546  22079083.8834                   22079081.4534
 -12071445.62448  -9385821.88745  21977595.8914                   21977593.5354
   5992524.06047   4687706.76544  23215403.6954                   23215402.4184
 -20961311.22346 -16318361.53743  24466938.2504                   24466936.7074
 -27790774.75748 -21639211.01846  20765953.3594                   20765949.9844
  15951234.20647  12447961.05144  24109262.1094                   24109260.1374
 -13794615.53348 -10729179.55346  21804981.0944                   21804980.4614
  -3062818.10147  -2369783.40245  22194666.5944                   22194665.0984
 -39241820.90147 -30561563.88745  22051637.0234                   22051633.0944
 11  8 19  2 38  0.0000000  0  9G12G30G26G10G05G15G25G29G02
 -25219339.02847 -19635743.23046  22080502.8674                   22080500.9964
 -12101322.67448  -9409102.71445  21971910.5474                   21971908.7704
   5834102.12947   4564261.15244  23185257.7344                   23185255.2974
 -20921178.46246 -16287089.23743  24474574.9774                   24474573.8984
 -27815639.50547 -21658586.13046  20761221.3524                   20761218.3014
  15786787.92447  12319821.23044  24077968.8754                   24077967.4494
 -13842457.78348 -10766459.21546  21795876.8204                   21795877.0984
  -3208640.60947  -2483411.31245  22166917.7664                   22166915.3524
 -39268552.00847 -30582393.31145  22046551.0234                   22046546.4264
 11  8 19  2 38 30.0000000  0  9G12G30G26G10G05G15G25G29G02
 -25211560.80947 -19629682.28946  22081983.2734                   22081980.9734
 -12130703.23848  -9431996.66745  21966319.6414                   21966317.9884
   5675860.70747   4440956.20444  23155145.1954                   23155143.0164
 -20880989.78146 -16255773.41042  24482222.0634                   24482220.2974
 -27840065.96748 -21677619.72246  20756573.4614                   20756570.3524
  15622296.77747  12191646.38044  24046667.4844                   24046665.3134
 -13889767.19648 -10803323.68446  21786874.3284                   21786874.5824
  -3354325.80547  -2596932.22346  22139194.8674                   22139192.0474
 -39295209.93147 -30603165.72745  22041477.9694                   22041473.7544
 11  8 19  2 39  0.0000000  0  9G12G30G26G10G05G15G25G29G02
 -25203466.10848 -19623374.75046  22083523.6094                   22083521.0944
 -12159592.06148  -9454507.43845  21960822.1804                   21960820.0124
   5517800.67447   4317792.58344  23125067.5394                   23125065.3954
 -20840750.26746 -16224418.06443  24489879.9774                   24489877.6094
 -27864058.89248 -21696315.49346  20752007.8204                   20752004.7384
  15457760.90847  12063436.71943  24015356.7504                   24015354.0904
 -13936547.72948 -10839776.04246  21777972.0554                   21777972.1524
  -3499874.13147  -2710346.48646  22111497.8204                   22111495.9654
 -39321797.27347 -30623883.11545  22036418.4534                   22036413.8444
 11  8 19  2 39 30.0000000  0  9G12G30G26G10G05G15G25G29G02
 -25195055.72347 -19616821.20646  22085123.9064                   22085121.2424
 -12187989.00448  -9476634.93345  21955418.4694                   21955416.4224
   5359928.21447   4194775.13944  23095025.0004                   23095022.9574
 -20800460.00246 -16193023.00442  24497547.3594                   24497544.2344
 -27887618.08348 -21714673.29246  20747524.3364                   20747521.2894
  15293185.61446  11935196.36044  23984038.9614                   23984037.5354
 -13982798.31948 -10875815.45946  21769170.8594                   21769171.0474
  -3645280.80047  -2823650.35646  22083827.8984                   22083825.7624
 -39348311.59847 -30644543.63245  22031372.4384                   22031368.2624
 11  8 19  2 40  0.0000000  0  9G12G30G26G10G05G15G25G29G02
 -25186332.88547 -19610024.18446  22086784.4614                   22086781.3874
 -12215896.63848  -9498381.14445  21950107.8834                   21950106.3444
   5202246.65647   4071906.40344  23065019.5164                   23065016.5314
 -20760121.42146 -16161590.32842  24505222.7344                   24505220.8324
 -27910745.83147 -21732694.88846  20743123.6334                   20743120.7774
  15128573.31946  11806927.12944  23952713.4224                   23952712.4774
 -14028520.78648 -10911443.35146  21760470.3754                   21760470.3134
  -3790544.30547  -2936842.67746  22056185.0314                   22056182.5234
 -39374753.18447 -30665147.49345  22026341.5004                   22026336.6684
 11  8 19  2 40 30.0000000  0  9G12G30G26G10G05G15G25G29G02
 -25177299.97047 -19602985.55245  22088502.5554                   22088499.9384
 -12243317.26848  -9519747.86845  21944889.5704                   21944887.5164
   5044759.81247   3949189.42844  23035050.5084                   23035048.6684
 -20719736.99945 -16130121.94542  24512909.1564                   24512905.7074
 -27933444.66748 -21750382.28046  20738803.7034                   20738800.9924
  14963926.73646  11678631.18944  23921383.1094                   23921382.1994
 -14073716.53448 -10946660.80946  21751869.9614                   21751870.3054
  -3935662.38147  -3049921.65346  22028570.2424                   22028567.8984
 -39401122.02047 -30685694.63745  22021323.5704                   22021318.6134
 11  8 19  2 41  0.0000000  0  9G12G30G26G10G05G15G25G29G02
 -25167958.25147 -19595706.30745  22090280.5004                   22090278.1414
 -12270250.72547  -9540734.97545  21939764.4844                   21939762.8444
   4887473.51247   3826628.70944  23005119.9384                   23005117.9384
 -20679307.04645 -16098618.10242  24520601.3444                   24520600.2464
 -27955714.19148 -21767735.15146  20734566.1804                   20734562.8914
  14799251.41946  11550312.89944  23890045.4384                   23890045.2034
 -14118384.67348 -10981467.14946  21743369.6414                   21743370.0514
  -4080630.43547  -3162883.72846  22000983.4224                   22000981.3674
 -39427415.64247 -30706183.16845  22016319.9534                   22016315.3794
 11  8 19  2 41 30.0000000  0  9G12G30G26G10G05G15G25G29G02
 -25158313.69447 -19588191.06446  22092115.9844                   22092113.3364
 -12296702.44847  -9561346.70545  21934731.0004                   21934729.1214
   4730388.62347   3704224.91744  22975227.2114                   22975225.1844
 -20638836.96745 -16067082.94142  24528303.8134                   24528299.7114
 -27977559.65048 -21784757.57046  20730409.3204                   20730406.4064
  14634547.02346  11421971.87744  23858704.3984                   23858702.8444
 -14162529.69948 -11015865.87046  21734969.2034                   21734969.7464
  -4225449.34047  -3275729.57246  21973425.1954                   21973422.8834
 -39453636.79147 -30726615.21945  22011329.9694                   22011325.3284
 11  8 19  2 42  0.0000000  0 10G12G30G26G10G05G15G25G29G02G21
 -25148369.24147 -19580442.15145  22094008.0394                   22094005.5394
 -12322675.11547  -9581585.12945  21929788.4614                   21929787.0004
   4573508.20147   3581980.46444  22945374.3444                   22945372.8324
 -20598329.31645 -16035518.60542  24536010.4384                   24536007.7854
 -27998983.73248 -21801451.66346  20726332.3054                   20726329.1174
  14469816.04746  11293610.17844  23827357.0864                   23827354.9534
 -14206153.47048 -11049858.41446  21726667.9534                   21726668.5354
  -4370117.47247  -3388457.93546  21945895.8444                   21945893.4454
 -39479785.90547 -30746991.15745  22006354.0864                   22006350.0314
  21871464.11356  17057081.78953  25201736.8524                   25201735.2664
 11  8 19  2 42 30.0000000  0 10G12G30G26G10G05G15G25G29G02G21
 -25138134.21847 -19572466.82045  22095955.2734                   22095953.5664
 -12348177.80547  -9601457.34645  21924934.9454                   21924933.9494
   4416829.26847   3459893.01344  22915559.2274                   22915557.5004
 -20557793.22845 -16003932.05142  24543724.5164                   24543722.3984
 -28019994.95348 -21817824.03846  20722334.0944                   20722331.2934
  14305054.52847  11165224.66244  23796003.7894                   23796002.1484
 -14249264.28548 -11083451.24546  21718464.1644                   21718464.6524
  -4514639.08747  -3501072.11246  21918394.2584                   21918392.6054
 -39505869.50547 -30767316.04245  22001391.0704                   22001386.1914
  21746736.26846  16959891.26843  25178001.6724                   25178000.5044
 11  8 19  2 43  0.0000000  0 10G12G30G26G10G05G15G25G29G02G21
 -25127612.17647 -19564267.84245  22097958.2504                   22097955.8714
 -12373212.63447  -9620964.98545  21920171.1724                   21920169.6724
   4260355.76947   3337965.65444  22885783.4384                   22885781.5004
 -20517230.57945 -15972324.84442  24551442.8674                   24551440.8914
 -28040595.53348 -21833876.43046  20718413.9384                   20718410.8284
  14140265.64447  11036817.80644  23764645.6254                   23764643.4384
 -14291863.41048 -11116645.37346  21710357.7584                   21710358.1764
  -4659012.08547  -3613570.49246  21890920.7034                   21890919.0904
 -39531887.21547 -30787589.58245  21996439.5474                   21996435.0084
  21621999.19446  16862693.73443  25154265.6094                   25154263.5234
 11  8 19  2 43 30.0000000  0 10G12G30G26G10G05G15G25G29G02G21
 -25116806.14647 -19555847.57946  22100014.5084                   22100011.7074
 -12397782.40847  -9640110.26045  21915496.2974                   21915494.4184
   4104090.81247   3216200.79544  22856046.3134                   22856044.9654
                                  24559167.523
 -28060788.25248 -21849611.01446  20714570.9844                   20714568.3484
  13975451.74447  10908391.49744  23733282.3054                   23733280.2304
 -14333952.89348 -11149442.36746  21702348.2504                   21702348.7584
  -4803234.69348  -3725951.69846  21863475.9924                   21863474.1564
 -39557839.47447 -30807812.12545  21991501.5234                   21991496.7034
  21497251.90146  16765488.14843  25130526.4304                   25130524.1054
 11  8 19  2 44  0.0000000  0 10G12G30G26G10G05G15G25G29G02G21
 -25105713.34647 -19547203.86946  22102125.7584                   22102123.0274
 -12421883.93448  -9658890.66245  21910909.7894                   21910907.9224
   3948043.91047   3094605.83044  22826352.5784                   22826349.9024
 -20436031.285 5                  24566894.445
 -28080569.48448 -21865024.96346  20710806.8054                   20710804.2194
  13810621.25246  10779952.22844  23701915.8984                   23701913.8754
 -14375528.68848 -11181839.09446  21694436.6564                   21694437.3554
  -4947298.73148  -3838209.32746  21836061.9774                   21836059.3204
 -39583720.30347 -30827978.97845  21986575.9144                   21986571.1174
  21372499.46546  16668278.53643  25106785.9534                   25106784.6954
 11  8 19  2 44 30.0000000  0  9G12G30G26G05G15G25G29G02G21
 -25094333.39548 -19538336.38845  22104290.6644                   22104288.5594
 -12445516.10647  -9677305.34745  21906412.4774                   21906410.7584
   3792222.11547   2973186.29544  22796700.3284                   22796698.7074
 -28099938.08248 -21880117.37746  20707121.4304                   20707118.6374
  13645780.71646  10651505.13144  23670547.0394                   23670545.6644
 -14416588.93448 -11213834.09046  21686623.6644                   21686624.0904
  -5091198.58747  -3950339.02646  21808678.2584                   21808676.1764
 -39609526.53947 -30848087.72645  21981665.3984                   21981660.3484
  21247744.80046  16571067.13742  25083047.5474                   25083044.9534
 11  8 19  2 45  0.0000000  0  9G12G30G26G05G15G25G29G02G21
 -25082666.82147 -19529245.56745  22106511.0314                   22106507.8594
 -12468679.28947  -9695354.58045  21902004.6024                   21902003.0704
   3636631.30547   2851946.73044  22767092.2734                   22767090.5234
 -28118894.16648 -21894888.33646  20703514.0314                   20703511.7734
  13480935.06546  10523054.05144  23639178.1564                   23639177.3054
 -14457133.12948 -11245426.96546  21678907.9384                   21678908.1844
  -5234930.06347  -4062337.52046  21781327.2034                   21781324.9144
 -39635255.45947 -30868136.23145  21976769.1484                   21976764.4494
  21122989.03246  16473854.94543  25059305.7424                   25059305.5124
 11  8 19  2 45 30.0000000  0  9G12G30G26G05G15G25G29G02G21
 -25070711.02847 -19519929.37945  22108786.1024                   22108783.2194
 -12491369.75447  -9713035.45245  21897686.8914                   21897684.7664
   3481281.13547   2730894.70444  22737529.8204                   22737528.3554
 -28137434.12748 -21909335.04746  20699986.2584                   20699983.0704
  13316093.44346  10394606.14144  23607809.3134                   23607809.0394
 -14497156.80048 -11276614.24746  21671291.7734                   21671291.7154
  -5378484.72047  -4174198.23346  21754009.6254                   21754007.4384
 -39660900.87547 -30888119.65645  21971888.8524                   21971884.4694
  20998238.16546  16376646.56043  25035567.0474                   25035564.8094
 11  8 19  2 46  0.0000000  0  9G12G30G26G05G15G25G29G02G21
 -25058468.25047 -19510389.56945  22111116.0314                   22111113.3444
 -12513589.56747  -9730349.59545  21893458.7274                   21893457.1134
   3326175.82847   2610033.45844  22708014.3914                   22708012.5004
 -28155559.57148 -21923458.75946  20696536.7974                   20696534.0784
  13151259.18547  10266163.92844  23576444.1254                   23576441.7274
 -14536661.11948 -11307396.83546  21663774.5944                   21663774.6764
  -5521859.88247  -4285919.07846  21726726.7344                   21726723.8954
 -39686462.03947 -30908037.42045  21967025.2114                   21967020.5944
  20873492.13546  16279441.97143  25011828.7114                   25011825.9774
 11  8 19  2 46 30.0000000  0  9G12G30G26G05G15G25G29G02G21
 -25045942.11547 -19500628.98245  22113499.5784                   22113497.2934
 -12535341.93147  -9747299.47645  21889318.9924                   21889317.7074
   3171318.48147   2489365.43645  22678545.9144                   22678543.7664
 -28173273.27448 -21937261.64046  20693166.0164                   20693163.2704
  12986434.32447  10137729.05644  23545078.4694                   23545076.8594
 -14575648.64248 -11337776.73446  21656354.9924                   21656355.3914
  -5665054.01947  -4397498.88246  21699477.4144                   21699474.9924
 -39711939.75348 -30927890.17045  21962177.0634                   21962172.5824
  20748749.50946  16182240.04443  24988090.1024                   24988088.4344
 11  8 19  2 47  0.0000000  0  9G12G30G26G05G15G25G29G02G21
 -25033141.35747 -19490654.36245  22115935.6024                   22115933.4414
 -12556634.91747  -9763891.41545  21885267.0864                   21885265.2384
   3016706.91747   2368888.90345  22649124.4224                   22649122.6134
 -28190583.69248 -21950750.26646  20689872.0474                   20689869.3134
  12821615.99047  10009299.26644  23513713.8204                   23513712.1094
 -14614126.70548 -11367759.64446  21649033.0314                   21649033.6994
  -5808070.71948  -4508940.40946  21672261.8524                   21672259.6374
 -39737339.54247 -30947682.20245  21957342.8674                   21957338.5704
  20624004.13946  16085035.97043  24964352.4144                   24964351.1334
 11  8 19  2 47 30.0000000  0  9G12G30G26G05G15G25G29G02G21
 -25020072.62547 -19480470.94745  22118422.3054                   22118419.7384
 -12577475.04147  -9780130.46845  21881300.9614                   21881299.8594
   2862341.19647   2248603.95945  22619749.0864                   22619746.2734
 -28207496.50848 -21963929.06446  20686653.6954                   20686651.0044
  12656803.73047   9880874.19944  23482351.4064                   23482349.7234
 -14652100.87248 -11397349.91146  21641806.8054                   21641807.6024
  -5950911.35348  -4620244.74546  21645080.2194                   21645077.1254
 -39762664.72747 -30967416.11345  21952523.6804                   21952519.5984
  20499251.41646  15987826.20043  24940612.2274                   24940611.9344
 11  8 19  2 48  0.0000000  0  9G12G30G26G05G15G25G29G02G21
 -25006740.18947 -19470082.04745  22120959.7344                   22120956.4454
 -12597865.58147  -9796019.21345  21877421.5704                   21877419.5984
   2708223.86947   2128512.56945  22590422.2504                   22590419.1804
 -28224014.99148 -21976800.60446  20683510.1414                   20683506.9064
  12491999.53847   9752455.40844  23450990.4534                   23450988.0824
 -14689573.82948 -11426549.61846  21634676.0234                   21634676.6134
  -6093574.54648  -4731410.84746  21617932.2504                   21617929.8674
 -39787916.65847 -30987092.93145  21947719.0554                   21947714.2664
  20374489.93846  15890609.48543  24916871.2274                   24916870.3794
 11  8 19  2 48 30.0000000  0  9G12G30G26G05G15G25G29G02G21
 -24993148.01247 -19459490.74745  22123546.2034                   22123543.8204
 -12617810.12948  -9811560.43845  21873625.8984                   21873624.5634
   2554357.80547   2008616.95144  22561141.6724                   22561139.6024
 -28240142.58048 -21989367.54246  20680441.2114                   20680438.3204
  12327205.03347   9624044.17844  23419631.1564                   23419628.3984
 -14726548.31648 -11455360.90946  21627640.0864                   21627639.9454
  -6236059.30248  -4842437.88546  21590818.5634                   21590815.8874
 -39813095.91648 -31006713.14045  21942927.4064                   21942922.9884
  20249718.19846  15793384.86143  24893127.5004                   24893126.2774
 11  8 19  2 49  0.0000000  0  9G12G30G26G05G15G25G29G02G21
 -23403878.58947 -18221098.99245  22425974.1954                   22425971.9694
 -11061889.95347  -8599155.08645  22169707.8674                   22169706.1254
   3976172.61147   3116524.62645  22831705.3284                   22831702.7274
 -26680460.42548 -20774030.78546  20977238.7974                   20977235.8674
  13737849.51247  10723247.72644  23688067.6484                   23688065.2734
 -13187604.29848 -10256183.75846  21920491.3674                   21920491.4024
  -4802937.86048  -3725719.84246  21863532.4454                   21863529.7074
 -38262780.43448 -29798675.07445  22237942.3984                   22237938.4144
  21700360.41446  16923755.50043  25169176.0314                   25169174.3014
 11  8 19  2 49 30.0000000  0  9G12G30G26G05G15G25G29G02G21
 -23389772.77547 -18210107.46145  22428658.1094                   22428655.5744
 -11080948.03648  -8614005.54945  22166081.4454                   22166079.1764
   3822822.29147   2997030.88645  22802523.3524                   22802520.8594
 -26695810.99448 -20785992.26046  20974317.7034                   20974314.4924
  13573085.62847  10594860.37144  23656714.3754                   23656711.6094
 -13223585.15148 -10284220.78746  21913644.3204                   21913643.9264
  -4945056.28048  -3836461.43946  21836488.3984                   21836485.6914
 -38287810.94948 -29818179.36845  22233179.3594                   22233174.9614
  21575568.55746  16826515.09443  25145429.3524                   25145426.0394
 11  8 19  2 50  0.0000000  0  9G12G30G26G05G15G25G29G02G21
 -23375417.03947 -18198921.20645  22431390.1024                   22431387.0394
 -11099568.57448  -8628515.05545  22162537.6644                   22162536.0984
   3669733.57047   2877741.01645  22773391.3204                   22773389.3834
 -26710778.21547 -20797655.01746  20971469.4304                   20971466.7894
  13408339.65146  10466486.94244  23625364.3364                   23625361.5474
 -13259073.72448 -10311874.21746  21906891.1094                   21906891.5234
  -5086990.07648  -3947059.15446  21809478.8134                   21809476.3324
 -38312768.86447 -29837627.09445  22228430.1334                   22228425.2464
  21450764.20346  16729265.03243  25121679.3914                   25121677.1214
 11  8 19  2 50 30.0000000  0  9G12G30G26G05G15G25G29G02G21
 -23360812.17847 -18187540.79745  22434169.2424                   22434166.3404
 -11117752.11247  -8642684.04645  22159077.6174                   22159076.3364
   3516912.12447   2758659.39645  22744309.8594                   22744308.5354
 -26725362.30348 -20809019.24046  20968694.5944                   20968691.1804
  13243616.81947  10338131.56444  23594018.0474                   23594015.9614
 -13294069.89748 -10339143.96546  21900231.5394                   21900231.6564
  -5228734.59648  -4057509.39546  21782506.0004                   21782503.8244
 -38337651.81448 -29857016.40045  22223695.1484                   22223690.1804
  21325948.97746  16632006.50543  25097927.6804                   25097925.8164
 11  8 19  2 51  0.0000000  0  9G12G30G26G05G15G25G29G02G21
 -23345961.70347 -18175969.01445  22436995.2584                   22436992.6994
 -11135501.89247  -8656515.03945  22155699.4614                   22155697.8524
   3364361.20647   2639788.56345  22715280.7194                   22715279.3794
 -26739566.19048 -20820087.18946  20965991.3674                   20965988.3284
  13078919.40047  10209795.97744  23562676.6564                   23562674.9804
 -13328576.12548 -10366031.91246  21893665.0084                   21893665.4304
  -5370288.59248  -4167811.15946  21755568.8054                   21755566.0984
 -38362459.96448 -29876347.42745  22218973.9924                   22218968.9844
  21201121.06746  16534738.08143  25074173.0394                   25074172.0944
 11  8 19  2 51 30.0000000  0  9G12G30G26G05G15G25G29G02G21
 -23330869.52847 -18164208.88745  22439867.2814                   22439864.8754
 -11152821.36047  -8670010.72745  22152404.4144                   22152402.4494
   3212083.59947   2521130.73045  22686303.3754                   22686300.6914
 -26753393.27047 -20830861.52646  20963360.4064                   20963357.0124
  12914249.49247  10081481.84344  23531340.6954                   23531340.1804
 -13362595.13448 -10392540.21746  21887191.7814                   21887191.4654
  -5511650.22948  -4277963.05346  21728668.8204                   21728666.5394
 -38387194.37848 -29895621.00645  22214267.3444                   22214262.5314
  21076279.35546  16437458.84543  25050417.0394                   25050416.0124
 11  8 19  2 52  0.0000000  0  9G12G30G26G05G15G25G29G02G21
 -23315538.64847 -18152262.77245  22442785.0864                   22442782.0744
 -11169713.06647  -8683173.08145  22149189.6254                   22149188.3554
   3060082.92847   2402688.69545  22657378.2664                   22657376.5004
 -26766845.56548 -20841343.82346  20960800.1804                   20960797.4384
  12749610.23046   9953191.57244  23500011.3134                   23500008.6604
 -13396128.74948 -10418670.30446  21880810.4384                   21880810.2894
  -5652817.34048  -4387963.36046  21701805.4774                   21701803.4264
 -38411854.27248 -29914836.51245  22209574.4384                   22209570.4414
  20951423.56746  16340168.79143  25026657.1024                   25026657.0314
 11  8 19  2 52 30.0000000  0  9G12G30G26G05G15G25G29G02G21
 -23299974.51947 -18140134.86845  22445745.9694                   22445744.0164
 -11186182.57847  -8696006.47645  22146055.6174                   22146054.3554
   2908360.07047   2284463.09745  22628506.2424                   22628504.5514
 -26779928.56648 -20851538.36346  20958310.6644                   20958307.5704
  12585001.55946   9824925.14144  23468687.1414                   23468684.6914
 -13429181.83648 -10444425.94746  21874520.5234                   21874520.4184
  -5793790.31248  -4497812.39546  21674979.1724                   21674976.2774
 -38436442.43648 -29933996.11245  22204895.9304                   22204891.3954
  20826550.34246  16242865.08143  25002894.7894                   25002893.7074
 11  8 19  2 53  0.0000000  0  9G12G30G26G05G15G25G29G02G21
 -23284176.05347 -18127824.40045  22448752.6644                   22448749.9844
 -11202228.04247  -8708509.42345  22143002.6644                   22143000.7504
   2756923.38647   2166460.52045  22599688.6484                   22599686.9264
 -26792640.06748 -20861443.41946  20955891.7034                   20955888.8164
  12420431.33246   9696688.66044  23437370.1254                   23437368.5394
 -13461751.83548 -10469805.14846  21868322.6954                   21868322.3484
  -5934562.57648  -4607505.02846  21648191.0004                   21648188.4774
 -38460954.06747 -29953096.07345  22200231.4454                   22200227.0904
  20701663.64246  16145550.80443  24979129.8444                   24979127.6214
 11  8 19  2 53 30.0000000  0  9G12G30G26G05G15G25G29G02G21
 -23268144.66347 -18115332.40845  22451803.3364                   22451800.3594
 -11217850.53547  -8720682.80345  22140029.6254                   22140027.8594
   2605778.02447   2048684.94745  22570926.9694                   22570924.4264
 -26804980.55448 -20871059.37246  20953543.2974                   20953540.3164
  12255903.82147   9568485.48244  23406062.7344                   23406060.1564
 -13493839.09448 -10494808.19546  21862217.0474                   21862216.2274
  -6075129.77348  -4717037.86846  21621442.0164                   21621439.0744
 -38485387.42848 -29972135.03645  22195581.9534                   22195576.9734
  20576764.30746  16048226.75843  24955362.4384                   24955359.8914
 11  8 19  2 54  0.0000000  0  9G12G30G26G05G15G25G29G02G21
 -23251886.26347 -18102663.52245  22454896.8364                   22454894.5354
 -11233055.80347  -8732531.05845  22137136.1094                   22137134.5354
   2454924.67747   1931136.91445  22542221.0704                   22542218.5944
 -26816955.55148 -20880390.53046  20951264.6564                   20951261.2774
  12091419.15847   9440315.67445  23374762.0394                   23374759.5904
 -13525448.65948 -10519439.02646  21856201.6884                   21856201.7894
  -6215492.92448  -4826411.71346  21594731.3914                   21594728.6684
 -38509745.25747 -29991115.14345  22190947.5314                   22190941.7034
  20451848.93146  15950890.18043  24931591.1174                   24931588.9574
 11  8 19  2 54 30.0000000  0  9G12G30G26G05G15G25G29G02G21
 -23235404.11847 -18089820.31345  22458033.3284                   22458031.2774
 -11247846.52147  -8744056.29945  22134321.2424                   22134319.6804
   2304367.07247   1813819.34645  22513570.3054                   22513567.3404
 -26828567.68748 -20889438.92946  20949054.8754                   20949051.5044
  11926980.43747   9312181.66845  23343470.0784                   23343468.0124
 -13556582.65448 -10543699.27646  21850276.8364                   21850277.1914
  -6355649.72148  -4935624.75346  21568060.5784                   21568058.3554
 -38534027.28047 -30010036.21145  22186325.7114                   22186320.6994
  20326916.61846  15853540.53043  24907817.6334                   24907816.0234
 11  8 19  2 55  0.0000000  0  9G12G30G26G05G15G25G29G02G21
 -23218701.08247 -18076804.99345  22461211.8444                   22461209.7894
 -11262225.54347  -8755260.72745  22131584.9844                   22131583.4734
   2154108.76047   1696734.97745  22484976.9614                   22484973.8364
 -26839819.09248 -20898206.25346  20946913.7734                   20946911.0824
  11762590.78247   9184085.88345  23312187.5084                   23312185.6724
 -13587243.04148 -10567590.46946  21844442.2584                   21844442.1884
  -6495597.60048  -5044675.01746  21541428.9694                   21541427.1484
 -38558233.40048 -30028898.09145  22181719.8754                   22181714.4804
  20201966.98546  15756177.20342  24884040.6954                   24884037.1524
 11  8 19  2 55 30.0000000  0  9G12G30G26G05G15G25G29G02G21
 -23201778.11547 -18063618.29945  22464432.3754                   22464430.1884
 -11276193.44347  -8766144.78945  22128926.7504                   22128925.9534
   2004155.51247   1579888.32945  22456442.1024                   22456439.9144
 -26850709.93548 -20906692.63046  20944841.2894                   20944838.2734
  11598255.11547   9056032.18945  23280915.2894                   23280913.6914
 -13617429.75448 -10591112.57646  21838698.3444                   21838697.7304
  -6635332.36548  -5153559.21946  21514838.7814                   21514836.4804
 -38582361.04548 -30047698.85945  22177128.2344                   22177122.9534
  20077001.64146  15658801.72143  24860259.6564                   24860258.7384
 11  8 19  2 56  0.0000000  0  9G12G30G26G05G15G25G29G02G21
 -23184639.14847 -18050263.26845  22467694.4454                   22467691.2624
 -11289753.93747  -8776711.41945  22126346.5864                   22126344.7504
   1854510.05847   1463281.52444  22427965.0394                   22427962.5744
 -26861243.90648 -20914900.91246  20942836.7664                   20942833.5084
  11433975.50547   8928022.15844  23249653.5234                   23249651.7974
 -13647145.87148 -10614267.99546  21833043.5394                   21833043.2424
  -6774852.55648  -5262276.22046  21488288.9064                   21488286.0354
 -38606410.96747 -30066439.06845  22172552.0314                   22172547.1484
  19952019.21146  15561412.87942  24836476.5554                   24836473.8284
 11  8 19  2 56 30.0000000  0  9G12G30G26G05G15G25G29G02G21
 -23167287.95747 -18036742.88345  22470994.9534                   22470992.9224
 -11302910.39147  -8786963.20345  22123843.2274                   22123841.3554
   1705175.58547   1346916.99345  22399547.5784                   22399545.7934
 -26871423.83548 -20922833.32146  20940899.6644                   20940896.4964
  11269754.24547   8800057.59544  23218403.4224                   23218402.2854
 -13676394.07848 -10637058.80346  21827477.5864                   21827477.2934
  -6914156.42648  -5370824.64646  21461780.5784                   21461777.8364
 -38630383.27247 -30085118.78245  22167990.0164                   22167984.8284
  19827018.47146  15464009.75843  24812689.7344                   24812687.6134
 11  8 19  2 57  0.0000000  0  9G12G30G26G05G15G25G29G02G21
 -23149724.63247 -18023057.18745  22474337.7584                   22474335.7854
 -11315662.70747  -8796900.08545  22121416.0234                   22121414.0704
   1556158.53347   1230799.85345  22371190.5864                   22371188.1024
 -26881249.00848 -20930489.29446  20939029.9924                   20939027.2584
  11105597.51847   8672143.33844  23187165.0234                   23187163.1564
 -13705173.58248 -10659484.39246  21822001.3834                   21822000.8014
  -7053238.58248  -5479200.30346  21435313.7344                   21435311.2114
 -38654274.82747 -30103735.55745  22163443.7424                   22163438.9654
  19702001.84446  15366594.28543  24788899.9614                   24788897.8164
 11  8 19  2 57 30.0000000  0  9G12G30G26G05G15G25G29G02G21
 -23131952.60647 -18009208.87145  22477719.7424                   22477717.5704
 -11328014.00147  -8806524.47945  22119066.0634                   22119063.9104
   1407462.35947   1114932.75245  22342895.2894                   22342893.0864
 -26890722.28748 -20937871.06746  20937226.9454                   20937224.1094
  10941508.04247   8544281.46244  23155939.7424                   23155938.3134
 -13733486.93348 -10681546.73846  21816613.4534                   21816613.5354
  -7192097.29948  -5587401.87146  21408889.7114                   21408887.5784
 -38678086.05448 -30122289.77245  22158912.4304                   22158907.8054
  19576968.37446  15269165.68643  24765107.6954                   24765105.5904
 11  8 19  2 58  0.0000000  0  9G12G30G26G05G15G25G29G02G21
 -23113978.00347 -17995202.70845  22481139.9534                   22481137.5664
 -11339970.08947  -8815840.91245  22116790.8914                   22116788.6334
   1259087.51647    999316.02145  22314660.1334                   22314657.4574
 -26899849.11348 -20944982.88446  20935490.3284                   20935487.4264
  10777486.04347   8416472.14744  23124728.1174                   23124725.5634
 -13761339.28448 -10703249.86346  21811312.9924                   21811312.8134
  -7330732.94948  -5695429.61146  21382508.2424                   21382506.3984
 -38701819.46447 -30140783.34545  22154396.1484                   22154390.6174
  19451914.78046  15171721.40543  24741309.9534                   24741307.6804
 11  8 19  2 58 30.0000000  0  9G12G30G26G05G15G25G29G02G21
 -23095804.38247 -17981041.46345  22484598.5084                   22484596.1484
 -11351534.76047  -8824852.35545  22114590.4384                   22114588.0864
   1111036.94447    883951.97045  22286486.8284                   22286485.1294
 -26908632.79048 -20951827.31846  20933819.1564                   20933815.9224
  10613533.04147   8288716.60244  23093528.6334                   23093526.5044
 -13788733.70548 -10724596.17846  21806099.9304                   21806099.9184
  -7469144.45148  -5803282.69746  21356169.5004                   21356167.4454
 -38725475.62347 -30159216.71145  22149894.5704                   22149888.9694
  19326839.43646  15074260.19743  24717508.7424                   24717506.2504
 11  8 19  2 59  0.0000000  0  9G12G30G26G05G15G25G29G02G21
 -23077433.63147 -17966726.61945  22488094.2664                   22488091.5354
 -11362709.10747  -8833559.63445  22112464.2974                   22112462.4924
    963315.82847    768844.63845  22258376.5164                   22258374.6174
 -26917074.11548 -20958404.97746  20932212.6954                   20932210.0944
  10449654.42147   8161019.03244  23062343.4224                   23062341.7974
 -13815670.63948 -10745585.99546  21800974.0784                   21800974.6094
  -7607327.51848  -5910957.77046  21329874.0634                   21329871.7894
 -38749052.54747 -30177588.34145  22145408.3914                   22145402.6684
  19201743.56846  14976782.99043  24693703.5084                   24693701.9804
 11  8 19  2 59 30.0000000  0  9G12G30G26G05G15G25G29G02G21
 -23058868.63147 -17952260.39145  22491627.2974                   22491625.2624
 -11373495.90647  -8841964.94145  22110411.5234                   22110409.6414
    815927.78747    653996.84645  22230329.3594                   22230327.3164
 -26925175.55248 -20964717.77446  20930670.7424                   20930668.0944
  10285852.90647   8033381.52744  23031172.9844                   23031171.0984
 -13842152.33248 -10766221.08546  21795935.2504                   21795934.8914
  -7745279.66248  -6018452.91546  21303622.1954                   21303620.1174
 -38772549.86947 -30195897.94945  22140937.0084                   22140932.2154
  19076626.56346  14879289.18343  24669893.5314                   24669892.3014
 11  8 19  3  0  0.0000000  0  9G12G30G26G05G15G25G29G02G21
 -23040111.67647 -17937644.60645  22495196.8914                   22495194.7194
 -11383897.68647  -8850070.24745  22108431.6804                   22108429.8404
    668877.00047    539411.84145  22202346.4454                   22202344.8914
 -26932938.99748 -20970767.21746  20929193.4614                   20929190.6844
  10122132.00447   7905806.86144  23000017.9534                   23000016.4694
 -13868180.62048 -10786502.87346  21790982.2424                   21790982.3554
  -7882998.40448  -6125766.18046  21277415.7114                   21277413.1454
 -38795966.87747 -30214144.96245  22136481.0704                   22136476.4964
  18951488.20046  14781778.90643  24646081.0704                   24646078.7074
 11  8 19  3  0 30.0000000  0  9G12G30G26G05G15G25G29G02G21
 -21445748.46047 -16695283.70445  22798593.8284                   22798591.4654
  -9818498.48847  -7630278.67045  22406317.1094                   22406315.2584
   2097590.46447   1652695.09345  22474221.9144                   22474219.4964
 -25364948.23947 -19748956.22446  21227572.4064                   21227569.3834
  11533918.96847   9005900.66244  23268672.3834                   23268669.9184
 -12318338.41748  -9578833.63746  22085907.0474                   22085906.8874
  -6445057.97448  -5005293.08446  21551046.4534                   21551044.5354
 -37243883.99947 -29004729.73145  22431831.7274                   22431827.1644
  20401750.81046  15911853.75043  24922057.2664                   24922054.9614
 11  8 19  3  1  0.0000000  0  9G12G30G26G05G15G25G29G02G21
 -21426622.89047 -16680380.67145  22802233.6254                   22802231.3404
  -9828144.17647  -7637794.82545  22404482.7504                   22404480.6914
   1951219.61747   1538639.90445  22446368.2974                   22446366.0204
 -25372048.26148 -19754488.71146  21226221.3054                   21226218.4574
  11370363.74547   8878455.05145  23237548.7424                   23237546.5514
 -12343471.92048  -9598418.17946  22081124.4844                   22081123.8014
  -6582307.21848  -5112240.49946  21524928.6804                   21524926.0394
 -37267144.67947 -29022854.93745  22427405.5004                   22427400.9614
  20276563.52246  15814305.27043  24898235.1094                   24898232.9304
 11  8 19  3  1 30.0000000  0  9G12G30G26G05G15G25G29G02G21
 -21407315.02747 -16665335.61045  22805907.7734                   22805905.4654
  -9837413.72047  -7645017.85545  22402718.4774                   22402716.0824
   1805196.63247   1424855.78945  22418581.4224                   22418578.0474
 -25378817.90448 -19759763.76046  21224933.0634                   21224929.7074
  11206898.18847   8751079.37245  23206442.7114                   23206440.5554
 -12368159.10248  -9617654.95346  22076426.7664                   22076426.4224
  -6719316.39148  -5219000.86646  21498856.5004                   21498854.1454
 -37290324.48247 -29040917.13345  22422994.7114                   22422990.0744
  20151353.16946  15716738.86643  24874407.3204                   24874406.4654
 11  8 19  3  2  0.0000000  0  9G12G30G26G05G15G25G29G02G21
 -21387827.53547 -16650150.58945  22809615.8984                   22809614.2464
  -9846309.39247  -7651949.55545  22401025.1414                   22401022.9414
   1659525.42947   1311345.78745  22390860.8204                   22390858.4574
 -25385258.87448 -19764782.70746  21223707.6024                   21223704.3754
  11043526.02747   8623776.42745  23175353.6884                   23175350.9104
 -12392401.69647  -9636545.29046  22071813.3204                   22071813.5044
  -6856082.24848  -5325571.61146  21472830.5474                   21472828.3524
 -37313422.47446 -29058915.58345  22418598.9384                   22418594.7584
  20026119.66346  15619154.39044  24850577.2584                   24850575.9774
 11  8 19  3  2 30.0000000  0  9G12G30G26G05G15G25G29G02G21
 -21368163.92147 -16634828.31845  22813357.6414                   22813355.4384
  -9854834.86947  -7658592.79945  22399402.5704                   22399400.6884
   1514209.21847   1198112.40745  22363208.1174                   22363205.6994
 -25391374.22148 -19769547.90046  21222543.7194                   21222540.4734
  10880249.44747   8496547.94945  23144282.8054                   23144281.7974
 -12416202.62248  -9655091.47146  22067284.3524                   22067284.1684
  -6992602.80248  -5431951.21846  21446852.0394                   21446849.3754
 -37336438.93747 -29076850.52145  22414219.8364                   22414215.0984
  19900862.19346  15521551.25543  24826741.8134                   24826740.4144
 11  8 19  3  3  0.0000000  0  9G12G30G26G05G15G25G29G02G21
 -21348327.13847 -16619371.10645  22817132.5864                   22817130.5594
  -9862992.75647  -7664949.59845  22397850.3674                   22397848.6954
   1369251.97447   1085158.76445  22335623.3054                   22335621.9224
 -25397166.19148 -19774061.11946  21221442.0864                   21221438.9144
  10717071.98747   8369396.71745  23113231.1254                   23113229.6764
 -12439563.95848  -9673295.11546  22062838.9384                   22062839.1954
  -7128875.73048  -5538137.88146  21420920.0554                   21420917.5944
 -37359372.93647 -29094721.15845  22409855.2734                   22409850.5004
  19775580.46846  15423929.18643  24802900.3524                   24802898.4024
 11  8 19  3  3 30.0000000  0  9G12G30G26G05G15G25G29G02G21
 -21328320.17247 -16603781.30245  22820940.0474                   22820937.7304
  -9870786.43647  -7671022.62345  22396367.6484                   22396365.4144
   1224656.54147    972487.04245  22308107.7274                   22308106.1374
 -25402637.82648 -19778324.71446  21220400.3204                   21220397.2074
  10553996.52247   8242324.97545  23082199.4384                   23082196.8134
 -12462488.45648  -9691158.36946  22058476.6724                   22058475.5274
  -7264899.07248  -5644130.04946  21395036.0944                   21395033.5004
 -37382225.00547 -29112527.97145  22405506.8984                   22405501.7304
  19650273.32346  15326287.37943  24779055.5784                   24779053.2344
 11  8 19  3  4  0.0000000  0  9G12G30G26G05G15G25G29G02G21
 -21308148.08947 -16588062.81345  22824778.8674                   22824776.1054
  -9878220.11947  -7676815.09945  22394952.6254                   22394950.9494
   1080425.21547    860099.00645  22280661.5234                   22280659.5234
 -25407792.95348 -19782341.69146  21219419.2664                   21219416.3714
  10391024.41447   8115333.76945  23051186.1954                   23051184.4024
 -12484979.91348  -9708684.18546  22054196.6564                   22054196.7344
  -7400671.67448  -5749926.84246  21369199.3834                   21369196.9534
 -37404995.95447 -29130271.59345  22401173.7424                   22401168.8134
  19524939.17246  15228624.57943  24755205.3524                   24755200.9654
 11  8 19  3  4 30.0000000  0  9G12G30G26G05G15G25G29G02G21
 -21287814.55047 -16572218.49845  22828647.8834                   22828645.5124
  -9885297.71547  -7682330.13945  22393605.4384                   22393603.7704
    936560.78947    747996.89045  22253285.2734                   22253281.9804
 -25412634.56248 -19786114.35646  21218497.4774                   21218494.8834
  10228158.37247   7988425.22645  23020194.3444                   23020191.8244
 -12507041.42948  -9725874.98546  22049998.2344                   22049998.1024
  -7536191.83848  -5855526.92946  21343410.5004                   21343407.8634
 -37427686.31447 -29147952.40245  22396855.9924                   22396850.8674
  19399576.76546  15130939.70344  24731349.3674                   24731347.4844
 11  8 19  3  5  0.0000000  0 10G12G30G26G18G05G15G25G29G02G21
 -21267324.23747 -16556252.04145  22832547.2734                   22832544.3874
  -9892023.60947  -7687571.07745  22392326.1884                   22392324.8054
    793065.45147    636182.36145  22225978.9844                   22225976.4804
  24972048.88255  19477106.60952  24701720.7344                   24701718.4184
 -25417166.71148 -19789645.90046  21217635.7664                   21217632.7624
  10065399.67047   7861600.31745  22989222.5164                   22989219.8554
 -12528676.94547  -9742733.83046  22045881.0004                   22045880.3244
  -7671458.98148  -5960929.87046  21317669.8594                   21317667.6884
 -37450297.15946 -29165571.26245  22392553.0164                   22392548.9654
  19274183.94646  15033231.12243  24707487.9454                   24707485.2194
 11  8 19  3  5 30.0000000  0 10G12G30G26G18G05G15G25G29G02G21
 -21246682.99147 -16540167.96745  22836475.0634                   22836472.7624
  -9898403.76147  -7692542.63345  22391111.1024                   22391109.9104
    649939.50147    524655.68745  22198743.0004                   22198740.9614
  24813483.57045  19353549.47342  24671546.9454                   24671546.0044
 -25421394.91948 -19792940.61246  21216830.9144                   21216828.1414
   9902748.58547   7734859.25245  22958270.2344                   22958267.6174
 -12549891.96448  -9759265.02346  22041844.0704                   22041843.9774
  -7806473.56848  -6066136.00346  21291977.7114                   21291975.3874
 -37472831.19647 -29183130.26145  22388264.3594                   22388260.3324
  19148757.03646  14935495.96743  24683619.1484                   24683617.4774
 11  8 19  3  6  0.0000000  0 10G12G30G26G18G05G15G25G29G02G21
 -21225893.74747 -16523968.56345  22840430.8914                   22840428.3404
  -9904440.97947  -7697246.96245  22389963.3284                   22389961.6604
    507186.97747    413419.97845  22171577.5704                   22171576.1174
  24655063.83146  19230105.78142  24641400.8054                   24641398.6484
 -25425321.33848 -19796000.13546  21216083.6024                   21216080.5554
   9740208.36747   7608204.59345  22927339.7664                   22927338.3164
 -12570688.60048  -9775470.19046  22037886.7504                   22037886.4614
  -7941232.89248  -6171143.23846  21266333.7194                   21266330.9304
 -37495287.65648 -29200628.79145  22383991.9694                   22383986.9494
  19023296.04246  14837734.30943  24659744.8754                   24659744.0634
 11  8 19  3  6 30.0000000  0 10G12G30G26G18G05G15G25G29G02G21
 -21204955.23647 -16507652.85745  22844415.5164                   22844413.3164
  -9910133.89347  -7701682.99145  22388879.9694                   22388877.9064
    364815.71347    302481.37645  22144485.6484                   22144483.6094
  24496795.11446  19106779.83243  24611282.5864                   24611281.3014
 -25428944.10948 -19798823.07346  21215394.2274                   21215391.7544
   9577786.25647   7481641.95045  22896431.9844                   22896429.9534
 -12591065.02548  -9791347.93946  22034008.8284                   22034008.7894
  -8075730.39648  -6275946.45946  21240739.4534                   21240736.8954
 -37517662.20847 -29218063.52145  22379733.8594                   22379729.2304
  18897804.87646  14739949.10943  24635866.0004                   24635864.5204
 11  8 19  3  7  0.0000000  0 10G12G30G26G18G05G15G25G29G02G21
 -21183868.07347 -16491221.32645  22848427.9774                   22848425.9144
  -9915483.12547  -7705851.23845  22387861.6024                   22387859.6914
    222831.51047    191844.35945  22117466.4844                   22117464.4064
  24338681.19346  18983574.39142  24581193.6564                   24581193.2734
 -25432263.21548 -19801409.39346  21214762.6884                   21214759.6294
   9415488.34647   7355176.09745  22865547.8834                   22865545.6764
 -12611021.22248  -9806898.22446  22030211.3594                   22030211.3594
  -8209961.09748  -6380541.77846  21215196.2734                   21215193.5554
 -37539951.85347 -29235432.09145  22375492.3054                   22375487.8094
  18772285.39346  14642141.83343  24611979.1094                   24611978.3204
 11  8 19  3  7 30.0000000  0 10G12G30G26G18G05G15G25G29G02G21
 -21162634.48947 -16474675.66245  22852468.9614                   22852466.5274
  -9920490.92747  -7709753.42845  22386909.0784                   22386907.3834
     81238.60747     81512.25345  22090522.3754                   22090519.9804
  24180724.44946  18860491.48243  24551136.1644                   24551134.8674
 -25435280.62948 -19803760.60646  21214188.5164                   21214185.4694
   9253318.08647   7228809.68745  22834687.7664                   22834685.9574
 -12630559.00248  -9822122.47246  22026493.5314                   22026493.6454
  -8343922.02048  -6484926.88846  21189704.1884                   21189701.4064
 -37562155.40147 -29252733.55045  22371267.0944                   22371263.1994
  18646737.71146  14544312.62043  24588088.6884                   24588086.6334
 11  8 19  3  8  0.0000000  0 10G12G30G26G18G05G15G25G29G02G21
 -21141254.01547 -16458015.58145  22856537.2814                   22856535.2934
  -9925156.51447  -7713388.95545  22386020.8834                   22386018.6564
    -59955.42847    -28509.05145  22063653.4224                   22063651.7114
  24022929.57046  18737534.65642  24521107.3984                   24521107.3754
 -25437994.56948 -19805875.36146  21213672.1884                   21213668.7304
   9091282.28147   7102548.07145  22803853.2894                   22803850.9884
 -12649677.03448  -9837019.64246  22022855.4614                   22022855.5044
  -8477606.98748  -6589096.97046  21164264.4774                   21164261.6484
 -37584269.05747 -29269965.01045  22367059.2504                   22367054.7234
  18521165.01246  14446463.82443  24564192.2034                   24564190.4064
 11  8 19  3  8 30.0000000  0 10G12G30G26G18G05G15G25G29G02G21
 -21119732.17347 -16441245.33545  22860632.8054                   22860631.4734
  -9929485.50847  -7716762.18845  22385196.9924                   22385195.7034
   -200749.95347   -138219.02545  22036861.4224                   22036859.3204
  23865295.33546  18614702.95743  24491110.8284                   24491110.1414
 -25440410.36748 -19807757.80146  21213212.0234                   21213209.2464
   8929381.63347   6976391.75345  22773044.6564                   22773042.0434
 -12668380.38648  -9851593.69046  22019296.3134                   22019295.8284
  -8611016.00948  -6693052.03746  21138877.6804                   21138875.1294
 -37606294.53047 -29287127.70945  22362867.8524                   22362863.0354
  18395564.63146  14348593.51843  24540290.4614                   24540288.0864
 11  8 19  3  9  0.0000000  0 10G12G30G26G18G05G15G25G29G02G21
 -21098071.34147 -16424366.79245  22864755.1024                   22864752.6454
  -9933480.41346  -7719875.12545  22384436.7814                   22384436.1994
   -341140.74647   -247614.42745  22010145.8984                   22010144.0984
  23707823.54246  18491997.84743  24461144.3204                   24461143.9454
 -25442529.73448 -19809409.26746  21212808.7664                   21212805.7814
   8767619.88347   6850343.66245  22742262.6884                   22742260.3404
 -12686671.14148  -9865846.22546  22015815.8204                   22015815.1524
  -8744146.51648  -6796790.06246  21113543.7424                   21113541.1764
 -37628231.18947 -29304221.20945  22358693.4454                   22358689.0704
  18269936.42446  14250701.47643  24516383.7194                   24516382.4144
 11  8 19  3  9 30.0000000  0 10G12G30G26G18G05G15G25G29G02G21
 -21076276.47147 -16407383.79745  22868902.1484                   22868899.9534
  -9937146.14946  -7722731.53545  22383739.5634                   22383737.5124
   -481126.41547   -356694.14245  21983508.1254                   21983505.8874
  23550513.46046  18369418.82243  24431210.0554                   24431208.8834
 -25444357.26047 -19810833.31046  21212461.3524                   21212458.5124
   8605998.22747   6724404.76345  22711507.0164                   22711504.3404
 -12704553.62948  -9879780.63446  22012412.8594                   22012413.0234
  -8876997.87548  -6900310.58746  21088263.1884                   21088260.9534
 -37650080.34447 -29321246.52645  22354535.9614                   22354530.7934
  18144278.03446  14152786.08843  24492472.2114                   24492471.0824
 11  8 19  3 10  0.0000000  0 10G12G30G26G18G05G15G25G29G02G21
 -21054348.11047 -16390296.78345  22873075.7664                   22873071.9454
  -9940483.21447  -7725331.86645  22383104.2344                   22383102.9304
   -620700.64247   -465453.25145  21956947.4144                   21956945.3634
  23393369.23946  18246968.86943  24401305.7664                   24401304.9534
 -25445892.66548 -19812029.70946  21212168.9454                   21212165.7504
   8444522.44347   6598579.52345  22680778.8524                   22680776.5594
 -12722027.86248  -9893396.92746  22009087.6254                   22009087.8594
  -9009564.86348  -7003609.51946  21063036.8364                   21063033.4804
 -37671839.22647 -29338201.50645  22350395.5864                   22350390.7544
  18018591.66146  14054848.78843  24468554.3834                   24468554.1174
 11  8 19  3 10 30.0000000  0 10G12G30G26G18G05G15G25G29G02G21
 -21032292.63847 -16373110.69745  22877272.1884                   22877269.6604
  -9943497.89047  -7727680.95745  22382530.2344                   22382529.1214
   -759863.55247   -573891.85245  21930465.6724                   21930463.4024
  23236388.87446  18124646.73343  24371434.1724                   24371431.8914
 -25447142.02748 -19813003.24046  21211931.2974                   21211928.4384
   8283192.35247   6472867.78845  22650078.7504                   22650076.5004
 -12739099.62948  -9906699.60946  22005838.9064                   22005839.2424
  -9141848.48548  -7106687.63346  21037863.6484                   21037860.9534
 -37693510.32347 -29355088.08245  22346271.2344                   22346267.2154
  17892873.72946  13956886.89543  24444632.2114                   24444630.7544
 11  8 19  3 11  0.0000000  0 10G12G30G26G18G05G15G25G29G02G21
 -21010113.51547 -16355828.28545  22881493.0234                   22881489.9344
  -9946193.92347  -7729781.77045  22382017.5634                   22382016.2544
   -898611.97947   -682007.47345  21904062.8284                   21904060.5904
  23079572.91846  18002452.58443  24341592.4454                   24341592.2194
 -25448107.80148 -19813755.79046  21211747.6644                   21211744.1564
   8122010.31347   6347271.42245  22619406.9774                   22619405.0204
 -12755772.16148  -9919691.19746  22002666.5164                   22002666.3134
  -9273847.10048  -7209543.66746  21012745.2344                   21012742.9734
 -37715094.39347 -29371906.84845  22342164.1804                   22342159.5164
  17767122.97346  13858899.41043  24420703.2974                   24420701.1684
 11  8 19  3 11 30.0000000  0 10G12G30G26G18G05G15G25G29G02G21
 -20987812.15547 -16338450.61345  22885737.0234                   22885734.2664
  -9948572.46747  -7731635.20945  22381565.1804                   22381563.4104
  -1036940.75847   -789796.10045  21877739.8524                   21877737.5704
  22922924.49646  17880389.01243  24311783.1174                   24311781.7544
 -25448790.98948 -19814288.14346  21211617.6564                   21211614.7664
   7960982.13547   6221794.98145  22588764.5084                   22588761.8364
 -12772046.18448  -9932372.24946  21999569.5394                   21999569.2704
  -9405556.38748  -7312174.25646  20987681.9384                   20987679.1764
 -37736588.89947 -29388655.81945  22338073.6024                   22338068.6254
  17641340.84146  13760887.47343  24396767.3594                   24396765.7274
 11  8 19  3 12  0.0000000  0 10G12G30G26G18G05G15G25G29G02G21
 -19389971.30747 -15093379.83345  23189795.9774                   23189793.2464
  -8375215.61247  -6505642.87745  22680965.1174                   22680963.4414
    400579.06747    330349.25145  22151290.9454                   22151288.3484
  24341871.11346  18986061.83343  24581799.1484                   24581797.0984
 -23873772.84448 -18587001.27346  21511333.5944                   21511330.2664
   9375536.14547   7324044.91645  22857945.3444                   22857942.7704
 -11212502.86248  -8717143.71046  22296340.6804                   22296340.5784
  -7961548.47448  -6186973.24546  21262467.7344                   21262464.6844
 -36182572.01247 -28177733.57645  22633793.3284                   22633788.2194
  19090951.75746  14890454.56043  24672618.5084                   24672616.2234
 11  8 19  3 12 30.0000000  0 10G12G30G26G18G05G15G25G29G02G21
 -19367433.71947 -15075818.09045  23194084.5944                   23194081.8094
  -8376967.55247  -6507008.03245  22680631.7894                   22680629.3244
    263100.73647    223223.31545  22125128.9774                   22125126.9804
  24185562.29646  18864262.93943  24552054.6024                   24552053.0744
 -23873897.01448 -18587098.00246  21511310.3914                   21511306.9384
   9214823.54147   7198814.35345  22827361.4924                   22827360.0944
 -11227986.90848  -8729209.21446  22293394.2114                   22293394.1804
  -8092670.70648  -6289146.39346  21237515.5004                   21237512.9734
 -36203885.53047 -28194341.53045  22629737.5784                   22629732.7344
  18965106.21146  14792393.25343  24648669.6414                   24648667.7464
 11  8 19  3 13  0.0000000  0 10G12G30G26G18G05G15G25G29G02G21
 -19344783.31247 -15058168.43145  23198395.0474                   23198392.1174
  -8378411.87847  -6508133.49445  22680356.5234                   22680354.0984
    126051.59047    116431.78545  22099049.7034                   22099047.5944
  24029424.38046  18742597.11543  24522342.1254                   24522340.1804
 -23873746.45147 -18586980.67346  21511338.5944                   21511335.5664
   9054273.38846   7073710.37845  22796810.2584                   22796808.4304
 -11243080.80448  -8740970.68945  22290521.7114                   22290522.0204
  -8223497.19447  -6391089.07346  21212620.3594                   21212617.6214
 -36225108.62547 -28210879.00545  22625698.5634                   22625693.9144
  18839227.19246  14694305.85643  24624716.5004                   24624713.8094
 11  8 19  3 13 30.0000000  0 10G12G30G26G18G05G15G25G29G02G21
 -19322022.43047 -15040432.69744  23202725.8054                   23202723.0784
  -8379550.65547  -6509020.88645  22680140.2194                   22680137.7504
    -10563.72847      9978.32945  22073052.7034                   22073050.7854
  23873459.13046  18621065.91043  24492663.2424                   24492661.2704
 -23873322.69048 -18586650.46946  21511419.4064                   21511415.9884
   8893889.19147   6948735.73045  22766290.2814                   22766288.4884
 -11257786.31048  -8752429.54845  22287723.5634                   22287723.3634
  -8354024.72748  -6492798.80946  21187781.8364                   21187779.2894
 -36246240.19447 -28227345.16645  22621677.8204                   22621672.8554
  18713315.57647  14596193.02143  24600756.3524                   24600753.9384
 11  8 19  3 14  0.0000000  0 10G12G30G26G18G05G15G25G29G02G21
 -19299155.72047 -15022614.48545  23207077.0394                   23207074.6484
  -8380388.51747  -6509673.78745  22679981.2504                   22679978.1174
   -146743.40247    -96135.68045  22047138.9224                   22047136.5744
  23717666.60246  18499669.27143  24463017.4454                   24463015.5864
 -23872629.69548 -18586110.48146  21511550.8754                   21511548.2584
   8733672.84947   6823891.87845  22735802.7974                   22735800.0554
 -11272107.65448  -8763589.03746  22284998.4844                   22284997.8554
  -8484251.81048  -6594274.42046  21163000.3284                   21162997.5274
 -36267281.44447 -28243740.94645  22617673.6564                   22617668.6644
  18587369.19147  14498053.07943  24576789.6644                   24576787.4924
 11  8 19  3 14 30.0000000  0 10G12G30G26G18G05G15G25G29G02G21
 -19276184.58447 -15004714.90645  23211448.6484                   23211446.5744
  -8380927.13347  -6510093.48145  22679878.6174                   22679876.6254
   -282482.73347   -201906.55445  22021308.3444                   22021306.1024
  23562049.32046  18378409.15642  24433404.4144                   24433401.3594
 -23871668.34448 -18585361.36246  21511733.8134                   21511731.3324
   8573628.85647   6699182.30545  22705346.7974                   22705344.1644
 -11286045.96147  -8774450.06846  22282345.7974                   22282346.2974
  -8614174.83548  -6695513.12246  21138276.7504                   21138273.9344
 -36288230.29447 -28260064.75145  22613687.0704                   22613682.1454
  18461389.25847  14399887.05543  24552816.0554                   24552814.6054
 11  8 19  3 15  0.0000000  0 10G12G30G26G18G05G15G25G29G02G21
 -19253113.10847 -14986737.16645  23215838.6804                   23215836.1294
  -8381171.00547  -6510283.54145  22679831.7584                   22679830.6484
   -417779.69747   -307332.72445  21995561.5164                   21995559.4614
  23406607.24746  18257285.59243  24403823.1414                   24403821.4804
 -23870442.51548 -18584406.18246  21511967.5554                   21511964.5864
   8413759.02047   6574608.45445  22674924.6334                   22674921.8594
 -11299605.27647  -8785015.78746  22279765.4614                   22279765.6174
  -8743792.60348  -6796513.94246  21113611.0004                   21113608.3244
 -36309087.95547 -28276317.48945  22609717.9614                   22609712.8594
  18335374.10847  14301693.53943  24528836.3524                   24528834.4844
 11  8 19  3 15 30.0000000  0 10G12G30G26G18G05G15G25G29G02G21
 -19229944.52247 -14968683.74245  23220248.0394                   23220245.8134
  -8381123.26447  -6510246.34545  22679841.3134                   22679838.4614
   -552630.92047   -412411.57745  21969900.3674                   21969898.4224
  23251341.43246  18136299.40643  24374277.0704                   24374275.5004
 -23868954.72448 -18583246.85046  21512250.5394                   21512247.4734
   8254066.49647   6450172.75445  22644536.2814                   22644533.0594
 -11312788.45547  -8795288.41046  22277256.8914                   22277256.9884
  -8873103.19948  -6897275.43146  21089004.2664                   21089001.0084
 -36329853.73047 -28292498.60845  22605766.0944                   22605761.9104
  18209322.69546  14203471.79244  24504849.1024                   24504847.5744
 11  8 19  3 16  0.0000000  0 10G12G30G26G18G05G15G25G29G02G21
 -19206683.93247 -14950558.62345  23224674.8674                   23224672.1954
  -8380788.64847  -6509985.61845  22679905.0004                   22679902.6644
   -687034.66147   -517141.74245  21944324.4924                   21944321.8874
  23096251.37446  18015450.11243  24344765.3364                   24344763.4774
 -23867208.87048 -18581886.45246  21512582.7734                   21512579.3554
   8094552.83647   6325876.43145  22614181.6174                   22614179.0514
 -11325599.64547  -8805271.17646  22274818.8984                   22274819.5354
  -9002105.54448  -6997796.70346  21064455.8364                   21064452.7854
 -36350528.80747 -28308609.07245  22601832.0314                   22601827.6414
  18083233.41646  14105220.54343  24480855.8444                   24480853.0944
 11  8 19  3 16 30.0000000  0 10G12G30G26G18G05G15G25G29G02G21
 -19183331.68147 -14932362.08545  23229118.1334                   23229115.8284
  -8380167.96947  -6509501.95145  22680023.0164                   22680020.6914
   -820985.36647   -621518.87345  21918834.3054                   21918832.6804
  22941340.75846  17894740.74343  24315286.1954                   24315284.5864
 -23865205.26448 -18580325.19946  21512964.0314                   21512960.7234
   7935223.49447   6201723.73845  22583862.8524                   22583860.0314
 -11338039.32847  -8814964.43745  22272451.8364                   22272451.3634
  -9130795.10648  -7098074.26246  21039967.1954                   21039963.8014
 -36371110.57447 -28324646.81645  22597915.5864                   22597911.0594
  17957107.92146  14006941.01243  24456853.8364                   24456851.3794
 11  8 19  3 17  0.0000000  0 10G12G30G26G18G05G15G25G29G02G21
 -19159890.80747 -14914096.50344  23233579.2274                   23233576.3554
  -8379264.30747  -6508797.81845  22680194.7814                   22680192.8524
   -954479.73547   -725540.43245  21893431.3674                   21893429.4574
  22786610.69846  17774171.85343  24285841.9064                   24285841.1054
 -23862946.16948 -18578564.87546  21513394.1254                   21513390.7544
   7776081.36347   6077716.93145  22553578.4614                   22553575.7194
 -11350110.19147  -8824370.32245  22270154.8284                   22270155.1764
  -9259169.37748  -7198106.13546  21015537.7424                   21015535.2074
 -36391598.53447 -28340611.47545  22594017.3984                   22594012.6214
  17830945.96546  13908633.16844  24432845.8674                   24432843.5634
 11  8 19  3 17 30.0000000  0 10G12G30G26G18G05G15G25G29G02G21
 -19136365.48747 -14895765.08044  23238055.8054                   23238052.9804
  -8378082.18347  -6507876.68245  22680420.3284                   22680418.0984
  -1087515.81047   -829204.87745  21868115.2034                   21868112.5004
  22632060.88446  17653743.63043  24256432.5864                   24256430.0314
 -23860435.38048 -18576608.40946  21513871.7894                   21513868.2114
   7617128.16347   5953857.32145  22523330.4694                   22523327.8634
 -11361816.36647  -8833492.02145  22267927.3134                   22267927.1134
  -9387227.41147  -7297891.58346  20991169.3594                   20991166.5514
 -36411993.64847 -28356503.77745  22590135.9384                   22590131.4104
  17704745.81946  13810295.48643  24408831.2424                   24408828.8444
